<?xml version="1.0" encoding="UTF-8" standalone="no" ?>
<gpx xmlns="http://www.topografix.com/GPX/1/1" xmlns:xsi="http://www.w3.org/2001/XMLSchema-instance" xsi:schemaLocation="http://www.topografix.com/GPX/1/1 http://www.topografix.com/GPX/1/1/gpx.xsd" version="1.1" creator="VisuGPX - https://www.visugpx.com">
  <metadata>
    <name>Les crêtes du Dragon, boucle autour de Saint Privat du Dragon avec lever du soleil (Haut Allier - Haute Loire)</name>
    <desc><![CDATA[Les crêtes du Dragon, boucle autour de Saint Privat du Dragon avec lever du soleil (Haut Allier - Haute Loire) [21 août 2020]]]></desc>
  </metadata>
  <trk>
    <name><![CDATA[Les crêtes du Dragon]]></name>
    <trkseg>
      <trkpt lat="45.17447" lon="3.43348">
        <ele>676.546</ele>
        <time>2020-08-21T04:38:07Z</time>
      </trkpt>
      <trkpt lat="45.17452" lon="3.43364">
        <ele>678.902</ele>
        <time>2020-08-21T04:38:17Z</time>
      </trkpt>
      <trkpt lat="45.17465" lon="3.43392">
        <ele>680.472</ele>
        <time>2020-08-21T04:38:38Z</time>
      </trkpt>
      <trkpt lat="45.17481" lon="3.43412">
        <ele>680.118</ele>
        <time>2020-08-21T04:39:00Z</time>
      </trkpt>
      <trkpt lat="45.17487" lon="3.43417">
        <ele>681.325</ele>
        <time>2020-08-21T04:39:10Z</time>
      </trkpt>
      <trkpt lat="45.17489" lon="3.43419">
        <ele>682.578</ele>
        <time>2020-08-21T04:39:13Z</time>
      </trkpt>
      <trkpt lat="45.17494" lon="3.43427">
        <ele>683.224</ele>
        <time>2020-08-21T04:39:22Z</time>
      </trkpt>
      <trkpt lat="45.17497" lon="3.43432">
        <ele>683.241</ele>
        <time>2020-08-21T04:39:28Z</time>
      </trkpt>
      <trkpt lat="45.17499" lon="3.43436">
        <ele>682.805</ele>
        <time>2020-08-21T04:39:33Z</time>
      </trkpt>
      <trkpt lat="45.17506" lon="3.43444">
        <ele>684.87</ele>
        <time>2020-08-21T04:39:41Z</time>
      </trkpt>
      <trkpt lat="45.17509" lon="3.43446">
        <ele>685.037</ele>
        <time>2020-08-21T04:39:43Z</time>
      </trkpt>
      <trkpt lat="45.17518" lon="3.43465">
        <ele>687.253</ele>
        <time>2020-08-21T04:39:55Z</time>
      </trkpt>
      <trkpt lat="45.17525" lon="3.4348">
        <ele>689.624</ele>
        <time>2020-08-21T04:40:05Z</time>
      </trkpt>
      <trkpt lat="45.17541" lon="3.43502">
        <ele>691.734</ele>
        <time>2020-08-21T04:40:22Z</time>
      </trkpt>
      <trkpt lat="45.17557" lon="3.43522">
        <ele>693.956</ele>
        <time>2020-08-21T04:40:40Z</time>
      </trkpt>
      <trkpt lat="45.17568" lon="3.43549">
        <ele>695.986</ele>
        <time>2020-08-21T04:41:04Z</time>
      </trkpt>
      <trkpt lat="45.17572" lon="3.43557">
        <ele>695.291</ele>
        <time>2020-08-21T04:41:12Z</time>
      </trkpt>
      <trkpt lat="45.1759" lon="3.43609">
        <ele>695.853</ele>
        <time>2020-08-21T04:41:50Z</time>
      </trkpt>
      <trkpt lat="45.1759" lon="3.4361">
        <ele>695.841</ele>
        <time>2020-08-21T04:41:52Z</time>
      </trkpt>
      <trkpt lat="45.1759" lon="3.4361">
        <ele>696.204</ele>
        <time>2020-08-21T04:41:54Z</time>
      </trkpt>
      <trkpt lat="45.17589" lon="3.4361">
        <ele>696.425</ele>
        <time>2020-08-21T04:41:55Z</time>
      </trkpt>
      <trkpt lat="45.17589" lon="3.4361">
        <ele>696.425</ele>
        <time>2020-08-21T04:41:55Z</time>
      </trkpt>
      <trkpt lat="45.17589" lon="3.4361">
        <ele>696.408</ele>
        <time>2020-08-21T04:41:56Z</time>
      </trkpt>
      <trkpt lat="45.17589" lon="3.4361">
        <ele>696.408</ele>
        <time>2020-08-21T04:41:56Z</time>
      </trkpt>
      <trkpt lat="45.17589" lon="3.4361">
        <ele>696.373</ele>
        <time>2020-08-21T04:41:57Z</time>
      </trkpt>
      <trkpt lat="45.1759" lon="3.43611">
        <ele>696.407</ele>
        <time>2020-08-21T04:41:58Z</time>
      </trkpt>
      <trkpt lat="45.1759" lon="3.43611">
        <ele>696.82</ele>
        <time>2020-08-21T04:41:59Z</time>
      </trkpt>
      <trkpt lat="45.1759" lon="3.43611">
        <ele>697.055</ele>
        <time>2020-08-21T04:42:24Z</time>
      </trkpt>
      <trkpt lat="45.17591" lon="3.43613">
        <ele>697.277</ele>
        <time>2020-08-21T04:42:25Z</time>
      </trkpt>
      <trkpt lat="45.17591" lon="3.43613">
        <ele>697.277</ele>
        <time>2020-08-21T04:42:25Z</time>
      </trkpt>
      <trkpt lat="45.17591" lon="3.43613">
        <ele>697.274</ele>
        <time>2020-08-21T04:42:26Z</time>
      </trkpt>
      <trkpt lat="45.17591" lon="3.43613">
        <ele>697.271</ele>
        <time>2020-08-21T04:43:22Z</time>
      </trkpt>
      <trkpt lat="45.17591" lon="3.43612">
        <ele>697.19</ele>
        <time>2020-08-21T04:43:23Z</time>
      </trkpt>
      <trkpt lat="45.17591" lon="3.43612">
        <ele>696.98</ele>
        <time>2020-08-21T04:43:25Z</time>
      </trkpt>
      <trkpt lat="45.17591" lon="3.43612">
        <ele>696.993</ele>
        <time>2020-08-21T04:43:30Z</time>
      </trkpt>
      <trkpt lat="45.17591" lon="3.43611">
        <ele>697.002</ele>
        <time>2020-08-21T04:43:31Z</time>
      </trkpt>
      <trkpt lat="45.17592" lon="3.43614">
        <ele>696.751</ele>
        <time>2020-08-21T04:43:38Z</time>
      </trkpt>
      <trkpt lat="45.17592" lon="3.43613">
        <ele>697.427</ele>
        <time>2020-08-21T04:43:40Z</time>
      </trkpt>
      <trkpt lat="45.17593" lon="3.43613">
        <ele>697.506</ele>
        <time>2020-08-21T04:43:42Z</time>
      </trkpt>
      <trkpt lat="45.17593" lon="3.43613">
        <ele>699.161</ele>
        <time>2020-08-21T04:43:43Z</time>
      </trkpt>
      <trkpt lat="45.17594" lon="3.43613">
        <ele>699.52</ele>
        <time>2020-08-21T04:43:44Z</time>
      </trkpt>
      <trkpt lat="45.17594" lon="3.43613">
        <ele>699.617</ele>
        <time>2020-08-21T04:43:46Z</time>
      </trkpt>
      <trkpt lat="45.17594" lon="3.43613">
        <ele>699.049</ele>
        <time>2020-08-21T04:43:47Z</time>
      </trkpt>
      <trkpt lat="45.17594" lon="3.43612">
        <ele>698.541</ele>
        <time>2020-08-21T04:43:49Z</time>
      </trkpt>
      <trkpt lat="45.17594" lon="3.43612">
        <ele>698.541</ele>
        <time>2020-08-21T04:43:49Z</time>
      </trkpt>
      <trkpt lat="45.17593" lon="3.43613">
        <ele>698.366</ele>
        <time>2020-08-21T04:43:50Z</time>
      </trkpt>
      <trkpt lat="45.17593" lon="3.43613">
        <ele>698.603</ele>
        <time>2020-08-21T04:43:51Z</time>
      </trkpt>
      <trkpt lat="45.17593" lon="3.43613">
        <ele>699.01</ele>
        <time>2020-08-21T04:43:52Z</time>
      </trkpt>
      <trkpt lat="45.17593" lon="3.43613">
        <ele>698.022</ele>
        <time>2020-08-21T04:44:53Z</time>
      </trkpt>
      <trkpt lat="45.17596" lon="3.43612">
        <ele>698.062</ele>
        <time>2020-08-21T04:44:54Z</time>
      </trkpt>
      <trkpt lat="45.17597" lon="3.43611">
        <ele>698.385</ele>
        <time>2020-08-21T04:44:55Z</time>
      </trkpt>
      <trkpt lat="45.17598" lon="3.4361">
        <ele>699.954</ele>
        <time>2020-08-21T04:44:59Z</time>
      </trkpt>
      <trkpt lat="45.17599" lon="3.43609">
        <ele>699.875</ele>
        <time>2020-08-21T04:45:00Z</time>
      </trkpt>
      <trkpt lat="45.17598" lon="3.43608">
        <ele>701.255</ele>
        <time>2020-08-21T04:45:04Z</time>
      </trkpt>
      <trkpt lat="45.17598" lon="3.43608">
        <ele>701.255</ele>
        <time>2020-08-21T04:45:04Z</time>
      </trkpt>
      <trkpt lat="45.17598" lon="3.43608">
        <ele>700.743</ele>
        <time>2020-08-21T04:45:05Z</time>
      </trkpt>
      <trkpt lat="45.17598" lon="3.43608">
        <ele>701.534</ele>
        <time>2020-08-21T04:46:21Z</time>
      </trkpt>
      <trkpt lat="45.17596" lon="3.43611">
        <ele>701.117</ele>
        <time>2020-08-21T04:46:22Z</time>
      </trkpt>
      <trkpt lat="45.17596" lon="3.43611">
        <ele>701.553</ele>
        <time>2020-08-21T04:46:23Z</time>
      </trkpt>
      <trkpt lat="45.17597" lon="3.43611">
        <ele>701.508</ele>
        <time>2020-08-21T04:46:24Z</time>
      </trkpt>
      <trkpt lat="45.17598" lon="3.4361">
        <ele>700.645</ele>
        <time>2020-08-21T04:46:28Z</time>
      </trkpt>
      <trkpt lat="45.17598" lon="3.4361">
        <ele>700.645</ele>
        <time>2020-08-21T04:46:28Z</time>
      </trkpt>
      <trkpt lat="45.17598" lon="3.4361">
        <ele>700.197</ele>
        <time>2020-08-21T04:46:29Z</time>
      </trkpt>
      <trkpt lat="45.17598" lon="3.4361">
        <ele>700.197</ele>
        <time>2020-08-21T04:46:29Z</time>
      </trkpt>
      <trkpt lat="45.17598" lon="3.4361">
        <ele>700.266</ele>
        <time>2020-08-21T04:46:30Z</time>
      </trkpt>
      <trkpt lat="45.17598" lon="3.4361">
        <ele>700.545</ele>
        <time>2020-08-21T04:46:49Z</time>
      </trkpt>
      <trkpt lat="45.17597" lon="3.43611">
        <ele>700.388</ele>
        <time>2020-08-21T04:46:50Z</time>
      </trkpt>
      <trkpt lat="45.17597" lon="3.43611">
        <ele>700.388</ele>
        <time>2020-08-21T04:46:50Z</time>
      </trkpt>
      <trkpt lat="45.17597" lon="3.43611">
        <ele>700.368</ele>
        <time>2020-08-21T04:46:51Z</time>
      </trkpt>
      <trkpt lat="45.17597" lon="3.43611">
        <ele>700.35</ele>
        <time>2020-08-21T04:46:59Z</time>
      </trkpt>
      <trkpt lat="45.17597" lon="3.43612">
        <ele>700.538</ele>
        <time>2020-08-21T04:47:00Z</time>
      </trkpt>
      <trkpt lat="45.17597" lon="3.43612">
        <ele>700.538</ele>
        <time>2020-08-21T04:47:00Z</time>
      </trkpt>
      <trkpt lat="45.17597" lon="3.43612">
        <ele>700.545</ele>
        <time>2020-08-21T04:47:01Z</time>
      </trkpt>
      <trkpt lat="45.17597" lon="3.43612">
        <ele>700.212</ele>
        <time>2020-08-21T04:47:15Z</time>
      </trkpt>
      <trkpt lat="45.17597" lon="3.43611">
        <ele>700.168</ele>
        <time>2020-08-21T04:47:16Z</time>
      </trkpt>
      <trkpt lat="45.17597" lon="3.43611">
        <ele>700.9</ele>
        <time>2020-08-21T04:47:17Z</time>
      </trkpt>
      <trkpt lat="45.17597" lon="3.43611">
        <ele>700.873</ele>
        <time>2020-08-21T04:47:18Z</time>
      </trkpt>
      <trkpt lat="45.17597" lon="3.43611">
        <ele>700.457</ele>
        <time>2020-08-21T04:49:33Z</time>
      </trkpt>
      <trkpt lat="45.17597" lon="3.43612">
        <ele>699.941</ele>
        <time>2020-08-21T04:49:34Z</time>
      </trkpt>
      <trkpt lat="45.17597" lon="3.43612">
        <ele>699.952</ele>
        <time>2020-08-21T04:49:35Z</time>
      </trkpt>
      <trkpt lat="45.17597" lon="3.43612">
        <ele>700.56</ele>
        <time>2020-08-21T04:50:30Z</time>
      </trkpt>
      <trkpt lat="45.17597" lon="3.43613">
        <ele>700.595</ele>
        <time>2020-08-21T04:50:31Z</time>
      </trkpt>
      <trkpt lat="45.17597" lon="3.43613">
        <ele>700.595</ele>
        <time>2020-08-21T04:50:31Z</time>
      </trkpt>
      <trkpt lat="45.17597" lon="3.43613">
        <ele>700.567</ele>
        <time>2020-08-21T04:50:32Z</time>
      </trkpt>
      <trkpt lat="45.17597" lon="3.43613">
        <ele>701.697</ele>
        <time>2020-08-21T04:52:43Z</time>
      </trkpt>
      <trkpt lat="45.17597" lon="3.43612">
        <ele>701.92</ele>
        <time>2020-08-21T04:52:44Z</time>
      </trkpt>
      <trkpt lat="45.17597" lon="3.43611">
        <ele>702.512</ele>
        <time>2020-08-21T04:52:47Z</time>
      </trkpt>
      <trkpt lat="45.17597" lon="3.43611">
        <ele>702.516</ele>
        <time>2020-08-21T04:52:53Z</time>
      </trkpt>
      <trkpt lat="45.17597" lon="3.4361">
        <ele>701.84</ele>
        <time>2020-08-21T04:52:54Z</time>
      </trkpt>
      <trkpt lat="45.17597" lon="3.4361">
        <ele>701.704</ele>
        <time>2020-08-21T04:52:55Z</time>
      </trkpt>
      <trkpt lat="45.17597" lon="3.4361">
        <ele>701.712</ele>
        <time>2020-08-21T04:53:08Z</time>
      </trkpt>
      <trkpt lat="45.17596" lon="3.4361">
        <ele>702.053</ele>
        <time>2020-08-21T04:53:09Z</time>
      </trkpt>
      <trkpt lat="45.17596" lon="3.4361">
        <ele>702.267</ele>
        <time>2020-08-21T04:53:10Z</time>
      </trkpt>
      <trkpt lat="45.17596" lon="3.4361">
        <ele>703.588</ele>
        <time>2020-08-21T04:58:33Z</time>
      </trkpt>
      <trkpt lat="45.17597" lon="3.4361">
        <ele>704.123</ele>
        <time>2020-08-21T04:58:34Z</time>
      </trkpt>
      <trkpt lat="45.17597" lon="3.4361">
        <ele>704.123</ele>
        <time>2020-08-21T04:58:35Z</time>
      </trkpt>
      <trkpt lat="45.17597" lon="3.4361">
        <ele>703.853</ele>
        <time>2020-08-21T05:00:53Z</time>
      </trkpt>
      <trkpt lat="45.17597" lon="3.4361">
        <ele>703.649</ele>
        <time>2020-08-21T05:00:54Z</time>
      </trkpt>
      <trkpt lat="45.17597" lon="3.4361">
        <ele>703.649</ele>
        <time>2020-08-21T05:00:54Z</time>
      </trkpt>
      <trkpt lat="45.17597" lon="3.4361">
        <ele>703.601</ele>
        <time>2020-08-21T05:00:55Z</time>
      </trkpt>
      <trkpt lat="45.17597" lon="3.4361">
        <ele>703.465</ele>
        <time>2020-08-21T05:01:08Z</time>
      </trkpt>
      <trkpt lat="45.17596" lon="3.43609">
        <ele>704.35</ele>
        <time>2020-08-21T05:01:09Z</time>
      </trkpt>
      <trkpt lat="45.17596" lon="3.43609">
        <ele>704.397</ele>
        <time>2020-08-21T05:01:10Z</time>
      </trkpt>
      <trkpt lat="45.17596" lon="3.43609">
        <ele>704.437</ele>
        <time>2020-08-21T05:02:08Z</time>
      </trkpt>
      <trkpt lat="45.17596" lon="3.43609">
        <ele>704.322</ele>
        <time>2020-08-21T05:02:09Z</time>
      </trkpt>
      <trkpt lat="45.17596" lon="3.43609">
        <ele>704.21</ele>
        <time>2020-08-21T05:02:10Z</time>
      </trkpt>
      <trkpt lat="45.17596" lon="3.43609">
        <ele>704.101</ele>
        <time>2020-08-21T05:03:38Z</time>
      </trkpt>
      <trkpt lat="45.17596" lon="3.43609">
        <ele>704.055</ele>
        <time>2020-08-21T05:03:39Z</time>
      </trkpt>
      <trkpt lat="45.17596" lon="3.43609">
        <ele>704.202</ele>
        <time>2020-08-21T05:03:40Z</time>
      </trkpt>
      <trkpt lat="45.17596" lon="3.43609">
        <ele>703.77</ele>
        <time>2020-08-21T05:04:07Z</time>
      </trkpt>
      <trkpt lat="45.17595" lon="3.4361">
        <ele>704.361</ele>
        <time>2020-08-21T05:04:08Z</time>
      </trkpt>
      <trkpt lat="45.17595" lon="3.4361">
        <ele>704.361</ele>
        <time>2020-08-21T05:04:08Z</time>
      </trkpt>
      <trkpt lat="45.17595" lon="3.4361">
        <ele>704.635</ele>
        <time>2020-08-21T05:04:09Z</time>
      </trkpt>
      <trkpt lat="45.17595" lon="3.4361">
        <ele>705.084</ele>
        <time>2020-08-21T05:04:38Z</time>
      </trkpt>
      <trkpt lat="45.17596" lon="3.4361">
        <ele>704.719</ele>
        <time>2020-08-21T05:04:39Z</time>
      </trkpt>
      <trkpt lat="45.17596" lon="3.4361">
        <ele>704.457</ele>
        <time>2020-08-21T05:04:40Z</time>
      </trkpt>
      <trkpt lat="45.17596" lon="3.4361">
        <ele>704.253</ele>
        <time>2020-08-21T05:05:11Z</time>
      </trkpt>
      <trkpt lat="45.17596" lon="3.4361">
        <ele>704.226</ele>
        <time>2020-08-21T05:05:12Z</time>
      </trkpt>
      <trkpt lat="45.17596" lon="3.4361">
        <ele>704.167</ele>
        <time>2020-08-21T05:05:13Z</time>
      </trkpt>
      <trkpt lat="45.17596" lon="3.4361">
        <ele>704.331</ele>
        <time>2020-08-21T05:05:38Z</time>
      </trkpt>
      <trkpt lat="45.17597" lon="3.43611">
        <ele>703.973</ele>
        <time>2020-08-21T05:05:39Z</time>
      </trkpt>
      <trkpt lat="45.17597" lon="3.43611">
        <ele>703.885</ele>
        <time>2020-08-21T05:05:40Z</time>
      </trkpt>
      <trkpt lat="45.17597" lon="3.43611">
        <ele>703.769</ele>
        <time>2020-08-21T05:05:43Z</time>
      </trkpt>
      <trkpt lat="45.17597" lon="3.43611">
        <ele>703.81</ele>
        <time>2020-08-21T05:05:44Z</time>
      </trkpt>
      <trkpt lat="45.17597" lon="3.43611">
        <ele>703.924</ele>
        <time>2020-08-21T05:05:45Z</time>
      </trkpt>
      <trkpt lat="45.17597" lon="3.43611">
        <ele>703.941</ele>
        <time>2020-08-21T05:05:47Z</time>
      </trkpt>
      <trkpt lat="45.17597" lon="3.4361">
        <ele>703.995</ele>
        <time>2020-08-21T05:05:48Z</time>
      </trkpt>
      <trkpt lat="45.17597" lon="3.4361">
        <ele>703.896</ele>
        <time>2020-08-21T05:05:49Z</time>
      </trkpt>
      <trkpt lat="45.17597" lon="3.4361">
        <ele>703.72</ele>
        <time>2020-08-21T05:07:03Z</time>
      </trkpt>
      <trkpt lat="45.17596" lon="3.4361">
        <ele>703.9</ele>
        <time>2020-08-21T05:07:04Z</time>
      </trkpt>
      <trkpt lat="45.17596" lon="3.4361">
        <ele>703.928</ele>
        <time>2020-08-21T05:07:05Z</time>
      </trkpt>
      <trkpt lat="45.17596" lon="3.4361">
        <ele>704.067</ele>
        <time>2020-08-21T05:07:27Z</time>
      </trkpt>
      <trkpt lat="45.17597" lon="3.43609">
        <ele>703.938</ele>
        <time>2020-08-21T05:07:28Z</time>
      </trkpt>
      <trkpt lat="45.17597" lon="3.4361">
        <ele>704.186</ele>
        <time>2020-08-21T05:07:30Z</time>
      </trkpt>
      <trkpt lat="45.17597" lon="3.43609">
        <ele>703.915</ele>
        <time>2020-08-21T05:07:32Z</time>
      </trkpt>
      <trkpt lat="45.17597" lon="3.43609">
        <ele>704.069</ele>
        <time>2020-08-21T05:08:03Z</time>
      </trkpt>
      <trkpt lat="45.17597" lon="3.4361">
        <ele>704.231</ele>
        <time>2020-08-21T05:08:04Z</time>
      </trkpt>
      <trkpt lat="45.17597" lon="3.4361">
        <ele>704.199</ele>
        <time>2020-08-21T05:08:05Z</time>
      </trkpt>
      <trkpt lat="45.17597" lon="3.4361">
        <ele>704.227</ele>
        <time>2020-08-21T05:08:07Z</time>
      </trkpt>
      <trkpt lat="45.17596" lon="3.4361">
        <ele>703.748</ele>
        <time>2020-08-21T05:08:08Z</time>
      </trkpt>
      <trkpt lat="45.17596" lon="3.4361">
        <ele>703.723</ele>
        <time>2020-08-21T05:08:09Z</time>
      </trkpt>
      <trkpt lat="45.17596" lon="3.4361">
        <ele>703.723</ele>
        <time>2020-08-21T05:08:09Z</time>
      </trkpt>
      <trkpt lat="45.17596" lon="3.43611">
        <ele>703.812</ele>
        <time>2020-08-21T05:08:10Z</time>
      </trkpt>
      <trkpt lat="45.17596" lon="3.43611">
        <ele>703.725</ele>
        <time>2020-08-21T05:08:11Z</time>
      </trkpt>
      <trkpt lat="45.17596" lon="3.43611">
        <ele>704.589</ele>
        <time>2020-08-21T05:08:47Z</time>
      </trkpt>
      <trkpt lat="45.17594" lon="3.43612">
        <ele>704.233</ele>
        <time>2020-08-21T05:08:48Z</time>
      </trkpt>
      <trkpt lat="45.17594" lon="3.43612">
        <ele>704.204</ele>
        <time>2020-08-21T05:08:49Z</time>
      </trkpt>
      <trkpt lat="45.17594" lon="3.43612">
        <ele>704.204</ele>
        <time>2020-08-21T05:08:49Z</time>
      </trkpt>
      <trkpt lat="45.17594" lon="3.43613">
        <ele>703.656</ele>
        <time>2020-08-21T05:08:50Z</time>
      </trkpt>
      <trkpt lat="45.17593" lon="3.43613">
        <ele>703.167</ele>
        <time>2020-08-21T05:08:52Z</time>
      </trkpt>
      <trkpt lat="45.17591" lon="3.43615">
        <ele>701.999</ele>
        <time>2020-08-21T05:08:55Z</time>
      </trkpt>
      <trkpt lat="45.17589" lon="3.43615">
        <ele>699.945</ele>
        <time>2020-08-21T05:08:57Z</time>
      </trkpt>
      <trkpt lat="45.17592" lon="3.43621">
        <ele>700.172</ele>
        <time>2020-08-21T05:09:02Z</time>
      </trkpt>
      <trkpt lat="45.176" lon="3.43645">
        <ele>700.044</ele>
        <time>2020-08-21T05:09:20Z</time>
      </trkpt>
      <trkpt lat="45.17602" lon="3.43657">
        <ele>698.601</ele>
        <time>2020-08-21T05:09:27Z</time>
      </trkpt>
      <trkpt lat="45.17603" lon="3.4366">
        <ele>698.407</ele>
        <time>2020-08-21T05:09:29Z</time>
      </trkpt>
      <trkpt lat="45.17605" lon="3.43667">
        <ele>698.133</ele>
        <time>2020-08-21T05:09:33Z</time>
      </trkpt>
      <trkpt lat="45.17606" lon="3.43677">
        <ele>697.28</ele>
        <time>2020-08-21T05:09:39Z</time>
      </trkpt>
      <trkpt lat="45.17606" lon="3.43681">
        <ele>697.897</ele>
        <time>2020-08-21T05:09:41Z</time>
      </trkpt>
      <trkpt lat="45.17607" lon="3.43685">
        <ele>697.107</ele>
        <time>2020-08-21T05:09:44Z</time>
      </trkpt>
      <trkpt lat="45.17608" lon="3.4369">
        <ele>696.357</ele>
        <time>2020-08-21T05:09:47Z</time>
      </trkpt>
      <trkpt lat="45.1761" lon="3.437">
        <ele>695.944</ele>
        <time>2020-08-21T05:09:52Z</time>
      </trkpt>
      <trkpt lat="45.17617" lon="3.43721">
        <ele>694.573</ele>
        <time>2020-08-21T05:10:06Z</time>
      </trkpt>
      <trkpt lat="45.17623" lon="3.43731">
        <ele>693.573</ele>
        <time>2020-08-21T05:10:14Z</time>
      </trkpt>
      <trkpt lat="45.17625" lon="3.43734">
        <ele>693.132</ele>
        <time>2020-08-21T05:10:18Z</time>
      </trkpt>
      <trkpt lat="45.17627" lon="3.43738">
        <ele>692.737</ele>
        <time>2020-08-21T05:10:21Z</time>
      </trkpt>
      <trkpt lat="45.17629" lon="3.43744">
        <ele>690.744</ele>
        <time>2020-08-21T05:10:25Z</time>
      </trkpt>
      <trkpt lat="45.17646" lon="3.4378">
        <ele>689.114</ele>
        <time>2020-08-21T05:10:53Z</time>
      </trkpt>
      <trkpt lat="45.17646" lon="3.43781">
        <ele>688.99</ele>
        <time>2020-08-21T05:10:54Z</time>
      </trkpt>
      <trkpt lat="45.17654" lon="3.43796">
        <ele>686.545</ele>
        <time>2020-08-21T05:11:05Z</time>
      </trkpt>
      <trkpt lat="45.17662" lon="3.43816">
        <ele>684.898</ele>
        <time>2020-08-21T05:11:19Z</time>
      </trkpt>
      <trkpt lat="45.1767" lon="3.43833">
        <ele>684.376</ele>
        <time>2020-08-21T05:11:27Z</time>
      </trkpt>
      <trkpt lat="45.1768" lon="3.43858">
        <ele>682.791</ele>
        <time>2020-08-21T05:11:44Z</time>
      </trkpt>
      <trkpt lat="45.17717" lon="3.4392">
        <ele>683.273</ele>
        <time>2020-08-21T05:12:27Z</time>
      </trkpt>
      <trkpt lat="45.17724" lon="3.43936">
        <ele>684.008</ele>
        <time>2020-08-21T05:12:38Z</time>
      </trkpt>
      <trkpt lat="45.17723" lon="3.43937">
        <ele>684.126</ele>
        <time>2020-08-21T05:12:40Z</time>
      </trkpt>
      <trkpt lat="45.17723" lon="3.43937">
        <ele>683.835</ele>
        <time>2020-08-21T05:12:42Z</time>
      </trkpt>
      <trkpt lat="45.17723" lon="3.43937">
        <ele>683.708</ele>
        <time>2020-08-21T05:12:43Z</time>
      </trkpt>
      <trkpt lat="45.17723" lon="3.43938">
        <ele>683.399</ele>
        <time>2020-08-21T05:12:44Z</time>
      </trkpt>
      <trkpt lat="45.17723" lon="3.43939">
        <ele>683.386</ele>
        <time>2020-08-21T05:12:47Z</time>
      </trkpt>
      <trkpt lat="45.17723" lon="3.43939">
        <ele>683.386</ele>
        <time>2020-08-21T05:12:47Z</time>
      </trkpt>
      <trkpt lat="45.17723" lon="3.43939">
        <ele>683.361</ele>
        <time>2020-08-21T05:12:48Z</time>
      </trkpt>
      <trkpt lat="45.17723" lon="3.43939">
        <ele>683.387</ele>
        <time>2020-08-21T05:12:58Z</time>
      </trkpt>
      <trkpt lat="45.17723" lon="3.43938">
        <ele>683.235</ele>
        <time>2020-08-21T05:12:59Z</time>
      </trkpt>
      <trkpt lat="45.17723" lon="3.43938">
        <ele>683.304</ele>
        <time>2020-08-21T05:13:00Z</time>
      </trkpt>
      <trkpt lat="45.17726" lon="3.43941">
        <ele>683.445</ele>
        <time>2020-08-21T05:13:03Z</time>
      </trkpt>
      <trkpt lat="45.17726" lon="3.43946">
        <ele>682.991</ele>
        <time>2020-08-21T05:13:05Z</time>
      </trkpt>
      <trkpt lat="45.17725" lon="3.43958">
        <ele>683.116</ele>
        <time>2020-08-21T05:13:09Z</time>
      </trkpt>
      <trkpt lat="45.17724" lon="3.43961">
        <ele>682.71</ele>
        <time>2020-08-21T05:13:10Z</time>
      </trkpt>
      <trkpt lat="45.17722" lon="3.43974">
        <ele>682.842</ele>
        <time>2020-08-21T05:13:13Z</time>
      </trkpt>
      <trkpt lat="45.17713" lon="3.44005">
        <ele>682.978</ele>
        <time>2020-08-21T05:13:20Z</time>
      </trkpt>
      <trkpt lat="45.17711" lon="3.44018">
        <ele>683.144</ele>
        <time>2020-08-21T05:13:23Z</time>
      </trkpt>
      <trkpt lat="45.17699" lon="3.4406">
        <ele>681.514</ele>
        <time>2020-08-21T05:13:35Z</time>
      </trkpt>
      <trkpt lat="45.17695" lon="3.44064">
        <ele>681.18</ele>
        <time>2020-08-21T05:13:37Z</time>
      </trkpt>
      <trkpt lat="45.17692" lon="3.44063">
        <ele>681.295</ele>
        <time>2020-08-21T05:13:39Z</time>
      </trkpt>
      <trkpt lat="45.1769" lon="3.4406">
        <ele>681.264</ele>
        <time>2020-08-21T05:13:43Z</time>
      </trkpt>
      <trkpt lat="45.1769" lon="3.4406">
        <ele>681.264</ele>
        <time>2020-08-21T05:13:43Z</time>
      </trkpt>
      <trkpt lat="45.1769" lon="3.4406">
        <ele>681.154</ele>
        <time>2020-08-21T05:13:44Z</time>
      </trkpt>
      <trkpt lat="45.1769" lon="3.4406">
        <ele>681.125</ele>
        <time>2020-08-21T05:13:48Z</time>
      </trkpt>
      <trkpt lat="45.1769" lon="3.44059">
        <ele>681.38</ele>
        <time>2020-08-21T05:13:49Z</time>
      </trkpt>
      <trkpt lat="45.1769" lon="3.44059">
        <ele>681.383</ele>
        <time>2020-08-21T05:13:50Z</time>
      </trkpt>
      <trkpt lat="45.1769" lon="3.44059">
        <ele>681.484</ele>
        <time>2020-08-21T05:13:58Z</time>
      </trkpt>
      <trkpt lat="45.17691" lon="3.44063">
        <ele>681.792</ele>
        <time>2020-08-21T05:13:59Z</time>
      </trkpt>
      <trkpt lat="45.17694" lon="3.44076">
        <ele>682.768</ele>
        <time>2020-08-21T05:14:05Z</time>
      </trkpt>
      <trkpt lat="45.17726" lon="3.44143">
        <ele>682.207</ele>
        <time>2020-08-21T05:14:48Z</time>
      </trkpt>
      <trkpt lat="45.17732" lon="3.44144">
        <ele>682.458</ele>
        <time>2020-08-21T05:14:53Z</time>
      </trkpt>
      <trkpt lat="45.17747" lon="3.4414">
        <ele>683.111</ele>
        <time>2020-08-21T05:15:03Z</time>
      </trkpt>
      <trkpt lat="45.17751" lon="3.44138">
        <ele>683.188</ele>
        <time>2020-08-21T05:15:06Z</time>
      </trkpt>
      <trkpt lat="45.17754" lon="3.44138">
        <ele>682.983</ele>
        <time>2020-08-21T05:15:08Z</time>
      </trkpt>
      <trkpt lat="45.17755" lon="3.44138">
        <ele>683.058</ele>
        <time>2020-08-21T05:15:09Z</time>
      </trkpt>
      <trkpt lat="45.17755" lon="3.44139">
        <ele>682.929</ele>
        <time>2020-08-21T05:15:10Z</time>
      </trkpt>
      <trkpt lat="45.17773" lon="3.44156">
        <ele>683.984</ele>
        <time>2020-08-21T05:15:24Z</time>
      </trkpt>
      <trkpt lat="45.17802" lon="3.44173">
        <ele>682.432</ele>
        <time>2020-08-21T05:15:49Z</time>
      </trkpt>
      <trkpt lat="45.17865" lon="3.44226">
        <ele>680.187</ele>
        <time>2020-08-21T05:16:45Z</time>
      </trkpt>
      <trkpt lat="45.17933" lon="3.44285">
        <ele>678.15</ele>
        <time>2020-08-21T05:17:47Z</time>
      </trkpt>
      <trkpt lat="45.17961" lon="3.44311">
        <ele>675.988</ele>
        <time>2020-08-21T05:18:13Z</time>
      </trkpt>
      <trkpt lat="45.17987" lon="3.44333">
        <ele>673.799</ele>
        <time>2020-08-21T05:18:36Z</time>
      </trkpt>
      <trkpt lat="45.18012" lon="3.44356">
        <ele>674.153</ele>
        <time>2020-08-21T05:18:59Z</time>
      </trkpt>
      <trkpt lat="45.18066" lon="3.44432">
        <ele>672.545</ele>
        <time>2020-08-21T05:19:54Z</time>
      </trkpt>
      <trkpt lat="45.18094" lon="3.44451">
        <ele>673.535</ele>
        <time>2020-08-21T05:20:21Z</time>
      </trkpt>
      <trkpt lat="45.18104" lon="3.44453">
        <ele>673.698</ele>
        <time>2020-08-21T05:20:28Z</time>
      </trkpt>
      <trkpt lat="45.18115" lon="3.44453">
        <ele>673.186</ele>
        <time>2020-08-21T05:20:37Z</time>
      </trkpt>
      <trkpt lat="45.18117" lon="3.44454">
        <ele>673.395</ele>
        <time>2020-08-21T05:20:39Z</time>
      </trkpt>
      <trkpt lat="45.18121" lon="3.44454">
        <ele>673.103</ele>
        <time>2020-08-21T05:20:42Z</time>
      </trkpt>
      <trkpt lat="45.18124" lon="3.44455">
        <ele>672.709</ele>
        <time>2020-08-21T05:20:45Z</time>
      </trkpt>
      <trkpt lat="45.18183" lon="3.44475">
        <ele>674.436</ele>
        <time>2020-08-21T05:21:32Z</time>
      </trkpt>
      <trkpt lat="45.18187" lon="3.44477">
        <ele>674.407</ele>
        <time>2020-08-21T05:21:35Z</time>
      </trkpt>
      <trkpt lat="45.18194" lon="3.44485">
        <ele>675.535</ele>
        <time>2020-08-21T05:21:47Z</time>
      </trkpt>
      <trkpt lat="45.18194" lon="3.44485">
        <ele>675.637</ele>
        <time>2020-08-21T05:21:48Z</time>
      </trkpt>
      <trkpt lat="45.18196" lon="3.44486">
        <ele>675.637</ele>
        <time>2020-08-21T05:21:50Z</time>
      </trkpt>
      <trkpt lat="45.18204" lon="3.44495">
        <ele>676.373</ele>
        <time>2020-08-21T05:21:57Z</time>
      </trkpt>
      <trkpt lat="45.18207" lon="3.44503">
        <ele>677.016</ele>
        <time>2020-08-21T05:22:02Z</time>
      </trkpt>
      <trkpt lat="45.18208" lon="3.44507">
        <ele>676.791</ele>
        <time>2020-08-21T05:22:04Z</time>
      </trkpt>
      <trkpt lat="45.18211" lon="3.44514">
        <ele>677.065</ele>
        <time>2020-08-21T05:22:07Z</time>
      </trkpt>
      <trkpt lat="45.18215" lon="3.44531">
        <ele>677.949</ele>
        <time>2020-08-21T05:22:14Z</time>
      </trkpt>
      <trkpt lat="45.18212" lon="3.44545">
        <ele>676.228</ele>
        <time>2020-08-21T05:22:21Z</time>
      </trkpt>
      <trkpt lat="45.18211" lon="3.44549">
        <ele>676.193</ele>
        <time>2020-08-21T05:22:24Z</time>
      </trkpt>
      <trkpt lat="45.1821" lon="3.44555">
        <ele>676.047</ele>
        <time>2020-08-21T05:22:28Z</time>
      </trkpt>
      <trkpt lat="45.18208" lon="3.44578">
        <ele>674.715</ele>
        <time>2020-08-21T05:22:43Z</time>
      </trkpt>
      <trkpt lat="45.18213" lon="3.44595">
        <ele>673.81</ele>
        <time>2020-08-21T05:22:52Z</time>
      </trkpt>
      <trkpt lat="45.18214" lon="3.44604">
        <ele>673.282</ele>
        <time>2020-08-21T05:22:58Z</time>
      </trkpt>
      <trkpt lat="45.18217" lon="3.44618">
        <ele>673.169</ele>
        <time>2020-08-21T05:23:09Z</time>
      </trkpt>
      <trkpt lat="45.18225" lon="3.44625">
        <ele>672.211</ele>
        <time>2020-08-21T05:23:19Z</time>
      </trkpt>
      <trkpt lat="45.18231" lon="3.4463">
        <ele>672.756</ele>
        <time>2020-08-21T05:23:25Z</time>
      </trkpt>
      <trkpt lat="45.18236" lon="3.4463">
        <ele>672.003</ele>
        <time>2020-08-21T05:23:29Z</time>
      </trkpt>
      <trkpt lat="45.18246" lon="3.44632">
        <ele>671.452</ele>
        <time>2020-08-21T05:23:39Z</time>
      </trkpt>
      <trkpt lat="45.18248" lon="3.44631">
        <ele>671.598</ele>
        <time>2020-08-21T05:23:41Z</time>
      </trkpt>
      <trkpt lat="45.18253" lon="3.44633">
        <ele>671.72</ele>
        <time>2020-08-21T05:23:44Z</time>
      </trkpt>
      <trkpt lat="45.18265" lon="3.44638">
        <ele>670.592</ele>
        <time>2020-08-21T05:23:52Z</time>
      </trkpt>
      <trkpt lat="45.18269" lon="3.44637">
        <ele>670.423</ele>
        <time>2020-08-21T05:23:54Z</time>
      </trkpt>
      <trkpt lat="45.18274" lon="3.44637">
        <ele>669.956</ele>
        <time>2020-08-21T05:23:57Z</time>
      </trkpt>
      <trkpt lat="45.18282" lon="3.44639">
        <ele>669.961</ele>
        <time>2020-08-21T05:24:01Z</time>
      </trkpt>
      <trkpt lat="45.18293" lon="3.4464">
        <ele>669.6</ele>
        <time>2020-08-21T05:24:08Z</time>
      </trkpt>
      <trkpt lat="45.18299" lon="3.44638">
        <ele>670.129</ele>
        <time>2020-08-21T05:24:13Z</time>
      </trkpt>
      <trkpt lat="45.18307" lon="3.44639">
        <ele>670.371</ele>
        <time>2020-08-21T05:24:18Z</time>
      </trkpt>
      <trkpt lat="45.18311" lon="3.44639">
        <ele>670.114</ele>
        <time>2020-08-21T05:24:20Z</time>
      </trkpt>
      <trkpt lat="45.18341" lon="3.44645">
        <ele>667.71</ele>
        <time>2020-08-21T05:24:39Z</time>
      </trkpt>
      <trkpt lat="45.18345" lon="3.44643">
        <ele>667.326</ele>
        <time>2020-08-21T05:24:42Z</time>
      </trkpt>
      <trkpt lat="45.1835" lon="3.44643">
        <ele>666.911</ele>
        <time>2020-08-21T05:24:45Z</time>
      </trkpt>
      <trkpt lat="45.18361" lon="3.44645">
        <ele>665.981</ele>
        <time>2020-08-21T05:24:53Z</time>
      </trkpt>
      <trkpt lat="45.18363" lon="3.44643">
        <ele>665.834</ele>
        <time>2020-08-21T05:24:55Z</time>
      </trkpt>
      <trkpt lat="45.18365" lon="3.44642">
        <ele>665.495</ele>
        <time>2020-08-21T05:24:57Z</time>
      </trkpt>
      <trkpt lat="45.18369" lon="3.4464">
        <ele>664.928</ele>
        <time>2020-08-21T05:24:59Z</time>
      </trkpt>
      <trkpt lat="45.18386" lon="3.44641">
        <ele>665.039</ele>
        <time>2020-08-21T05:25:12Z</time>
      </trkpt>
      <trkpt lat="45.18401" lon="3.44644">
        <ele>664.884</ele>
        <time>2020-08-21T05:25:23Z</time>
      </trkpt>
      <trkpt lat="45.18406" lon="3.44645">
        <ele>664.147</ele>
        <time>2020-08-21T05:25:27Z</time>
      </trkpt>
      <trkpt lat="45.18413" lon="3.44647">
        <ele>664.135</ele>
        <time>2020-08-21T05:25:33Z</time>
      </trkpt>
      <trkpt lat="45.18428" lon="3.44655">
        <ele>662.257</ele>
        <time>2020-08-21T05:25:45Z</time>
      </trkpt>
      <trkpt lat="45.18438" lon="3.44654">
        <ele>660.942</ele>
        <time>2020-08-21T05:25:51Z</time>
      </trkpt>
      <trkpt lat="45.18448" lon="3.4466">
        <ele>660.682</ele>
        <time>2020-08-21T05:25:57Z</time>
      </trkpt>
      <trkpt lat="45.18469" lon="3.44675">
        <ele>658.66</ele>
        <time>2020-08-21T05:26:14Z</time>
      </trkpt>
      <trkpt lat="45.1847" lon="3.4468">
        <ele>657.944</ele>
        <time>2020-08-21T05:26:17Z</time>
      </trkpt>
      <trkpt lat="45.18475" lon="3.44689">
        <ele>657.711</ele>
        <time>2020-08-21T05:26:22Z</time>
      </trkpt>
      <trkpt lat="45.18476" lon="3.4469">
        <ele>657.44</ele>
        <time>2020-08-21T05:26:24Z</time>
      </trkpt>
      <trkpt lat="45.18477" lon="3.44693">
        <ele>657.569</ele>
        <time>2020-08-21T05:26:26Z</time>
      </trkpt>
      <trkpt lat="45.18483" lon="3.44704">
        <ele>657.469</ele>
        <time>2020-08-21T05:26:32Z</time>
      </trkpt>
      <trkpt lat="45.18491" lon="3.44713">
        <ele>656.037</ele>
        <time>2020-08-21T05:26:38Z</time>
      </trkpt>
      <trkpt lat="45.18496" lon="3.44721">
        <ele>656.224</ele>
        <time>2020-08-21T05:26:44Z</time>
      </trkpt>
      <trkpt lat="45.18499" lon="3.44726">
        <ele>655.894</ele>
        <time>2020-08-21T05:26:49Z</time>
      </trkpt>
      <trkpt lat="45.18502" lon="3.44737">
        <ele>654.694</ele>
        <time>2020-08-21T05:26:56Z</time>
      </trkpt>
      <trkpt lat="45.18526" lon="3.44788">
        <ele>654.477</ele>
        <time>2020-08-21T05:27:27Z</time>
      </trkpt>
      <trkpt lat="45.18527" lon="3.44793">
        <ele>654.769</ele>
        <time>2020-08-21T05:27:30Z</time>
      </trkpt>
      <trkpt lat="45.18529" lon="3.44797">
        <ele>654.081</ele>
        <time>2020-08-21T05:27:33Z</time>
      </trkpt>
      <trkpt lat="45.18533" lon="3.44812">
        <ele>655.066</ele>
        <time>2020-08-21T05:27:43Z</time>
      </trkpt>
      <trkpt lat="45.18535" lon="3.44819">
        <ele>655.188</ele>
        <time>2020-08-21T05:27:47Z</time>
      </trkpt>
      <trkpt lat="45.18539" lon="3.44852">
        <ele>654.459</ele>
        <time>2020-08-21T05:28:07Z</time>
      </trkpt>
      <trkpt lat="45.1854" lon="3.44855">
        <ele>654.066</ele>
        <time>2020-08-21T05:28:09Z</time>
      </trkpt>
      <trkpt lat="45.18545" lon="3.44871">
        <ele>654.189</ele>
        <time>2020-08-21T05:28:19Z</time>
      </trkpt>
      <trkpt lat="45.18554" lon="3.44883">
        <ele>654.713</ele>
        <time>2020-08-21T05:28:28Z</time>
      </trkpt>
      <trkpt lat="45.18554" lon="3.44889">
        <ele>654.705</ele>
        <time>2020-08-21T05:28:31Z</time>
      </trkpt>
      <trkpt lat="45.18555" lon="3.44895">
        <ele>654.85</ele>
        <time>2020-08-21T05:28:35Z</time>
      </trkpt>
      <trkpt lat="45.18559" lon="3.449">
        <ele>655.125</ele>
        <time>2020-08-21T05:28:39Z</time>
      </trkpt>
      <trkpt lat="45.1856" lon="3.44905">
        <ele>654.745</ele>
        <time>2020-08-21T05:28:42Z</time>
      </trkpt>
      <trkpt lat="45.18562" lon="3.44918">
        <ele>654.978</ele>
        <time>2020-08-21T05:28:48Z</time>
      </trkpt>
      <trkpt lat="45.18565" lon="3.44919">
        <ele>654.968</ele>
        <time>2020-08-21T05:28:50Z</time>
      </trkpt>
      <trkpt lat="45.18572" lon="3.44922">
        <ele>654.622</ele>
        <time>2020-08-21T05:28:55Z</time>
      </trkpt>
      <trkpt lat="45.18578" lon="3.44922">
        <ele>654.209</ele>
        <time>2020-08-21T05:28:58Z</time>
      </trkpt>
      <trkpt lat="45.1859" lon="3.44922">
        <ele>654.747</ele>
        <time>2020-08-21T05:29:04Z</time>
      </trkpt>
      <trkpt lat="45.18593" lon="3.44923">
        <ele>655.442</ele>
        <time>2020-08-21T05:29:06Z</time>
      </trkpt>
      <trkpt lat="45.18593" lon="3.44922">
        <ele>655.027</ele>
        <time>2020-08-21T05:29:07Z</time>
      </trkpt>
      <trkpt lat="45.18599" lon="3.44923">
        <ele>654.666</ele>
        <time>2020-08-21T05:29:12Z</time>
      </trkpt>
      <trkpt lat="45.186" lon="3.44923">
        <ele>654.818</ele>
        <time>2020-08-21T05:29:13Z</time>
      </trkpt>
      <trkpt lat="45.18641" lon="3.44932">
        <ele>653.148</ele>
        <time>2020-08-21T05:29:45Z</time>
      </trkpt>
      <trkpt lat="45.18648" lon="3.44935">
        <ele>652.278</ele>
        <time>2020-08-21T05:29:49Z</time>
      </trkpt>
      <trkpt lat="45.1865" lon="3.44937">
        <ele>652.323</ele>
        <time>2020-08-21T05:29:51Z</time>
      </trkpt>
      <trkpt lat="45.18658" lon="3.44941">
        <ele>652.197</ele>
        <time>2020-08-21T05:29:59Z</time>
      </trkpt>
      <trkpt lat="45.18663" lon="3.44943">
        <ele>652.06</ele>
        <time>2020-08-21T05:30:03Z</time>
      </trkpt>
      <trkpt lat="45.18666" lon="3.44946">
        <ele>652.24</ele>
        <time>2020-08-21T05:30:06Z</time>
      </trkpt>
      <trkpt lat="45.18673" lon="3.4495">
        <ele>652.83</ele>
        <time>2020-08-21T05:30:11Z</time>
      </trkpt>
      <trkpt lat="45.18676" lon="3.44959">
        <ele>652.736</ele>
        <time>2020-08-21T05:30:20Z</time>
      </trkpt>
      <trkpt lat="45.18677" lon="3.4496">
        <ele>652.458</ele>
        <time>2020-08-21T05:30:21Z</time>
      </trkpt>
      <trkpt lat="45.18682" lon="3.44963">
        <ele>651.494</ele>
        <time>2020-08-21T05:30:25Z</time>
      </trkpt>
      <trkpt lat="45.18686" lon="3.44965">
        <ele>651.912</ele>
        <time>2020-08-21T05:30:28Z</time>
      </trkpt>
      <trkpt lat="45.18687" lon="3.44969">
        <ele>652.199</ele>
        <time>2020-08-21T05:30:33Z</time>
      </trkpt>
      <trkpt lat="45.18697" lon="3.44986">
        <ele>651.648</ele>
        <time>2020-08-21T05:30:45Z</time>
      </trkpt>
      <trkpt lat="45.18704" lon="3.45001">
        <ele>650.637</ele>
        <time>2020-08-21T05:30:54Z</time>
      </trkpt>
      <trkpt lat="45.18705" lon="3.45006">
        <ele>650.714</ele>
        <time>2020-08-21T05:30:58Z</time>
      </trkpt>
      <trkpt lat="45.18706" lon="3.45011">
        <ele>650.7</ele>
        <time>2020-08-21T05:31:01Z</time>
      </trkpt>
      <trkpt lat="45.18707" lon="3.45013">
        <ele>650.773</ele>
        <time>2020-08-21T05:31:03Z</time>
      </trkpt>
      <trkpt lat="45.1871" lon="3.45016">
        <ele>651.363</ele>
        <time>2020-08-21T05:31:07Z</time>
      </trkpt>
      <trkpt lat="45.18712" lon="3.45021">
        <ele>651.175</ele>
        <time>2020-08-21T05:31:10Z</time>
      </trkpt>
      <trkpt lat="45.18714" lon="3.45025">
        <ele>651.206</ele>
        <time>2020-08-21T05:31:14Z</time>
      </trkpt>
      <trkpt lat="45.18718" lon="3.45031">
        <ele>652.018</ele>
        <time>2020-08-21T05:31:20Z</time>
      </trkpt>
      <trkpt lat="45.1872" lon="3.45034">
        <ele>652.156</ele>
        <time>2020-08-21T05:31:24Z</time>
      </trkpt>
      <trkpt lat="45.18722" lon="3.45038">
        <ele>652.008</ele>
        <time>2020-08-21T05:31:27Z</time>
      </trkpt>
      <trkpt lat="45.18723" lon="3.45043">
        <ele>652.113</ele>
        <time>2020-08-21T05:31:30Z</time>
      </trkpt>
      <trkpt lat="45.18725" lon="3.45049">
        <ele>652.557</ele>
        <time>2020-08-21T05:31:35Z</time>
      </trkpt>
      <trkpt lat="45.18738" lon="3.4506">
        <ele>652.833</ele>
        <time>2020-08-21T05:31:49Z</time>
      </trkpt>
      <trkpt lat="45.18738" lon="3.4506">
        <ele>653.176</ele>
        <time>2020-08-21T05:31:51Z</time>
      </trkpt>
      <trkpt lat="45.18739" lon="3.4506">
        <ele>653.367</ele>
        <time>2020-08-21T05:31:52Z</time>
      </trkpt>
      <trkpt lat="45.18741" lon="3.45063">
        <ele>653.788</ele>
        <time>2020-08-21T05:31:55Z</time>
      </trkpt>
      <trkpt lat="45.18747" lon="3.45076">
        <ele>655.118</ele>
        <time>2020-08-21T05:32:00Z</time>
      </trkpt>
      <trkpt lat="45.1875" lon="3.45086">
        <ele>655.141</ele>
        <time>2020-08-21T05:32:04Z</time>
      </trkpt>
      <trkpt lat="45.18757" lon="3.45097">
        <ele>655.272</ele>
        <time>2020-08-21T05:32:12Z</time>
      </trkpt>
      <trkpt lat="45.1876" lon="3.45097">
        <ele>655.421</ele>
        <time>2020-08-21T05:32:17Z</time>
      </trkpt>
      <trkpt lat="45.18765" lon="3.45099">
        <ele>656.573</ele>
        <time>2020-08-21T05:32:23Z</time>
      </trkpt>
      <trkpt lat="45.18782" lon="3.45108">
        <ele>658.666</ele>
        <time>2020-08-21T05:32:36Z</time>
      </trkpt>
      <trkpt lat="45.18787" lon="3.4511">
        <ele>659.488</ele>
        <time>2020-08-21T05:32:40Z</time>
      </trkpt>
      <trkpt lat="45.1879" lon="3.45112">
        <ele>660.097</ele>
        <time>2020-08-21T05:32:44Z</time>
      </trkpt>
      <trkpt lat="45.1881" lon="3.45116">
        <ele>660.95</ele>
        <time>2020-08-21T05:32:56Z</time>
      </trkpt>
      <trkpt lat="45.18815" lon="3.45114">
        <ele>662.409</ele>
        <time>2020-08-21T05:33:00Z</time>
      </trkpt>
      <trkpt lat="45.18826" lon="3.45109">
        <ele>662.858</ele>
        <time>2020-08-21T05:33:10Z</time>
      </trkpt>
      <trkpt lat="45.18829" lon="3.45107">
        <ele>663.945</ele>
        <time>2020-08-21T05:33:15Z</time>
      </trkpt>
      <trkpt lat="45.1883" lon="3.45106">
        <ele>663.867</ele>
        <time>2020-08-21T05:33:16Z</time>
      </trkpt>
      <trkpt lat="45.18834" lon="3.45105">
        <ele>664.345</ele>
        <time>2020-08-21T05:33:18Z</time>
      </trkpt>
      <trkpt lat="45.18844" lon="3.451">
        <ele>666.817</ele>
        <time>2020-08-21T05:33:25Z</time>
      </trkpt>
      <trkpt lat="45.18854" lon="3.45078">
        <ele>668.671</ele>
        <time>2020-08-21T05:33:40Z</time>
      </trkpt>
      <trkpt lat="45.18856" lon="3.45074">
        <ele>669.058</ele>
        <time>2020-08-21T05:33:43Z</time>
      </trkpt>
      <trkpt lat="45.1886" lon="3.45065">
        <ele>668.72</ele>
        <time>2020-08-21T05:33:51Z</time>
      </trkpt>
      <trkpt lat="45.18861" lon="3.45036">
        <ele>667.476</ele>
        <time>2020-08-21T05:34:05Z</time>
      </trkpt>
      <trkpt lat="45.18858" lon="3.44992">
        <ele>668.206</ele>
        <time>2020-08-21T05:34:30Z</time>
      </trkpt>
      <trkpt lat="45.18854" lon="3.44985">
        <ele>667.908</ele>
        <time>2020-08-21T05:34:34Z</time>
      </trkpt>
      <trkpt lat="45.18845" lon="3.44975">
        <ele>668.111</ele>
        <time>2020-08-21T05:34:42Z</time>
      </trkpt>
      <trkpt lat="45.18829" lon="3.44959">
        <ele>667.897</ele>
        <time>2020-08-21T05:34:56Z</time>
      </trkpt>
      <trkpt lat="45.18817" lon="3.44934">
        <ele>668.555</ele>
        <time>2020-08-21T05:35:16Z</time>
      </trkpt>
      <trkpt lat="45.18807" lon="3.44898">
        <ele>668.769</ele>
        <time>2020-08-21T05:35:39Z</time>
      </trkpt>
      <trkpt lat="45.18806" lon="3.44893">
        <ele>668.099</ele>
        <time>2020-08-21T05:35:42Z</time>
      </trkpt>
      <trkpt lat="45.18803" lon="3.4489">
        <ele>667.899</ele>
        <time>2020-08-21T05:35:43Z</time>
      </trkpt>
      <trkpt lat="45.18795" lon="3.44873">
        <ele>667.933</ele>
        <time>2020-08-21T05:35:52Z</time>
      </trkpt>
      <trkpt lat="45.18796" lon="3.44863">
        <ele>667.646</ele>
        <time>2020-08-21T05:35:58Z</time>
      </trkpt>
      <trkpt lat="45.188" lon="3.44858">
        <ele>667.616</ele>
        <time>2020-08-21T05:36:03Z</time>
      </trkpt>
      <trkpt lat="45.18802" lon="3.4485">
        <ele>668.001</ele>
        <time>2020-08-21T05:36:11Z</time>
      </trkpt>
      <trkpt lat="45.18802" lon="3.44835">
        <ele>668.43</ele>
        <time>2020-08-21T05:36:19Z</time>
      </trkpt>
      <trkpt lat="45.18798" lon="3.44816">
        <ele>668.637</ele>
        <time>2020-08-21T05:36:28Z</time>
      </trkpt>
      <trkpt lat="45.188" lon="3.44807">
        <ele>670.616</ele>
        <time>2020-08-21T05:36:36Z</time>
      </trkpt>
      <trkpt lat="45.18806" lon="3.44798">
        <ele>672.242</ele>
        <time>2020-08-21T05:36:46Z</time>
      </trkpt>
      <trkpt lat="45.1881" lon="3.44797">
        <ele>672.438</ele>
        <time>2020-08-21T05:36:49Z</time>
      </trkpt>
      <trkpt lat="45.18814" lon="3.44794">
        <ele>672.754</ele>
        <time>2020-08-21T05:36:52Z</time>
      </trkpt>
      <trkpt lat="45.18814" lon="3.44789">
        <ele>672.696</ele>
        <time>2020-08-21T05:36:54Z</time>
      </trkpt>
      <trkpt lat="45.18815" lon="3.44776">
        <ele>672.986</ele>
        <time>2020-08-21T05:37:00Z</time>
      </trkpt>
      <trkpt lat="45.18818" lon="3.44767">
        <ele>673.059</ele>
        <time>2020-08-21T05:37:06Z</time>
      </trkpt>
      <trkpt lat="45.1882" lon="3.44759">
        <ele>673.883</ele>
        <time>2020-08-21T05:37:12Z</time>
      </trkpt>
      <trkpt lat="45.18821" lon="3.44755">
        <ele>673.863</ele>
        <time>2020-08-21T05:37:13Z</time>
      </trkpt>
      <trkpt lat="45.1882" lon="3.44749">
        <ele>673.704</ele>
        <time>2020-08-21T05:37:14Z</time>
      </trkpt>
      <trkpt lat="45.18818" lon="3.44735">
        <ele>673.733</ele>
        <time>2020-08-21T05:37:16Z</time>
      </trkpt>
      <trkpt lat="45.18817" lon="3.44731">
        <ele>674.237</ele>
        <time>2020-08-21T05:37:18Z</time>
      </trkpt>
      <trkpt lat="45.18819" lon="3.44728">
        <ele>674.67</ele>
        <time>2020-08-21T05:37:22Z</time>
      </trkpt>
      <trkpt lat="45.18827" lon="3.44715">
        <ele>674.239</ele>
        <time>2020-08-21T05:37:33Z</time>
      </trkpt>
      <trkpt lat="45.18828" lon="3.44711">
        <ele>674.273</ele>
        <time>2020-08-21T05:37:36Z</time>
      </trkpt>
      <trkpt lat="45.18852" lon="3.44652">
        <ele>672.428</ele>
        <time>2020-08-21T05:38:14Z</time>
      </trkpt>
      <trkpt lat="45.18863" lon="3.44622">
        <ele>671.996</ele>
        <time>2020-08-21T05:38:32Z</time>
      </trkpt>
      <trkpt lat="45.18864" lon="3.4461">
        <ele>671.606</ele>
        <time>2020-08-21T05:38:41Z</time>
      </trkpt>
      <trkpt lat="45.18858" lon="3.44585">
        <ele>671.841</ele>
        <time>2020-08-21T05:38:53Z</time>
      </trkpt>
      <trkpt lat="45.18842" lon="3.44543">
        <ele>671.497</ele>
        <time>2020-08-21T05:39:19Z</time>
      </trkpt>
      <trkpt lat="45.18842" lon="3.44542">
        <ele>672.108</ele>
        <time>2020-08-21T05:39:21Z</time>
      </trkpt>
      <trkpt lat="45.18841" lon="3.4454">
        <ele>672.409</ele>
        <time>2020-08-21T05:39:23Z</time>
      </trkpt>
      <trkpt lat="45.1884" lon="3.44528">
        <ele>673.364</ele>
        <time>2020-08-21T05:39:29Z</time>
      </trkpt>
      <trkpt lat="45.1884" lon="3.44522">
        <ele>673.833</ele>
        <time>2020-08-21T05:39:33Z</time>
      </trkpt>
      <trkpt lat="45.18844" lon="3.44514">
        <ele>674.635</ele>
        <time>2020-08-21T05:39:42Z</time>
      </trkpt>
      <trkpt lat="45.18845" lon="3.44513">
        <ele>675.208</ele>
        <time>2020-08-21T05:39:45Z</time>
      </trkpt>
      <trkpt lat="45.18845" lon="3.44513">
        <ele>675.208</ele>
        <time>2020-08-21T05:39:45Z</time>
      </trkpt>
      <trkpt lat="45.18845" lon="3.44512">
        <ele>675.738</ele>
        <time>2020-08-21T05:39:46Z</time>
      </trkpt>
      <trkpt lat="45.18846" lon="3.44511">
        <ele>676.834</ele>
        <time>2020-08-21T05:39:49Z</time>
      </trkpt>
      <trkpt lat="45.18851" lon="3.44511">
        <ele>677.184</ele>
        <time>2020-08-21T05:39:52Z</time>
      </trkpt>
      <trkpt lat="45.18857" lon="3.4451">
        <ele>677.93</ele>
        <time>2020-08-21T05:39:58Z</time>
      </trkpt>
      <trkpt lat="45.18864" lon="3.4451">
        <ele>680.098</ele>
        <time>2020-08-21T05:40:05Z</time>
      </trkpt>
      <trkpt lat="45.18868" lon="3.4451">
        <ele>680.923</ele>
        <time>2020-08-21T05:40:09Z</time>
      </trkpt>
      <trkpt lat="45.18937" lon="3.44495">
        <ele>679.592</ele>
        <time>2020-08-21T05:41:10Z</time>
      </trkpt>
      <trkpt lat="45.18956" lon="3.44495">
        <ele>677.493</ele>
        <time>2020-08-21T05:41:30Z</time>
      </trkpt>
      <trkpt lat="45.18999" lon="3.44494">
        <ele>677.679</ele>
        <time>2020-08-21T05:42:02Z</time>
      </trkpt>
      <trkpt lat="45.19018" lon="3.44484">
        <ele>677.756</ele>
        <time>2020-08-21T05:42:15Z</time>
      </trkpt>
      <trkpt lat="45.19029" lon="3.44469">
        <ele>676.976</ele>
        <time>2020-08-21T05:42:27Z</time>
      </trkpt>
      <trkpt lat="45.1904" lon="3.44449">
        <ele>674.939</ele>
        <time>2020-08-21T05:42:43Z</time>
      </trkpt>
      <trkpt lat="45.19053" lon="3.44433">
        <ele>672.758</ele>
        <time>2020-08-21T05:42:59Z</time>
      </trkpt>
      <trkpt lat="45.19056" lon="3.4443">
        <ele>672.795</ele>
        <time>2020-08-21T05:43:02Z</time>
      </trkpt>
      <trkpt lat="45.19063" lon="3.44426">
        <ele>672.307</ele>
        <time>2020-08-21T05:43:08Z</time>
      </trkpt>
      <trkpt lat="45.19095" lon="3.44415">
        <ele>670.178</ele>
        <time>2020-08-21T05:43:35Z</time>
      </trkpt>
      <trkpt lat="45.19102" lon="3.4441">
        <ele>669.312</ele>
        <time>2020-08-21T05:43:42Z</time>
      </trkpt>
      <trkpt lat="45.19109" lon="3.44398">
        <ele>668.391</ele>
        <time>2020-08-21T05:43:50Z</time>
      </trkpt>
      <trkpt lat="45.19124" lon="3.44353">
        <ele>666.225</ele>
        <time>2020-08-21T05:44:18Z</time>
      </trkpt>
      <trkpt lat="45.19136" lon="3.44305">
        <ele>666.311</ele>
        <time>2020-08-21T05:44:49Z</time>
      </trkpt>
      <trkpt lat="45.19137" lon="3.443">
        <ele>666.809</ele>
        <time>2020-08-21T05:44:52Z</time>
      </trkpt>
      <trkpt lat="45.19137" lon="3.44294">
        <ele>666.842</ele>
        <time>2020-08-21T05:44:54Z</time>
      </trkpt>
      <trkpt lat="45.19134" lon="3.44288">
        <ele>665.369</ele>
        <time>2020-08-21T05:45:01Z</time>
      </trkpt>
      <trkpt lat="45.19131" lon="3.44285">
        <ele>664.943</ele>
        <time>2020-08-21T05:45:03Z</time>
      </trkpt>
      <trkpt lat="45.19124" lon="3.4428">
        <ele>665.653</ele>
        <time>2020-08-21T05:45:10Z</time>
      </trkpt>
      <trkpt lat="45.19124" lon="3.44276">
        <ele>665.291</ele>
        <time>2020-08-21T05:45:13Z</time>
      </trkpt>
      <trkpt lat="45.19121" lon="3.44272">
        <ele>665.39</ele>
        <time>2020-08-21T05:45:15Z</time>
      </trkpt>
      <trkpt lat="45.19108" lon="3.44259">
        <ele>663.822</ele>
        <time>2020-08-21T05:45:26Z</time>
      </trkpt>
      <trkpt lat="45.19103" lon="3.44254">
        <ele>663.248</ele>
        <time>2020-08-21T05:45:30Z</time>
      </trkpt>
      <trkpt lat="45.19098" lon="3.44248">
        <ele>663.755</ele>
        <time>2020-08-21T05:45:35Z</time>
      </trkpt>
      <trkpt lat="45.19081" lon="3.44226">
        <ele>662.335</ele>
        <time>2020-08-21T05:45:52Z</time>
      </trkpt>
      <trkpt lat="45.19079" lon="3.44221">
        <ele>661.492</ele>
        <time>2020-08-21T05:45:56Z</time>
      </trkpt>
      <trkpt lat="45.19075" lon="3.44218">
        <ele>660.912</ele>
        <time>2020-08-21T05:45:59Z</time>
      </trkpt>
      <trkpt lat="45.1907" lon="3.44213">
        <ele>659.801</ele>
        <time>2020-08-21T05:46:02Z</time>
      </trkpt>
      <trkpt lat="45.1906" lon="3.44194">
        <ele>658.232</ele>
        <time>2020-08-21T05:46:17Z</time>
      </trkpt>
      <trkpt lat="45.19057" lon="3.44187">
        <ele>657.987</ele>
        <time>2020-08-21T05:46:23Z</time>
      </trkpt>
      <trkpt lat="45.19053" lon="3.44177">
        <ele>657.892</ele>
        <time>2020-08-21T05:46:30Z</time>
      </trkpt>
      <trkpt lat="45.19044" lon="3.4416">
        <ele>657.564</ele>
        <time>2020-08-21T05:46:43Z</time>
      </trkpt>
      <trkpt lat="45.19043" lon="3.44156">
        <ele>657.332</ele>
        <time>2020-08-21T05:46:46Z</time>
      </trkpt>
      <trkpt lat="45.1903" lon="3.44132">
        <ele>657.129</ele>
        <time>2020-08-21T05:47:01Z</time>
      </trkpt>
      <trkpt lat="45.19013" lon="3.44111">
        <ele>656.28</ele>
        <time>2020-08-21T05:47:17Z</time>
      </trkpt>
      <trkpt lat="45.19011" lon="3.44107">
        <ele>656.29</ele>
        <time>2020-08-21T05:47:22Z</time>
      </trkpt>
      <trkpt lat="45.19008" lon="3.44103">
        <ele>656.308</ele>
        <time>2020-08-21T05:47:25Z</time>
      </trkpt>
      <trkpt lat="45.19004" lon="3.44095">
        <ele>655.119</ele>
        <time>2020-08-21T05:47:29Z</time>
      </trkpt>
      <trkpt lat="45.19001" lon="3.44091">
        <ele>655.172</ele>
        <time>2020-08-21T05:47:33Z</time>
      </trkpt>
      <trkpt lat="45.18994" lon="3.44082">
        <ele>652.936</ele>
        <time>2020-08-21T05:47:42Z</time>
      </trkpt>
      <trkpt lat="45.18978" lon="3.44056">
        <ele>652.333</ele>
        <time>2020-08-21T05:48:00Z</time>
      </trkpt>
      <trkpt lat="45.18949" lon="3.44036">
        <ele>650.163</ele>
        <time>2020-08-21T05:48:23Z</time>
      </trkpt>
      <trkpt lat="45.18945" lon="3.4403">
        <ele>650.803</ele>
        <time>2020-08-21T05:48:28Z</time>
      </trkpt>
      <trkpt lat="45.18932" lon="3.44011">
        <ele>648.631</ele>
        <time>2020-08-21T05:48:44Z</time>
      </trkpt>
      <trkpt lat="45.18928" lon="3.44005">
        <ele>648.119</ele>
        <time>2020-08-21T05:48:51Z</time>
      </trkpt>
      <trkpt lat="45.18925" lon="3.44004">
        <ele>647.75</ele>
        <time>2020-08-21T05:48:57Z</time>
      </trkpt>
      <trkpt lat="45.18921" lon="3.43998">
        <ele>647.709</ele>
        <time>2020-08-21T05:49:02Z</time>
      </trkpt>
      <trkpt lat="45.1892" lon="3.43996">
        <ele>647.779</ele>
        <time>2020-08-21T05:49:04Z</time>
      </trkpt>
      <trkpt lat="45.18917" lon="3.43993">
        <ele>647.696</ele>
        <time>2020-08-21T05:49:07Z</time>
      </trkpt>
      <trkpt lat="45.18913" lon="3.43989">
        <ele>647.592</ele>
        <time>2020-08-21T05:49:11Z</time>
      </trkpt>
      <trkpt lat="45.1891" lon="3.43987">
        <ele>647.595</ele>
        <time>2020-08-21T05:49:15Z</time>
      </trkpt>
      <trkpt lat="45.189" lon="3.43988">
        <ele>647.656</ele>
        <time>2020-08-21T05:49:26Z</time>
      </trkpt>
      <trkpt lat="45.18898" lon="3.43991">
        <ele>647.756</ele>
        <time>2020-08-21T05:49:28Z</time>
      </trkpt>
      <trkpt lat="45.18898" lon="3.43992">
        <ele>647.85</ele>
        <time>2020-08-21T05:49:29Z</time>
      </trkpt>
      <trkpt lat="45.18897" lon="3.4399">
        <ele>647.314</ele>
        <time>2020-08-21T05:49:31Z</time>
      </trkpt>
      <trkpt lat="45.18889" lon="3.43982">
        <ele>646.599</ele>
        <time>2020-08-21T05:49:39Z</time>
      </trkpt>
      <trkpt lat="45.18887" lon="3.4398">
        <ele>646.006</ele>
        <time>2020-08-21T05:49:41Z</time>
      </trkpt>
      <trkpt lat="45.18884" lon="3.43977">
        <ele>645.775</ele>
        <time>2020-08-21T05:49:44Z</time>
      </trkpt>
      <trkpt lat="45.18868" lon="3.43964">
        <ele>643.689</ele>
        <time>2020-08-21T05:49:57Z</time>
      </trkpt>
      <trkpt lat="45.18855" lon="3.43949">
        <ele>642.038</ele>
        <time>2020-08-21T05:50:10Z</time>
      </trkpt>
      <trkpt lat="45.18853" lon="3.43946">
        <ele>641.973</ele>
        <time>2020-08-21T05:50:13Z</time>
      </trkpt>
      <trkpt lat="45.18842" lon="3.43937">
        <ele>639.78</ele>
        <time>2020-08-21T05:50:26Z</time>
      </trkpt>
      <trkpt lat="45.18826" lon="3.43925">
        <ele>638.298</ele>
        <time>2020-08-21T05:50:43Z</time>
      </trkpt>
      <trkpt lat="45.18823" lon="3.43917">
        <ele>637.575</ele>
        <time>2020-08-21T05:50:48Z</time>
      </trkpt>
      <trkpt lat="45.18817" lon="3.43913">
        <ele>636.882</ele>
        <time>2020-08-21T05:50:51Z</time>
      </trkpt>
      <trkpt lat="45.18814" lon="3.43912">
        <ele>636.768</ele>
        <time>2020-08-21T05:50:54Z</time>
      </trkpt>
      <trkpt lat="45.18812" lon="3.4391">
        <ele>635.169</ele>
        <time>2020-08-21T05:51:01Z</time>
      </trkpt>
      <trkpt lat="45.18812" lon="3.43909">
        <ele>635.244</ele>
        <time>2020-08-21T05:51:02Z</time>
      </trkpt>
      <trkpt lat="45.1881" lon="3.43904">
        <ele>634.58</ele>
        <time>2020-08-21T05:51:05Z</time>
      </trkpt>
      <trkpt lat="45.18808" lon="3.439">
        <ele>634.513</ele>
        <time>2020-08-21T05:51:07Z</time>
      </trkpt>
      <trkpt lat="45.18798" lon="3.43893">
        <ele>632.04</ele>
        <time>2020-08-21T05:51:17Z</time>
      </trkpt>
      <trkpt lat="45.18791" lon="3.43885">
        <ele>629.6</ele>
        <time>2020-08-21T05:51:25Z</time>
      </trkpt>
      <trkpt lat="45.18785" lon="3.43875">
        <ele>627.337</ele>
        <time>2020-08-21T05:51:31Z</time>
      </trkpt>
      <trkpt lat="45.18777" lon="3.43858">
        <ele>625.295</ele>
        <time>2020-08-21T05:51:40Z</time>
      </trkpt>
      <trkpt lat="45.1877" lon="3.43846">
        <ele>623.52</ele>
        <time>2020-08-21T05:51:47Z</time>
      </trkpt>
      <trkpt lat="45.18766" lon="3.43841">
        <ele>621.657</ele>
        <time>2020-08-21T05:51:53Z</time>
      </trkpt>
      <trkpt lat="45.18759" lon="3.43837">
        <ele>619.894</ele>
        <time>2020-08-21T05:52:04Z</time>
      </trkpt>
      <trkpt lat="45.18758" lon="3.43836">
        <ele>619.49</ele>
        <time>2020-08-21T05:52:06Z</time>
      </trkpt>
      <trkpt lat="45.18758" lon="3.43835">
        <ele>619.173</ele>
        <time>2020-08-21T05:52:07Z</time>
      </trkpt>
      <trkpt lat="45.18755" lon="3.43833">
        <ele>618.664</ele>
        <time>2020-08-21T05:52:10Z</time>
      </trkpt>
      <trkpt lat="45.18745" lon="3.43824">
        <ele>616.231</ele>
        <time>2020-08-21T05:52:22Z</time>
      </trkpt>
      <trkpt lat="45.18738" lon="3.43818">
        <ele>614.003</ele>
        <time>2020-08-21T05:52:30Z</time>
      </trkpt>
      <trkpt lat="45.18728" lon="3.43802">
        <ele>611.92</ele>
        <time>2020-08-21T05:52:42Z</time>
      </trkpt>
      <trkpt lat="45.18725" lon="3.43798">
        <ele>611.646</ele>
        <time>2020-08-21T05:52:45Z</time>
      </trkpt>
      <trkpt lat="45.18721" lon="3.43789">
        <ele>610.583</ele>
        <time>2020-08-21T05:52:52Z</time>
      </trkpt>
      <trkpt lat="45.18707" lon="3.43767">
        <ele>609.212</ele>
        <time>2020-08-21T05:53:08Z</time>
      </trkpt>
      <trkpt lat="45.18701" lon="3.43759">
        <ele>608.241</ele>
        <time>2020-08-21T05:53:17Z</time>
      </trkpt>
      <trkpt lat="45.18695" lon="3.43744">
        <ele>605.799</ele>
        <time>2020-08-21T05:53:29Z</time>
      </trkpt>
      <trkpt lat="45.18691" lon="3.43736">
        <ele>603.682</ele>
        <time>2020-08-21T05:53:37Z</time>
      </trkpt>
      <trkpt lat="45.18686" lon="3.43725">
        <ele>601.559</ele>
        <time>2020-08-21T05:53:46Z</time>
      </trkpt>
      <trkpt lat="45.18679" lon="3.4371">
        <ele>599.369</ele>
        <time>2020-08-21T05:53:56Z</time>
      </trkpt>
      <trkpt lat="45.18672" lon="3.43689">
        <ele>597.222</ele>
        <time>2020-08-21T05:54:11Z</time>
      </trkpt>
      <trkpt lat="45.18668" lon="3.43678">
        <ele>594.984</ele>
        <time>2020-08-21T05:54:21Z</time>
      </trkpt>
      <trkpt lat="45.18668" lon="3.43677">
        <ele>594.916</ele>
        <time>2020-08-21T05:54:22Z</time>
      </trkpt>
      <trkpt lat="45.18668" lon="3.43677">
        <ele>594.975</ele>
        <time>2020-08-21T05:54:23Z</time>
      </trkpt>
      <trkpt lat="45.18668" lon="3.43677">
        <ele>594.975</ele>
        <time>2020-08-21T05:54:23Z</time>
      </trkpt>
      <trkpt lat="45.18668" lon="3.43677">
        <ele>594.894</ele>
        <time>2020-08-21T05:54:24Z</time>
      </trkpt>
      <trkpt lat="45.18668" lon="3.43677">
        <ele>594.866</ele>
        <time>2020-08-21T05:54:26Z</time>
      </trkpt>
      <trkpt lat="45.18667" lon="3.43675">
        <ele>594.557</ele>
        <time>2020-08-21T05:54:27Z</time>
      </trkpt>
      <trkpt lat="45.18667" lon="3.43674">
        <ele>594.395</ele>
        <time>2020-08-21T05:54:28Z</time>
      </trkpt>
      <trkpt lat="45.18661" lon="3.43665">
        <ele>592.366</ele>
        <time>2020-08-21T05:54:39Z</time>
      </trkpt>
      <trkpt lat="45.18654" lon="3.43653">
        <ele>590.682</ele>
        <time>2020-08-21T05:54:51Z</time>
      </trkpt>
      <trkpt lat="45.18652" lon="3.43649">
        <ele>590.522</ele>
        <time>2020-08-21T05:54:54Z</time>
      </trkpt>
      <trkpt lat="45.18644" lon="3.4363">
        <ele>588.477</ele>
        <time>2020-08-21T05:55:06Z</time>
      </trkpt>
      <trkpt lat="45.18636" lon="3.43613">
        <ele>586.288</ele>
        <time>2020-08-21T05:55:17Z</time>
      </trkpt>
      <trkpt lat="45.18628" lon="3.43595">
        <ele>584.221</ele>
        <time>2020-08-21T05:55:30Z</time>
      </trkpt>
      <trkpt lat="45.18622" lon="3.43587">
        <ele>581.64</ele>
        <time>2020-08-21T05:55:38Z</time>
      </trkpt>
      <trkpt lat="45.18617" lon="3.43583">
        <ele>579.547</ele>
        <time>2020-08-21T05:55:44Z</time>
      </trkpt>
      <trkpt lat="45.18615" lon="3.43582">
        <ele>578.304</ele>
        <time>2020-08-21T05:55:47Z</time>
      </trkpt>
      <trkpt lat="45.18614" lon="3.43582">
        <ele>578.354</ele>
        <time>2020-08-21T05:55:48Z</time>
      </trkpt>
      <trkpt lat="45.18614" lon="3.43582">
        <ele>577.99</ele>
        <time>2020-08-21T05:55:49Z</time>
      </trkpt>
      <trkpt lat="45.18614" lon="3.43582">
        <ele>578.079</ele>
        <time>2020-08-21T05:55:50Z</time>
      </trkpt>
      <trkpt lat="45.18614" lon="3.43582">
        <ele>578.079</ele>
        <time>2020-08-21T05:55:50Z</time>
      </trkpt>
      <trkpt lat="45.18614" lon="3.43583">
        <ele>577.842</ele>
        <time>2020-08-21T05:55:51Z</time>
      </trkpt>
      <trkpt lat="45.18615" lon="3.43583">
        <ele>577.472</ele>
        <time>2020-08-21T05:55:52Z</time>
      </trkpt>
      <trkpt lat="45.18616" lon="3.43584">
        <ele>576.913</ele>
        <time>2020-08-21T05:55:54Z</time>
      </trkpt>
      <trkpt lat="45.18616" lon="3.43584">
        <ele>576.913</ele>
        <time>2020-08-21T05:55:54Z</time>
      </trkpt>
      <trkpt lat="45.18617" lon="3.43585">
        <ele>576.976</ele>
        <time>2020-08-21T05:55:55Z</time>
      </trkpt>
      <trkpt lat="45.18616" lon="3.43584">
        <ele>576.62</ele>
        <time>2020-08-21T05:55:57Z</time>
      </trkpt>
      <trkpt lat="45.18612" lon="3.43568">
        <ele>574.591</ele>
        <time>2020-08-21T05:56:07Z</time>
      </trkpt>
      <trkpt lat="45.1861" lon="3.4355">
        <ele>572.526</ele>
        <time>2020-08-21T05:56:20Z</time>
      </trkpt>
      <trkpt lat="45.18608" lon="3.43546">
        <ele>571.52</ele>
        <time>2020-08-21T05:56:24Z</time>
      </trkpt>
      <trkpt lat="45.18604" lon="3.43545">
        <ele>570.158</ele>
        <time>2020-08-21T05:56:28Z</time>
      </trkpt>
      <trkpt lat="45.18603" lon="3.43547">
        <ele>569.065</ele>
        <time>2020-08-21T05:56:31Z</time>
      </trkpt>
      <trkpt lat="45.18603" lon="3.43548">
        <ele>568.563</ele>
        <time>2020-08-21T05:56:32Z</time>
      </trkpt>
      <trkpt lat="45.18599" lon="3.43556">
        <ele>567.96</ele>
        <time>2020-08-21T05:56:37Z</time>
      </trkpt>
      <trkpt lat="45.18596" lon="3.43563">
        <ele>567.621</ele>
        <time>2020-08-21T05:56:42Z</time>
      </trkpt>
      <trkpt lat="45.18593" lon="3.43569">
        <ele>567.291</ele>
        <time>2020-08-21T05:56:48Z</time>
      </trkpt>
      <trkpt lat="45.18592" lon="3.43571">
        <ele>567.1</ele>
        <time>2020-08-21T05:56:50Z</time>
      </trkpt>
      <trkpt lat="45.18591" lon="3.43569">
        <ele>566.289</ele>
        <time>2020-08-21T05:56:57Z</time>
      </trkpt>
      <trkpt lat="45.1859" lon="3.4356">
        <ele>565.719</ele>
        <time>2020-08-21T05:57:03Z</time>
      </trkpt>
      <trkpt lat="45.1859" lon="3.4356">
        <ele>565.719</ele>
        <time>2020-08-21T05:57:03Z</time>
      </trkpt>
      <trkpt lat="45.1859" lon="3.43559">
        <ele>565.243</ele>
        <time>2020-08-21T05:57:04Z</time>
      </trkpt>
      <trkpt lat="45.18588" lon="3.43554">
        <ele>564.982</ele>
        <time>2020-08-21T05:57:07Z</time>
      </trkpt>
      <trkpt lat="45.18588" lon="3.4355">
        <ele>564.81</ele>
        <time>2020-08-21T05:57:09Z</time>
      </trkpt>
      <trkpt lat="45.18587" lon="3.43545">
        <ele>565.157</ele>
        <time>2020-08-21T05:57:11Z</time>
      </trkpt>
      <trkpt lat="45.18581" lon="3.43505">
        <ele>563.049</ele>
        <time>2020-08-21T05:57:29Z</time>
      </trkpt>
      <trkpt lat="45.18581" lon="3.43501">
        <ele>562.511</ele>
        <time>2020-08-21T05:57:32Z</time>
      </trkpt>
      <trkpt lat="45.18581" lon="3.435">
        <ele>562.462</ele>
        <time>2020-08-21T05:57:33Z</time>
      </trkpt>
      <trkpt lat="45.18582" lon="3.4349">
        <ele>561.645</ele>
        <time>2020-08-21T05:57:40Z</time>
      </trkpt>
      <trkpt lat="45.18581" lon="3.43485">
        <ele>560.623</ele>
        <time>2020-08-21T05:57:45Z</time>
      </trkpt>
      <trkpt lat="45.18581" lon="3.43483">
        <ele>560.254</ele>
        <time>2020-08-21T05:57:47Z</time>
      </trkpt>
      <trkpt lat="45.18581" lon="3.43483">
        <ele>560.062</ele>
        <time>2020-08-21T05:57:48Z</time>
      </trkpt>
      <trkpt lat="45.18585" lon="3.43473">
        <ele>559.395</ele>
        <time>2020-08-21T05:57:57Z</time>
      </trkpt>
      <trkpt lat="45.18588" lon="3.43469">
        <ele>559.237</ele>
        <time>2020-08-21T05:58:01Z</time>
      </trkpt>
      <trkpt lat="45.1859" lon="3.43462">
        <ele>558.924</ele>
        <time>2020-08-21T05:58:07Z</time>
      </trkpt>
      <trkpt lat="45.1859" lon="3.43462">
        <ele>559.3</ele>
        <time>2020-08-21T05:58:08Z</time>
      </trkpt>
      <trkpt lat="45.1859" lon="3.43461">
        <ele>559.474</ele>
        <time>2020-08-21T05:58:10Z</time>
      </trkpt>
      <trkpt lat="45.1859" lon="3.43461">
        <ele>559.474</ele>
        <time>2020-08-21T05:58:10Z</time>
      </trkpt>
      <trkpt lat="45.1859" lon="3.43461">
        <ele>558.983</ele>
        <time>2020-08-21T05:58:11Z</time>
      </trkpt>
      <trkpt lat="45.18591" lon="3.4346">
        <ele>559.064</ele>
        <time>2020-08-21T05:58:12Z</time>
      </trkpt>
      <trkpt lat="45.18591" lon="3.43454">
        <ele>558.942</ele>
        <time>2020-08-21T05:58:15Z</time>
      </trkpt>
      <trkpt lat="45.1859" lon="3.43447">
        <ele>558.807</ele>
        <time>2020-08-21T05:58:19Z</time>
      </trkpt>
      <trkpt lat="45.18586" lon="3.43434">
        <ele>557.216</ele>
        <time>2020-08-21T05:58:28Z</time>
      </trkpt>
      <trkpt lat="45.18583" lon="3.4343">
        <ele>557.241</ele>
        <time>2020-08-21T05:58:31Z</time>
      </trkpt>
      <trkpt lat="45.18568" lon="3.43398">
        <ele>558.328</ele>
        <time>2020-08-21T05:58:56Z</time>
      </trkpt>
      <trkpt lat="45.18567" lon="3.4339">
        <ele>558.236</ele>
        <time>2020-08-21T05:59:02Z</time>
      </trkpt>
      <trkpt lat="45.18565" lon="3.43371">
        <ele>559.509</ele>
        <time>2020-08-21T05:59:15Z</time>
      </trkpt>
      <trkpt lat="45.18565" lon="3.43371">
        <ele>559.509</ele>
        <time>2020-08-21T05:59:15Z</time>
      </trkpt>
      <trkpt lat="45.18565" lon="3.43371">
        <ele>559.629</ele>
        <time>2020-08-21T05:59:16Z</time>
      </trkpt>
      <trkpt lat="45.18565" lon="3.4337">
        <ele>559.422</ele>
        <time>2020-08-21T05:59:17Z</time>
      </trkpt>
      <trkpt lat="45.18566" lon="3.43337">
        <ele>560.994</ele>
        <time>2020-08-21T05:59:38Z</time>
      </trkpt>
      <trkpt lat="45.18568" lon="3.4331">
        <ele>562.749</ele>
        <time>2020-08-21T05:59:57Z</time>
      </trkpt>
      <trkpt lat="45.18569" lon="3.43306">
        <ele>563.151</ele>
        <time>2020-08-21T06:00:00Z</time>
      </trkpt>
      <trkpt lat="45.18571" lon="3.43302">
        <ele>563.543</ele>
        <time>2020-08-21T06:00:04Z</time>
      </trkpt>
      <trkpt lat="45.18574" lon="3.433">
        <ele>563.772</ele>
        <time>2020-08-21T06:00:08Z</time>
      </trkpt>
      <trkpt lat="45.18577" lon="3.433">
        <ele>564.266</ele>
        <time>2020-08-21T06:00:11Z</time>
      </trkpt>
      <trkpt lat="45.18581" lon="3.43301">
        <ele>564.466</ele>
        <time>2020-08-21T06:00:14Z</time>
      </trkpt>
      <trkpt lat="45.18587" lon="3.43305">
        <ele>565.393</ele>
        <time>2020-08-21T06:00:20Z</time>
      </trkpt>
      <trkpt lat="45.18589" lon="3.4331">
        <ele>565.306</ele>
        <time>2020-08-21T06:00:23Z</time>
      </trkpt>
      <trkpt lat="45.18603" lon="3.43349">
        <ele>567.515</ele>
        <time>2020-08-21T06:00:47Z</time>
      </trkpt>
      <trkpt lat="45.1861" lon="3.43365">
        <ele>568.929</ele>
        <time>2020-08-21T06:01:03Z</time>
      </trkpt>
      <trkpt lat="45.18613" lon="3.43368">
        <ele>569.723</ele>
        <time>2020-08-21T06:01:07Z</time>
      </trkpt>
      <trkpt lat="45.18614" lon="3.43369">
        <ele>570.11</ele>
        <time>2020-08-21T06:01:11Z</time>
      </trkpt>
      <trkpt lat="45.18614" lon="3.43368">
        <ele>570.533</ele>
        <time>2020-08-21T06:01:11Z</time>
      </trkpt>
      <trkpt lat="45.18614" lon="3.43367">
        <ele>570.935</ele>
        <time>2020-08-21T06:01:13Z</time>
      </trkpt>
      <trkpt lat="45.18615" lon="3.43366">
        <ele>570.695</ele>
        <time>2020-08-21T06:01:18Z</time>
      </trkpt>
      <trkpt lat="45.18615" lon="3.43366">
        <ele>570.668</ele>
        <time>2020-08-21T06:01:21Z</time>
      </trkpt>
      <trkpt lat="45.18615" lon="3.43366">
        <ele>571.147</ele>
        <time>2020-08-21T06:01:22Z</time>
      </trkpt>
      <trkpt lat="45.18615" lon="3.43366">
        <ele>571.072</ele>
        <time>2020-08-21T06:01:23Z</time>
      </trkpt>
      <trkpt lat="45.18615" lon="3.43366">
        <ele>571.048</ele>
        <time>2020-08-21T06:01:41Z</time>
      </trkpt>
      <trkpt lat="45.18616" lon="3.43367">
        <ele>571.05</ele>
        <time>2020-08-21T06:01:42Z</time>
      </trkpt>
      <trkpt lat="45.18616" lon="3.43367">
        <ele>571.241</ele>
        <time>2020-08-21T06:01:44Z</time>
      </trkpt>
      <trkpt lat="45.18616" lon="3.43367">
        <ele>570.997</ele>
        <time>2020-08-21T06:01:50Z</time>
      </trkpt>
      <trkpt lat="45.18617" lon="3.43366">
        <ele>571.119</ele>
        <time>2020-08-21T06:01:51Z</time>
      </trkpt>
      <trkpt lat="45.18617" lon="3.43364">
        <ele>572.194</ele>
        <time>2020-08-21T06:01:54Z</time>
      </trkpt>
      <trkpt lat="45.18617" lon="3.43364">
        <ele>572.351</ele>
        <time>2020-08-21T06:01:55Z</time>
      </trkpt>
      <trkpt lat="45.18617" lon="3.43364">
        <ele>572.351</ele>
        <time>2020-08-21T06:01:55Z</time>
      </trkpt>
      <trkpt lat="45.18617" lon="3.43364">
        <ele>572.355</ele>
        <time>2020-08-21T06:01:56Z</time>
      </trkpt>
      <trkpt lat="45.18617" lon="3.43364">
        <ele>572.322</ele>
        <time>2020-08-21T06:02:03Z</time>
      </trkpt>
      <trkpt lat="45.18617" lon="3.43364">
        <ele>572.154</ele>
        <time>2020-08-21T06:02:04Z</time>
      </trkpt>
      <trkpt lat="45.18618" lon="3.43365">
        <ele>571.907</ele>
        <time>2020-08-21T06:02:05Z</time>
      </trkpt>
      <trkpt lat="45.18618" lon="3.43366">
        <ele>571.728</ele>
        <time>2020-08-21T06:02:06Z</time>
      </trkpt>
      <trkpt lat="45.18617" lon="3.43374">
        <ele>573.972</ele>
        <time>2020-08-21T06:02:11Z</time>
      </trkpt>
      <trkpt lat="45.18618" lon="3.43379">
        <ele>573.911</ele>
        <time>2020-08-21T06:02:15Z</time>
      </trkpt>
      <trkpt lat="45.18621" lon="3.43389">
        <ele>575.477</ele>
        <time>2020-08-21T06:02:22Z</time>
      </trkpt>
      <trkpt lat="45.18624" lon="3.43396">
        <ele>574.886</ele>
        <time>2020-08-21T06:02:26Z</time>
      </trkpt>
      <trkpt lat="45.18632" lon="3.43408">
        <ele>574.074</ele>
        <time>2020-08-21T06:02:36Z</time>
      </trkpt>
      <trkpt lat="45.18639" lon="3.43414">
        <ele>575.196</ele>
        <time>2020-08-21T06:02:44Z</time>
      </trkpt>
      <trkpt lat="45.18649" lon="3.43426">
        <ele>576.496</ele>
        <time>2020-08-21T06:02:55Z</time>
      </trkpt>
      <trkpt lat="45.1865" lon="3.43431">
        <ele>576.875</ele>
        <time>2020-08-21T06:03:00Z</time>
      </trkpt>
      <trkpt lat="45.18651" lon="3.43432">
        <ele>576.571</ele>
        <time>2020-08-21T06:03:01Z</time>
      </trkpt>
      <trkpt lat="45.1867" lon="3.43456">
        <ele>576.341</ele>
        <time>2020-08-21T06:03:19Z</time>
      </trkpt>
      <trkpt lat="45.18692" lon="3.435">
        <ele>576.337</ele>
        <time>2020-08-21T06:03:48Z</time>
      </trkpt>
      <trkpt lat="45.18706" lon="3.43531">
        <ele>575.938</ele>
        <time>2020-08-21T06:04:11Z</time>
      </trkpt>
      <trkpt lat="45.18727" lon="3.43571">
        <ele>575.66</ele>
        <time>2020-08-21T06:04:38Z</time>
      </trkpt>
      <trkpt lat="45.18732" lon="3.43581">
        <ele>575.516</ele>
        <time>2020-08-21T06:04:47Z</time>
      </trkpt>
      <trkpt lat="45.18738" lon="3.43594">
        <ele>574.556</ele>
        <time>2020-08-21T06:04:56Z</time>
      </trkpt>
      <trkpt lat="45.1874" lon="3.43598">
        <ele>574.609</ele>
        <time>2020-08-21T06:04:59Z</time>
      </trkpt>
      <trkpt lat="45.18743" lon="3.43605">
        <ele>574.225</ele>
        <time>2020-08-21T06:05:05Z</time>
      </trkpt>
      <trkpt lat="45.18746" lon="3.43605">
        <ele>574.603</ele>
        <time>2020-08-21T06:05:09Z</time>
      </trkpt>
      <trkpt lat="45.18748" lon="3.43599">
        <ele>574.668</ele>
        <time>2020-08-21T06:05:16Z</time>
      </trkpt>
      <trkpt lat="45.18748" lon="3.43598">
        <ele>574.718</ele>
        <time>2020-08-21T06:05:17Z</time>
      </trkpt>
      <trkpt lat="45.18749" lon="3.43596">
        <ele>574.76</ele>
        <time>2020-08-21T06:05:20Z</time>
      </trkpt>
      <trkpt lat="45.18751" lon="3.43596">
        <ele>575.492</ele>
        <time>2020-08-21T06:05:24Z</time>
      </trkpt>
      <trkpt lat="45.18752" lon="3.43597">
        <ele>575.492</ele>
        <time>2020-08-21T06:05:26Z</time>
      </trkpt>
      <trkpt lat="45.1876" lon="3.43598">
        <ele>576.579</ele>
        <time>2020-08-21T06:05:33Z</time>
      </trkpt>
      <trkpt lat="45.18766" lon="3.43597">
        <ele>577.336</ele>
        <time>2020-08-21T06:05:41Z</time>
      </trkpt>
      <trkpt lat="45.18772" lon="3.43597">
        <ele>577.859</ele>
        <time>2020-08-21T06:05:51Z</time>
      </trkpt>
      <trkpt lat="45.18773" lon="3.43597">
        <ele>578.4</ele>
        <time>2020-08-21T06:05:52Z</time>
      </trkpt>
      <trkpt lat="45.18784" lon="3.43597">
        <ele>580.551</ele>
        <time>2020-08-21T06:06:06Z</time>
      </trkpt>
      <trkpt lat="45.18794" lon="3.43594">
        <ele>582.433</ele>
        <time>2020-08-21T06:06:16Z</time>
      </trkpt>
      <trkpt lat="45.18795" lon="3.43595">
        <ele>582.444</ele>
        <time>2020-08-21T06:06:17Z</time>
      </trkpt>
      <trkpt lat="45.188" lon="3.43596">
        <ele>583.416</ele>
        <time>2020-08-21T06:06:21Z</time>
      </trkpt>
      <trkpt lat="45.18813" lon="3.43595">
        <ele>583.99</ele>
        <time>2020-08-21T06:06:34Z</time>
      </trkpt>
      <trkpt lat="45.18816" lon="3.43594">
        <ele>584.338</ele>
        <time>2020-08-21T06:06:37Z</time>
      </trkpt>
      <trkpt lat="45.18816" lon="3.43594">
        <ele>584.683</ele>
        <time>2020-08-21T06:06:38Z</time>
      </trkpt>
      <trkpt lat="45.18819" lon="3.43595">
        <ele>585.386</ele>
        <time>2020-08-21T06:06:42Z</time>
      </trkpt>
      <trkpt lat="45.1882" lon="3.43595">
        <ele>585.355</ele>
        <time>2020-08-21T06:06:44Z</time>
      </trkpt>
      <trkpt lat="45.18825" lon="3.43594">
        <ele>585.139</ele>
        <time>2020-08-21T06:06:51Z</time>
      </trkpt>
      <trkpt lat="45.18825" lon="3.43594">
        <ele>584.83</ele>
        <time>2020-08-21T06:06:52Z</time>
      </trkpt>
      <trkpt lat="45.1883" lon="3.43593">
        <ele>585.153</ele>
        <time>2020-08-21T06:06:57Z</time>
      </trkpt>
      <trkpt lat="45.18834" lon="3.43594">
        <ele>585.181</ele>
        <time>2020-08-21T06:07:02Z</time>
      </trkpt>
      <trkpt lat="45.1884" lon="3.43593">
        <ele>587.273</ele>
        <time>2020-08-21T06:07:10Z</time>
      </trkpt>
      <trkpt lat="45.1885" lon="3.43592">
        <ele>588.834</ele>
        <time>2020-08-21T06:07:21Z</time>
      </trkpt>
      <trkpt lat="45.18854" lon="3.43593">
        <ele>589.098</ele>
        <time>2020-08-21T06:07:24Z</time>
      </trkpt>
      <trkpt lat="45.18859" lon="3.43591">
        <ele>589.918</ele>
        <time>2020-08-21T06:07:30Z</time>
      </trkpt>
      <trkpt lat="45.18861" lon="3.43591">
        <ele>590.146</ele>
        <time>2020-08-21T06:07:33Z</time>
      </trkpt>
      <trkpt lat="45.18874" lon="3.43589">
        <ele>592.549</ele>
        <time>2020-08-21T06:07:46Z</time>
      </trkpt>
      <trkpt lat="45.18876" lon="3.4359">
        <ele>593.251</ele>
        <time>2020-08-21T06:07:49Z</time>
      </trkpt>
      <trkpt lat="45.1888" lon="3.4359">
        <ele>594.011</ele>
        <time>2020-08-21T06:07:53Z</time>
      </trkpt>
      <trkpt lat="45.18885" lon="3.43589">
        <ele>595.235</ele>
        <time>2020-08-21T06:07:59Z</time>
      </trkpt>
      <trkpt lat="45.18886" lon="3.43588">
        <ele>595.764</ele>
        <time>2020-08-21T06:08:01Z</time>
      </trkpt>
      <trkpt lat="45.18892" lon="3.43587">
        <ele>597.253</ele>
        <time>2020-08-21T06:08:06Z</time>
      </trkpt>
      <trkpt lat="45.18893" lon="3.43586">
        <ele>597.463</ele>
        <time>2020-08-21T06:08:07Z</time>
      </trkpt>
      <trkpt lat="45.18897" lon="3.43585">
        <ele>598.566</ele>
        <time>2020-08-21T06:08:11Z</time>
      </trkpt>
      <trkpt lat="45.18897" lon="3.43585">
        <ele>598.74</ele>
        <time>2020-08-21T06:08:12Z</time>
      </trkpt>
      <trkpt lat="45.18898" lon="3.43584">
        <ele>599.058</ele>
        <time>2020-08-21T06:08:13Z</time>
      </trkpt>
      <trkpt lat="45.189" lon="3.43583">
        <ele>600.208</ele>
        <time>2020-08-21T06:08:16Z</time>
      </trkpt>
      <trkpt lat="45.18903" lon="3.43582">
        <ele>601.093</ele>
        <time>2020-08-21T06:08:19Z</time>
      </trkpt>
      <trkpt lat="45.1891" lon="3.43581">
        <ele>601.863</ele>
        <time>2020-08-21T06:08:27Z</time>
      </trkpt>
      <trkpt lat="45.18912" lon="3.43581">
        <ele>602.37</ele>
        <time>2020-08-21T06:08:30Z</time>
      </trkpt>
      <trkpt lat="45.18912" lon="3.43581">
        <ele>602.205</ele>
        <time>2020-08-21T06:08:31Z</time>
      </trkpt>
      <trkpt lat="45.18913" lon="3.43581">
        <ele>602.391</ele>
        <time>2020-08-21T06:08:32Z</time>
      </trkpt>
      <trkpt lat="45.18914" lon="3.43581">
        <ele>603.358</ele>
        <time>2020-08-21T06:08:34Z</time>
      </trkpt>
      <trkpt lat="45.18917" lon="3.4358">
        <ele>603.577</ele>
        <time>2020-08-21T06:08:37Z</time>
      </trkpt>
      <trkpt lat="45.18926" lon="3.43579">
        <ele>605.758</ele>
        <time>2020-08-21T06:08:48Z</time>
      </trkpt>
      <trkpt lat="45.18927" lon="3.43579">
        <ele>606.002</ele>
        <time>2020-08-21T06:08:50Z</time>
      </trkpt>
      <trkpt lat="45.18927" lon="3.43579">
        <ele>606.081</ele>
        <time>2020-08-21T06:08:51Z</time>
      </trkpt>
      <trkpt lat="45.18928" lon="3.43579">
        <ele>606.097</ele>
        <time>2020-08-21T06:08:51Z</time>
      </trkpt>
      <trkpt lat="45.18936" lon="3.43578">
        <ele>607.82</ele>
        <time>2020-08-21T06:09:00Z</time>
      </trkpt>
      <trkpt lat="45.18938" lon="3.43577">
        <ele>608.332</ele>
        <time>2020-08-21T06:09:03Z</time>
      </trkpt>
      <trkpt lat="45.18946" lon="3.43573">
        <ele>610.367</ele>
        <time>2020-08-21T06:09:13Z</time>
      </trkpt>
      <trkpt lat="45.18952" lon="3.43569">
        <ele>611.19</ele>
        <time>2020-08-21T06:09:18Z</time>
      </trkpt>
      <trkpt lat="45.18954" lon="3.43567">
        <ele>611.721</ele>
        <time>2020-08-21T06:09:20Z</time>
      </trkpt>
      <trkpt lat="45.18954" lon="3.43567">
        <ele>612.077</ele>
        <time>2020-08-21T06:09:21Z</time>
      </trkpt>
      <trkpt lat="45.18962" lon="3.4356">
        <ele>614.023</ele>
        <time>2020-08-21T06:09:30Z</time>
      </trkpt>
      <trkpt lat="45.18965" lon="3.43557">
        <ele>614.272</ele>
        <time>2020-08-21T06:09:33Z</time>
      </trkpt>
      <trkpt lat="45.18967" lon="3.43557">
        <ele>615.234</ele>
        <time>2020-08-21T06:09:35Z</time>
      </trkpt>
      <trkpt lat="45.18968" lon="3.43556">
        <ele>615.757</ele>
        <time>2020-08-21T06:09:36Z</time>
      </trkpt>
      <trkpt lat="45.18968" lon="3.43556">
        <ele>615.741</ele>
        <time>2020-08-21T06:09:37Z</time>
      </trkpt>
      <trkpt lat="45.1897" lon="3.43555">
        <ele>616.203</ele>
        <time>2020-08-21T06:09:40Z</time>
      </trkpt>
      <trkpt lat="45.18971" lon="3.43555">
        <ele>616.542</ele>
        <time>2020-08-21T06:09:42Z</time>
      </trkpt>
      <trkpt lat="45.18974" lon="3.43553">
        <ele>617.382</ele>
        <time>2020-08-21T06:09:46Z</time>
      </trkpt>
      <trkpt lat="45.18977" lon="3.43551">
        <ele>618.3</ele>
        <time>2020-08-21T06:09:50Z</time>
      </trkpt>
      <trkpt lat="45.18979" lon="3.4355">
        <ele>618.657</ele>
        <time>2020-08-21T06:09:53Z</time>
      </trkpt>
      <trkpt lat="45.18982" lon="3.43549">
        <ele>618.718</ele>
        <time>2020-08-21T06:09:57Z</time>
      </trkpt>
      <trkpt lat="45.18985" lon="3.43549">
        <ele>618.886</ele>
        <time>2020-08-21T06:10:00Z</time>
      </trkpt>
      <trkpt lat="45.18988" lon="3.43548">
        <ele>619.423</ele>
        <time>2020-08-21T06:10:03Z</time>
      </trkpt>
      <trkpt lat="45.18992" lon="3.43547">
        <ele>620.022</ele>
        <time>2020-08-21T06:10:07Z</time>
      </trkpt>
      <trkpt lat="45.18994" lon="3.43546">
        <ele>620.63</ele>
        <time>2020-08-21T06:10:09Z</time>
      </trkpt>
      <trkpt lat="45.18997" lon="3.43545">
        <ele>621.311</ele>
        <time>2020-08-21T06:10:12Z</time>
      </trkpt>
      <trkpt lat="45.19" lon="3.43543">
        <ele>621.592</ele>
        <time>2020-08-21T06:10:16Z</time>
      </trkpt>
      <trkpt lat="45.19001" lon="3.43543">
        <ele>621.665</ele>
        <time>2020-08-21T06:10:17Z</time>
      </trkpt>
      <trkpt lat="45.19002" lon="3.43542">
        <ele>622.12</ele>
        <time>2020-08-21T06:10:19Z</time>
      </trkpt>
      <trkpt lat="45.19007" lon="3.4354">
        <ele>622.897</ele>
        <time>2020-08-21T06:10:25Z</time>
      </trkpt>
      <trkpt lat="45.19011" lon="3.4354">
        <ele>623.513</ele>
        <time>2020-08-21T06:10:30Z</time>
      </trkpt>
      <trkpt lat="45.19014" lon="3.4354">
        <ele>623.619</ele>
        <time>2020-08-21T06:10:33Z</time>
      </trkpt>
      <trkpt lat="45.19019" lon="3.4354">
        <ele>625.138</ele>
        <time>2020-08-21T06:10:38Z</time>
      </trkpt>
      <trkpt lat="45.1902" lon="3.4354">
        <ele>624.945</ele>
        <time>2020-08-21T06:10:40Z</time>
      </trkpt>
      <trkpt lat="45.19022" lon="3.43539">
        <ele>625.94</ele>
        <time>2020-08-21T06:10:44Z</time>
      </trkpt>
      <trkpt lat="45.19025" lon="3.43539">
        <ele>626.961</ele>
        <time>2020-08-21T06:10:48Z</time>
      </trkpt>
      <trkpt lat="45.19026" lon="3.43539">
        <ele>627.593</ele>
        <time>2020-08-21T06:10:51Z</time>
      </trkpt>
      <trkpt lat="45.19029" lon="3.43536">
        <ele>629.152</ele>
        <time>2020-08-21T06:10:55Z</time>
      </trkpt>
      <trkpt lat="45.19032" lon="3.43536">
        <ele>630.079</ele>
        <time>2020-08-21T06:10:59Z</time>
      </trkpt>
      <trkpt lat="45.19035" lon="3.43535">
        <ele>630.814</ele>
        <time>2020-08-21T06:11:03Z</time>
      </trkpt>
      <trkpt lat="45.19037" lon="3.43534">
        <ele>631.362</ele>
        <time>2020-08-21T06:11:05Z</time>
      </trkpt>
      <trkpt lat="45.19041" lon="3.43535">
        <ele>632.273</ele>
        <time>2020-08-21T06:11:08Z</time>
      </trkpt>
      <trkpt lat="45.19048" lon="3.43535">
        <ele>632.14</ele>
        <time>2020-08-21T06:11:13Z</time>
      </trkpt>
      <trkpt lat="45.19052" lon="3.43536">
        <ele>632.507</ele>
        <time>2020-08-21T06:11:16Z</time>
      </trkpt>
      <trkpt lat="45.19055" lon="3.43535">
        <ele>632.858</ele>
        <time>2020-08-21T06:11:19Z</time>
      </trkpt>
      <trkpt lat="45.19056" lon="3.43534">
        <ele>633.159</ele>
        <time>2020-08-21T06:11:20Z</time>
      </trkpt>
      <trkpt lat="45.19057" lon="3.43534">
        <ele>633.086</ele>
        <time>2020-08-21T06:11:21Z</time>
      </trkpt>
      <trkpt lat="45.19066" lon="3.43531">
        <ele>635.124</ele>
        <time>2020-08-21T06:11:31Z</time>
      </trkpt>
      <trkpt lat="45.19072" lon="3.43528">
        <ele>636.917</ele>
        <time>2020-08-21T06:11:39Z</time>
      </trkpt>
      <trkpt lat="45.19074" lon="3.43528">
        <ele>636.968</ele>
        <time>2020-08-21T06:11:40Z</time>
      </trkpt>
      <trkpt lat="45.19077" lon="3.43527">
        <ele>637.645</ele>
        <time>2020-08-21T06:11:44Z</time>
      </trkpt>
      <trkpt lat="45.19077" lon="3.43527">
        <ele>637.752</ele>
        <time>2020-08-21T06:11:45Z</time>
      </trkpt>
      <trkpt lat="45.19078" lon="3.43527">
        <ele>637.601</ele>
        <time>2020-08-21T06:11:46Z</time>
      </trkpt>
      <trkpt lat="45.19081" lon="3.43529">
        <ele>638.189</ele>
        <time>2020-08-21T06:11:49Z</time>
      </trkpt>
      <trkpt lat="45.19088" lon="3.43528">
        <ele>639.517</ele>
        <time>2020-08-21T06:11:56Z</time>
      </trkpt>
      <trkpt lat="45.191" lon="3.43519">
        <ele>642.043</ele>
        <time>2020-08-21T06:12:09Z</time>
      </trkpt>
      <trkpt lat="45.19107" lon="3.43515">
        <ele>644.253</ele>
        <time>2020-08-21T06:12:16Z</time>
      </trkpt>
      <trkpt lat="45.1911" lon="3.43513">
        <ele>645.201</ele>
        <time>2020-08-21T06:12:19Z</time>
      </trkpt>
      <trkpt lat="45.1912" lon="3.43508">
        <ele>646.443</ele>
        <time>2020-08-21T06:12:28Z</time>
      </trkpt>
      <trkpt lat="45.19126" lon="3.43505">
        <ele>647.561</ele>
        <time>2020-08-21T06:12:35Z</time>
      </trkpt>
      <trkpt lat="45.19134" lon="3.43502">
        <ele>649.621</ele>
        <time>2020-08-21T06:12:42Z</time>
      </trkpt>
      <trkpt lat="45.19145" lon="3.43495">
        <ele>651.696</ele>
        <time>2020-08-21T06:12:53Z</time>
      </trkpt>
      <trkpt lat="45.19166" lon="3.43485">
        <ele>653.891</ele>
        <time>2020-08-21T06:13:15Z</time>
      </trkpt>
      <trkpt lat="45.19168" lon="3.43483">
        <ele>654.254</ele>
        <time>2020-08-21T06:13:19Z</time>
      </trkpt>
      <trkpt lat="45.19169" lon="3.43483">
        <ele>654.881</ele>
        <time>2020-08-21T06:13:21Z</time>
      </trkpt>
      <trkpt lat="45.19173" lon="3.43482">
        <ele>655.918</ele>
        <time>2020-08-21T06:13:24Z</time>
      </trkpt>
      <trkpt lat="45.19178" lon="3.4348">
        <ele>657.213</ele>
        <time>2020-08-21T06:13:29Z</time>
      </trkpt>
      <trkpt lat="45.19185" lon="3.43474">
        <ele>659.033</ele>
        <time>2020-08-21T06:13:38Z</time>
      </trkpt>
      <trkpt lat="45.19186" lon="3.43474">
        <ele>658.848</ele>
        <time>2020-08-21T06:13:39Z</time>
      </trkpt>
      <trkpt lat="45.1919" lon="3.43471">
        <ele>660.03</ele>
        <time>2020-08-21T06:13:42Z</time>
      </trkpt>
      <trkpt lat="45.19194" lon="3.43467">
        <ele>661.213</ele>
        <time>2020-08-21T06:13:47Z</time>
      </trkpt>
      <trkpt lat="45.19215" lon="3.4346">
        <ele>663.323</ele>
        <time>2020-08-21T06:14:06Z</time>
      </trkpt>
      <trkpt lat="45.19226" lon="3.43459">
        <ele>665.54</ele>
        <time>2020-08-21T06:14:18Z</time>
      </trkpt>
      <trkpt lat="45.19244" lon="3.43455">
        <ele>667.546</ele>
        <time>2020-08-21T06:14:35Z</time>
      </trkpt>
      <trkpt lat="45.1925" lon="3.43452">
        <ele>668.692</ele>
        <time>2020-08-21T06:14:41Z</time>
      </trkpt>
      <trkpt lat="45.19251" lon="3.43452">
        <ele>670</ele>
        <time>2020-08-21T06:14:43Z</time>
      </trkpt>
      <trkpt lat="45.19252" lon="3.43451">
        <ele>669.982</ele>
        <time>2020-08-21T06:14:45Z</time>
      </trkpt>
      <trkpt lat="45.19258" lon="3.43449">
        <ele>670.941</ele>
        <time>2020-08-21T06:14:51Z</time>
      </trkpt>
      <trkpt lat="45.19267" lon="3.4345">
        <ele>673.185</ele>
        <time>2020-08-21T06:15:02Z</time>
      </trkpt>
      <trkpt lat="45.19282" lon="3.4345">
        <ele>675.384</ele>
        <time>2020-08-21T06:15:17Z</time>
      </trkpt>
      <trkpt lat="45.19291" lon="3.4345">
        <ele>677.476</ele>
        <time>2020-08-21T06:15:25Z</time>
      </trkpt>
      <trkpt lat="45.19302" lon="3.4345">
        <ele>679.905</ele>
        <time>2020-08-21T06:15:37Z</time>
      </trkpt>
      <trkpt lat="45.19328" lon="3.43448">
        <ele>682.276</ele>
        <time>2020-08-21T06:15:59Z</time>
      </trkpt>
      <trkpt lat="45.19346" lon="3.43448">
        <ele>684.647</ele>
        <time>2020-08-21T06:16:14Z</time>
      </trkpt>
      <trkpt lat="45.19353" lon="3.4345">
        <ele>686.655</ele>
        <time>2020-08-21T06:16:21Z</time>
      </trkpt>
      <trkpt lat="45.19365" lon="3.43454">
        <ele>687.159</ele>
        <time>2020-08-21T06:16:33Z</time>
      </trkpt>
      <trkpt lat="45.19391" lon="3.43463">
        <ele>689.455</ele>
        <time>2020-08-21T06:16:56Z</time>
      </trkpt>
      <trkpt lat="45.19407" lon="3.43469">
        <ele>691.78</ele>
        <time>2020-08-21T06:17:10Z</time>
      </trkpt>
      <trkpt lat="45.19419" lon="3.43474">
        <ele>694.182</ele>
        <time>2020-08-21T06:17:20Z</time>
      </trkpt>
      <trkpt lat="45.1943" lon="3.43479">
        <ele>695.13</ele>
        <time>2020-08-21T06:17:32Z</time>
      </trkpt>
      <trkpt lat="45.19432" lon="3.4348">
        <ele>695.075</ele>
        <time>2020-08-21T06:17:34Z</time>
      </trkpt>
      <trkpt lat="45.19439" lon="3.43481">
        <ele>696.251</ele>
        <time>2020-08-21T06:17:41Z</time>
      </trkpt>
      <trkpt lat="45.19439" lon="3.4348">
        <ele>697.708</ele>
        <time>2020-08-21T06:17:43Z</time>
      </trkpt>
      <trkpt lat="45.19439" lon="3.4348">
        <ele>699.613</ele>
        <time>2020-08-21T06:17:49Z</time>
      </trkpt>
      <trkpt lat="45.19441" lon="3.4348">
        <ele>699.805</ele>
        <time>2020-08-21T06:17:50Z</time>
      </trkpt>
      <trkpt lat="45.19441" lon="3.4348">
        <ele>699.805</ele>
        <time>2020-08-21T06:17:50Z</time>
      </trkpt>
      <trkpt lat="45.19441" lon="3.4348">
        <ele>700.521</ele>
        <time>2020-08-21T06:17:51Z</time>
      </trkpt>
      <trkpt lat="45.19441" lon="3.4348">
        <ele>700.858</ele>
        <time>2020-08-21T06:19:03Z</time>
      </trkpt>
      <trkpt lat="45.19443" lon="3.4348">
        <ele>701.138</ele>
        <time>2020-08-21T06:19:04Z</time>
      </trkpt>
      <trkpt lat="45.19443" lon="3.4348">
        <ele>700.806</ele>
        <time>2020-08-21T06:19:06Z</time>
      </trkpt>
      <trkpt lat="45.19443" lon="3.4348">
        <ele>700.806</ele>
        <time>2020-08-21T06:19:06Z</time>
      </trkpt>
      <trkpt lat="45.19443" lon="3.43481">
        <ele>700.441</ele>
        <time>2020-08-21T06:19:07Z</time>
      </trkpt>
      <trkpt lat="45.19443" lon="3.4348">
        <ele>700.401</ele>
        <time>2020-08-21T06:19:10Z</time>
      </trkpt>
      <trkpt lat="45.19443" lon="3.4348">
        <ele>701.19</ele>
        <time>2020-08-21T06:19:11Z</time>
      </trkpt>
      <trkpt lat="45.19444" lon="3.4348">
        <ele>701.317</ele>
        <time>2020-08-21T06:19:12Z</time>
      </trkpt>
      <trkpt lat="45.19444" lon="3.4348">
        <ele>701.317</ele>
        <time>2020-08-21T06:19:12Z</time>
      </trkpt>
      <trkpt lat="45.19444" lon="3.4348">
        <ele>701.955</ele>
        <time>2020-08-21T06:19:13Z</time>
      </trkpt>
      <trkpt lat="45.19444" lon="3.4348">
        <ele>701.955</ele>
        <time>2020-08-21T06:19:13Z</time>
      </trkpt>
      <trkpt lat="45.19444" lon="3.4348">
        <ele>701.964</ele>
        <time>2020-08-21T06:19:14Z</time>
      </trkpt>
      <trkpt lat="45.19444" lon="3.4348">
        <ele>701.964</ele>
        <time>2020-08-21T06:19:14Z</time>
      </trkpt>
      <trkpt lat="45.19444" lon="3.4348">
        <ele>701.857</ele>
        <time>2020-08-21T06:19:15Z</time>
      </trkpt>
      <trkpt lat="45.19444" lon="3.4348">
        <ele>701.4</ele>
        <time>2020-08-21T06:19:23Z</time>
      </trkpt>
      <trkpt lat="45.19444" lon="3.43478">
        <ele>701.36</ele>
        <time>2020-08-21T06:19:24Z</time>
      </trkpt>
      <trkpt lat="45.19444" lon="3.43478">
        <ele>702.029</ele>
        <time>2020-08-21T06:19:25Z</time>
      </trkpt>
      <trkpt lat="45.19444" lon="3.43478">
        <ele>702.036</ele>
        <time>2020-08-21T06:19:26Z</time>
      </trkpt>
      <trkpt lat="45.19444" lon="3.43478">
        <ele>702.017</ele>
        <time>2020-08-21T06:19:36Z</time>
      </trkpt>
      <trkpt lat="45.19445" lon="3.43478">
        <ele>701.804</ele>
        <time>2020-08-21T06:19:37Z</time>
      </trkpt>
      <trkpt lat="45.19445" lon="3.43478">
        <ele>701.804</ele>
        <time>2020-08-21T06:19:37Z</time>
      </trkpt>
      <trkpt lat="45.19445" lon="3.43478">
        <ele>702.024</ele>
        <time>2020-08-21T06:19:38Z</time>
      </trkpt>
      <trkpt lat="45.19445" lon="3.43478">
        <ele>702.276</ele>
        <time>2020-08-21T06:21:08Z</time>
      </trkpt>
      <trkpt lat="45.19445" lon="3.43478">
        <ele>702.613</ele>
        <time>2020-08-21T06:21:10Z</time>
      </trkpt>
      <trkpt lat="45.19444" lon="3.43478">
        <ele>702.274</ele>
        <time>2020-08-21T06:21:12Z</time>
      </trkpt>
      <trkpt lat="45.19444" lon="3.43478">
        <ele>702.266</ele>
        <time>2020-08-21T06:21:13Z</time>
      </trkpt>
      <trkpt lat="45.19444" lon="3.43478">
        <ele>702.59</ele>
        <time>2020-08-21T06:21:59Z</time>
      </trkpt>
      <trkpt lat="45.19445" lon="3.43479">
        <ele>702.732</ele>
        <time>2020-08-21T06:22:00Z</time>
      </trkpt>
      <trkpt lat="45.19445" lon="3.43482">
        <ele>704.466</ele>
        <time>2020-08-21T06:22:06Z</time>
      </trkpt>
      <trkpt lat="45.19445" lon="3.43482">
        <ele>704.37</ele>
        <time>2020-08-21T06:23:00Z</time>
      </trkpt>
      <trkpt lat="45.19444" lon="3.43484">
        <ele>704.468</ele>
        <time>2020-08-21T06:23:01Z</time>
      </trkpt>
      <trkpt lat="45.19443" lon="3.43484">
        <ele>703.838</ele>
        <time>2020-08-21T06:23:03Z</time>
      </trkpt>
      <trkpt lat="45.19443" lon="3.43484">
        <ele>703.645</ele>
        <time>2020-08-21T06:23:11Z</time>
      </trkpt>
      <trkpt lat="45.19442" lon="3.43484">
        <ele>704.475</ele>
        <time>2020-08-21T06:23:12Z</time>
      </trkpt>
      <trkpt lat="45.19442" lon="3.43484">
        <ele>704.747</ele>
        <time>2020-08-21T06:23:13Z</time>
      </trkpt>
      <trkpt lat="45.19442" lon="3.43484">
        <ele>704.747</ele>
        <time>2020-08-21T06:23:13Z</time>
      </trkpt>
      <trkpt lat="45.19442" lon="3.43483">
        <ele>704.613</ele>
        <time>2020-08-21T06:23:14Z</time>
      </trkpt>
      <trkpt lat="45.19441" lon="3.43483">
        <ele>709.473</ele>
        <time>2020-08-21T06:23:16Z</time>
      </trkpt>
      <trkpt lat="45.19441" lon="3.43483">
        <ele>709.041</ele>
        <time>2020-08-21T06:24:35Z</time>
      </trkpt>
      <trkpt lat="45.19441" lon="3.43482">
        <ele>708.895</ele>
        <time>2020-08-21T06:24:36Z</time>
      </trkpt>
      <trkpt lat="45.19441" lon="3.43482">
        <ele>708.865</ele>
        <time>2020-08-21T06:24:37Z</time>
      </trkpt>
      <trkpt lat="45.19441" lon="3.43482">
        <ele>708.893</ele>
        <time>2020-08-21T06:25:17Z</time>
      </trkpt>
      <trkpt lat="45.19442" lon="3.43482">
        <ele>708.697</ele>
        <time>2020-08-21T06:25:18Z</time>
      </trkpt>
      <trkpt lat="45.19443" lon="3.43482">
        <ele>710.08</ele>
        <time>2020-08-21T06:25:23Z</time>
      </trkpt>
      <trkpt lat="45.19443" lon="3.43482">
        <ele>710.081</ele>
        <time>2020-08-21T06:25:32Z</time>
      </trkpt>
      <trkpt lat="45.19441" lon="3.43481">
        <ele>709.998</ele>
        <time>2020-08-21T06:25:33Z</time>
      </trkpt>
      <trkpt lat="45.19439" lon="3.43481">
        <ele>708.715</ele>
        <time>2020-08-21T06:25:37Z</time>
      </trkpt>
      <trkpt lat="45.19439" lon="3.4348">
        <ele>708.387</ele>
        <time>2020-08-21T06:25:38Z</time>
      </trkpt>
      <trkpt lat="45.19438" lon="3.43478">
        <ele>708.77</ele>
        <time>2020-08-21T06:25:42Z</time>
      </trkpt>
      <trkpt lat="45.19438" lon="3.43478">
        <ele>708.868</ele>
        <time>2020-08-21T06:25:43Z</time>
      </trkpt>
      <trkpt lat="45.19438" lon="3.43478">
        <ele>708.868</ele>
        <time>2020-08-21T06:25:43Z</time>
      </trkpt>
      <trkpt lat="45.19438" lon="3.43479">
        <ele>708.856</ele>
        <time>2020-08-21T06:25:44Z</time>
      </trkpt>
      <trkpt lat="45.19438" lon="3.43479">
        <ele>708.477</ele>
        <time>2020-08-21T06:25:47Z</time>
      </trkpt>
      <trkpt lat="45.19438" lon="3.43479">
        <ele>708.488</ele>
        <time>2020-08-21T06:25:48Z</time>
      </trkpt>
      <trkpt lat="45.19438" lon="3.43479">
        <ele>708.488</ele>
        <time>2020-08-21T06:25:48Z</time>
      </trkpt>
      <trkpt lat="45.19438" lon="3.43479">
        <ele>709.272</ele>
        <time>2020-08-21T06:25:49Z</time>
      </trkpt>
      <trkpt lat="45.19438" lon="3.43479">
        <ele>709.048</ele>
        <time>2020-08-21T06:25:51Z</time>
      </trkpt>
      <trkpt lat="45.19438" lon="3.43479">
        <ele>709.23</ele>
        <time>2020-08-21T06:25:55Z</time>
      </trkpt>
      <trkpt lat="45.19439" lon="3.4348">
        <ele>709.319</ele>
        <time>2020-08-21T06:25:56Z</time>
      </trkpt>
      <trkpt lat="45.19439" lon="3.4348">
        <ele>709.113</ele>
        <time>2020-08-21T06:25:57Z</time>
      </trkpt>
      <trkpt lat="45.19441" lon="3.43482">
        <ele>709.547</ele>
        <time>2020-08-21T06:26:02Z</time>
      </trkpt>
      <trkpt lat="45.19441" lon="3.43482">
        <ele>709.13</ele>
        <time>2020-08-21T06:26:04Z</time>
      </trkpt>
      <trkpt lat="45.19441" lon="3.43482">
        <ele>709.13</ele>
        <time>2020-08-21T06:26:04Z</time>
      </trkpt>
      <trkpt lat="45.19442" lon="3.43483">
        <ele>710.333</ele>
        <time>2020-08-21T06:26:05Z</time>
      </trkpt>
      <trkpt lat="45.19443" lon="3.43482">
        <ele>709.843</ele>
        <time>2020-08-21T06:26:09Z</time>
      </trkpt>
      <trkpt lat="45.19443" lon="3.43482">
        <ele>708.825</ele>
        <time>2020-08-21T06:26:10Z</time>
      </trkpt>
      <trkpt lat="45.19443" lon="3.43482">
        <ele>708.064</ele>
        <time>2020-08-21T06:26:37Z</time>
      </trkpt>
      <trkpt lat="45.19443" lon="3.4348">
        <ele>708.613</ele>
        <time>2020-08-21T06:26:38Z</time>
      </trkpt>
      <trkpt lat="45.19443" lon="3.43481">
        <ele>708.464</ele>
        <time>2020-08-21T06:26:39Z</time>
      </trkpt>
      <trkpt lat="45.19443" lon="3.43482">
        <ele>707</ele>
        <time>2020-08-21T06:26:41Z</time>
      </trkpt>
      <trkpt lat="45.19443" lon="3.43482">
        <ele>707.188</ele>
        <time>2020-08-21T06:26:42Z</time>
      </trkpt>
      <trkpt lat="45.19443" lon="3.43483">
        <ele>706.03</ele>
        <time>2020-08-21T06:26:43Z</time>
      </trkpt>
      <trkpt lat="45.19443" lon="3.43483">
        <ele>705.971</ele>
        <time>2020-08-21T06:26:44Z</time>
      </trkpt>
      <trkpt lat="45.19443" lon="3.43483">
        <ele>705.976</ele>
        <time>2020-08-21T06:26:50Z</time>
      </trkpt>
      <trkpt lat="45.19443" lon="3.43484">
        <ele>705.484</ele>
        <time>2020-08-21T06:26:51Z</time>
      </trkpt>
      <trkpt lat="45.19443" lon="3.43484">
        <ele>706.105</ele>
        <time>2020-08-21T06:26:53Z</time>
      </trkpt>
      <trkpt lat="45.19443" lon="3.43484">
        <ele>706.487</ele>
        <time>2020-08-21T06:26:54Z</time>
      </trkpt>
      <trkpt lat="45.19443" lon="3.43484">
        <ele>706.487</ele>
        <time>2020-08-21T06:26:54Z</time>
      </trkpt>
      <trkpt lat="45.19443" lon="3.43484">
        <ele>706.545</ele>
        <time>2020-08-21T06:26:55Z</time>
      </trkpt>
      <trkpt lat="45.19443" lon="3.43484">
        <ele>706.217</ele>
        <time>2020-08-21T06:26:56Z</time>
      </trkpt>
      <trkpt lat="45.19443" lon="3.43484">
        <ele>706.129</ele>
        <time>2020-08-21T06:26:57Z</time>
      </trkpt>
      <trkpt lat="45.19443" lon="3.43484">
        <ele>706.118</ele>
        <time>2020-08-21T06:27:10Z</time>
      </trkpt>
      <trkpt lat="45.19442" lon="3.43483">
        <ele>706.407</ele>
        <time>2020-08-21T06:27:11Z</time>
      </trkpt>
      <trkpt lat="45.19443" lon="3.43481">
        <ele>706.75</ele>
        <time>2020-08-21T06:27:13Z</time>
      </trkpt>
      <trkpt lat="45.19444" lon="3.43467">
        <ele>706.388</ele>
        <time>2020-08-21T06:27:24Z</time>
      </trkpt>
      <trkpt lat="45.19445" lon="3.43463">
        <ele>704.144</ele>
        <time>2020-08-21T06:27:28Z</time>
      </trkpt>
      <trkpt lat="45.19455" lon="3.43349">
        <ele>703.571</ele>
        <time>2020-08-21T06:28:32Z</time>
      </trkpt>
      <trkpt lat="45.19456" lon="3.4334">
        <ele>702.454</ele>
        <time>2020-08-21T06:28:37Z</time>
      </trkpt>
      <trkpt lat="45.19456" lon="3.43318">
        <ele>700.141</ele>
        <time>2020-08-21T06:28:51Z</time>
      </trkpt>
      <trkpt lat="45.19447" lon="3.43238">
        <ele>702.336</ele>
        <time>2020-08-21T06:29:36Z</time>
      </trkpt>
      <trkpt lat="45.19445" lon="3.4321">
        <ele>701.568</ele>
        <time>2020-08-21T06:29:52Z</time>
      </trkpt>
      <trkpt lat="45.19445" lon="3.4321">
        <ele>701.568</ele>
        <time>2020-08-21T06:29:52Z</time>
      </trkpt>
      <trkpt lat="45.19444" lon="3.4321">
        <ele>701.603</ele>
        <time>2020-08-21T06:29:53Z</time>
      </trkpt>
      <trkpt lat="45.19445" lon="3.43205">
        <ele>701.511</ele>
        <time>2020-08-21T06:29:58Z</time>
      </trkpt>
      <trkpt lat="45.19445" lon="3.43143">
        <ele>702.102</ele>
        <time>2020-08-21T06:30:25Z</time>
      </trkpt>
      <trkpt lat="45.19445" lon="3.43128">
        <ele>701.574</ele>
        <time>2020-08-21T06:30:32Z</time>
      </trkpt>
      <trkpt lat="45.19444" lon="3.431">
        <ele>701.429</ele>
        <time>2020-08-21T06:30:45Z</time>
      </trkpt>
      <trkpt lat="45.19455" lon="3.43104">
        <ele>699.824</ele>
        <time>2020-08-21T06:31:02Z</time>
      </trkpt>
      <trkpt lat="45.19457" lon="3.43105">
        <ele>699.368</ele>
        <time>2020-08-21T06:31:05Z</time>
      </trkpt>
      <trkpt lat="45.19482" lon="3.43131">
        <ele>696.744</ele>
        <time>2020-08-21T06:31:32Z</time>
      </trkpt>
      <trkpt lat="45.1949" lon="3.43143">
        <ele>694.428</ele>
        <time>2020-08-21T06:31:42Z</time>
      </trkpt>
      <trkpt lat="45.19497" lon="3.43155">
        <ele>692.415</ele>
        <time>2020-08-21T06:31:51Z</time>
      </trkpt>
      <trkpt lat="45.19537" lon="3.43222">
        <ele>691.931</ele>
        <time>2020-08-21T06:32:39Z</time>
      </trkpt>
      <trkpt lat="45.19547" lon="3.43225">
        <ele>691.386</ele>
        <time>2020-08-21T06:32:47Z</time>
      </trkpt>
      <trkpt lat="45.19558" lon="3.43224">
        <ele>691.367</ele>
        <time>2020-08-21T06:32:55Z</time>
      </trkpt>
      <trkpt lat="45.19571" lon="3.43216">
        <ele>689.919</ele>
        <time>2020-08-21T06:33:05Z</time>
      </trkpt>
      <trkpt lat="45.19582" lon="3.43197">
        <ele>689.995</ele>
        <time>2020-08-21T06:33:17Z</time>
      </trkpt>
      <trkpt lat="45.19586" lon="3.43185">
        <ele>689.874</ele>
        <time>2020-08-21T06:33:24Z</time>
      </trkpt>
      <trkpt lat="45.19587" lon="3.43176">
        <ele>689.006</ele>
        <time>2020-08-21T06:33:29Z</time>
      </trkpt>
      <trkpt lat="45.19585" lon="3.43152">
        <ele>688.454</ele>
        <time>2020-08-21T06:33:42Z</time>
      </trkpt>
      <trkpt lat="45.1958" lon="3.43134">
        <ele>688.284</ele>
        <time>2020-08-21T06:33:51Z</time>
      </trkpt>
      <trkpt lat="45.19579" lon="3.43119">
        <ele>686.978</ele>
        <time>2020-08-21T06:34:00Z</time>
      </trkpt>
      <trkpt lat="45.19584" lon="3.43006">
        <ele>688.282</ele>
        <time>2020-08-21T06:35:01Z</time>
      </trkpt>
      <trkpt lat="45.19589" lon="3.4298">
        <ele>686.79</ele>
        <time>2020-08-21T06:35:16Z</time>
      </trkpt>
      <trkpt lat="45.19597" lon="3.42922">
        <ele>685.208</ele>
        <time>2020-08-21T06:35:47Z</time>
      </trkpt>
      <trkpt lat="45.19618" lon="3.42883">
        <ele>685.475</ele>
        <time>2020-08-21T06:36:14Z</time>
      </trkpt>
      <trkpt lat="45.19639" lon="3.4285">
        <ele>686.289</ele>
        <time>2020-08-21T06:36:37Z</time>
      </trkpt>
      <trkpt lat="45.19648" lon="3.4284">
        <ele>685.33</ele>
        <time>2020-08-21T06:36:45Z</time>
      </trkpt>
      <trkpt lat="45.19671" lon="3.42823">
        <ele>685.367</ele>
        <time>2020-08-21T06:37:06Z</time>
      </trkpt>
      <trkpt lat="45.19677" lon="3.42822">
        <ele>684.746</ele>
        <time>2020-08-21T06:37:11Z</time>
      </trkpt>
      <trkpt lat="45.19692" lon="3.42812">
        <ele>682.789</ele>
        <time>2020-08-21T06:37:26Z</time>
      </trkpt>
      <trkpt lat="45.19703" lon="3.42804">
        <ele>683.261</ele>
        <time>2020-08-21T06:37:34Z</time>
      </trkpt>
      <trkpt lat="45.19706" lon="3.428">
        <ele>684.289</ele>
        <time>2020-08-21T06:37:37Z</time>
      </trkpt>
      <trkpt lat="45.19716" lon="3.4279">
        <ele>684.105</ele>
        <time>2020-08-21T06:37:44Z</time>
      </trkpt>
      <trkpt lat="45.19722" lon="3.42778">
        <ele>684.003</ele>
        <time>2020-08-21T06:37:51Z</time>
      </trkpt>
      <trkpt lat="45.19729" lon="3.42771">
        <ele>684.422</ele>
        <time>2020-08-21T06:37:58Z</time>
      </trkpt>
      <trkpt lat="45.19749" lon="3.42716">
        <ele>684.405</ele>
        <time>2020-08-21T06:38:29Z</time>
      </trkpt>
      <trkpt lat="45.19752" lon="3.42705">
        <ele>684.265</ele>
        <time>2020-08-21T06:38:36Z</time>
      </trkpt>
      <trkpt lat="45.19755" lon="3.42699">
        <ele>681.879</ele>
        <time>2020-08-21T06:38:43Z</time>
      </trkpt>
      <trkpt lat="45.19762" lon="3.42659">
        <ele>684.057</ele>
        <time>2020-08-21T06:39:01Z</time>
      </trkpt>
      <trkpt lat="45.19764" lon="3.42654">
        <ele>684.787</ele>
        <time>2020-08-21T06:39:04Z</time>
      </trkpt>
      <trkpt lat="45.19765" lon="3.42649">
        <ele>684.383</ele>
        <time>2020-08-21T06:39:07Z</time>
      </trkpt>
      <trkpt lat="45.19776" lon="3.42624">
        <ele>682.081</ele>
        <time>2020-08-21T06:39:22Z</time>
      </trkpt>
      <trkpt lat="45.19785" lon="3.42602">
        <ele>679.898</ele>
        <time>2020-08-21T06:39:38Z</time>
      </trkpt>
      <trkpt lat="45.1979" lon="3.42587">
        <ele>678.828</ele>
        <time>2020-08-21T06:39:47Z</time>
      </trkpt>
      <trkpt lat="45.19811" lon="3.42555">
        <ele>677.183</ele>
        <time>2020-08-21T06:40:12Z</time>
      </trkpt>
      <trkpt lat="45.19819" lon="3.42541">
        <ele>677.942</ele>
        <time>2020-08-21T06:40:20Z</time>
      </trkpt>
      <trkpt lat="45.19821" lon="3.42537">
        <ele>678.286</ele>
        <time>2020-08-21T06:40:23Z</time>
      </trkpt>
      <trkpt lat="45.19822" lon="3.42534">
        <ele>678.942</ele>
        <time>2020-08-21T06:40:25Z</time>
      </trkpt>
      <trkpt lat="45.19827" lon="3.42527">
        <ele>678.435</ele>
        <time>2020-08-21T06:40:32Z</time>
      </trkpt>
      <trkpt lat="45.19846" lon="3.4251">
        <ele>677.763</ele>
        <time>2020-08-21T06:40:49Z</time>
      </trkpt>
      <trkpt lat="45.19849" lon="3.42503">
        <ele>677.315</ele>
        <time>2020-08-21T06:40:53Z</time>
      </trkpt>
      <trkpt lat="45.19868" lon="3.42484">
        <ele>676.029</ele>
        <time>2020-08-21T06:41:10Z</time>
      </trkpt>
      <trkpt lat="45.19882" lon="3.42475">
        <ele>674.166</ele>
        <time>2020-08-21T06:41:20Z</time>
      </trkpt>
      <trkpt lat="45.1989" lon="3.4247">
        <ele>674.172</ele>
        <time>2020-08-21T06:41:29Z</time>
      </trkpt>
      <trkpt lat="45.19894" lon="3.42467">
        <ele>673.762</ele>
        <time>2020-08-21T06:41:32Z</time>
      </trkpt>
      <trkpt lat="45.19906" lon="3.42459">
        <ele>672.623</ele>
        <time>2020-08-21T06:41:44Z</time>
      </trkpt>
      <trkpt lat="45.1991" lon="3.42456">
        <ele>672.203</ele>
        <time>2020-08-21T06:41:48Z</time>
      </trkpt>
      <trkpt lat="45.19913" lon="3.42456">
        <ele>671.625</ele>
        <time>2020-08-21T06:41:51Z</time>
      </trkpt>
      <trkpt lat="45.19922" lon="3.42451">
        <ele>669.615</ele>
        <time>2020-08-21T06:41:59Z</time>
      </trkpt>
      <trkpt lat="45.19927" lon="3.42451">
        <ele>668.92</ele>
        <time>2020-08-21T06:42:02Z</time>
      </trkpt>
      <trkpt lat="45.19952" lon="3.42447">
        <ele>668.471</ele>
        <time>2020-08-21T06:42:20Z</time>
      </trkpt>
      <trkpt lat="45.19957" lon="3.42449">
        <ele>667.255</ele>
        <time>2020-08-21T06:42:23Z</time>
      </trkpt>
      <trkpt lat="45.19981" lon="3.42457">
        <ele>665.778</ele>
        <time>2020-08-21T06:42:40Z</time>
      </trkpt>
      <trkpt lat="45.19983" lon="3.4246">
        <ele>665.209</ele>
        <time>2020-08-21T06:42:43Z</time>
      </trkpt>
      <trkpt lat="45.19985" lon="3.42462">
        <ele>664.426</ele>
        <time>2020-08-21T06:42:45Z</time>
      </trkpt>
      <trkpt lat="45.19989" lon="3.42465">
        <ele>664.53</ele>
        <time>2020-08-21T06:42:48Z</time>
      </trkpt>
      <trkpt lat="45.19997" lon="3.4247">
        <ele>661.608</ele>
        <time>2020-08-21T06:42:53Z</time>
      </trkpt>
      <trkpt lat="45.20001" lon="3.42476">
        <ele>661.883</ele>
        <time>2020-08-21T06:42:58Z</time>
      </trkpt>
      <trkpt lat="45.20005" lon="3.42481">
        <ele>662.054</ele>
        <time>2020-08-21T06:43:02Z</time>
      </trkpt>
      <trkpt lat="45.20008" lon="3.42485">
        <ele>660.601</ele>
        <time>2020-08-21T06:43:05Z</time>
      </trkpt>
      <trkpt lat="45.20012" lon="3.42487">
        <ele>660.634</ele>
        <time>2020-08-21T06:43:07Z</time>
      </trkpt>
      <trkpt lat="45.20035" lon="3.42498">
        <ele>659.571</ele>
        <time>2020-08-21T06:43:22Z</time>
      </trkpt>
      <trkpt lat="45.20041" lon="3.42496">
        <ele>658.826</ele>
        <time>2020-08-21T06:43:28Z</time>
      </trkpt>
      <trkpt lat="45.20049" lon="3.42484">
        <ele>658.436</ele>
        <time>2020-08-21T06:43:36Z</time>
      </trkpt>
      <trkpt lat="45.20053" lon="3.4247">
        <ele>658.593</ele>
        <time>2020-08-21T06:43:44Z</time>
      </trkpt>
      <trkpt lat="45.20062" lon="3.42429">
        <ele>659.852</ele>
        <time>2020-08-21T06:44:05Z</time>
      </trkpt>
      <trkpt lat="45.20064" lon="3.42402">
        <ele>658.784</ele>
        <time>2020-08-21T06:44:20Z</time>
      </trkpt>
      <trkpt lat="45.20065" lon="3.42397">
        <ele>657.637</ele>
        <time>2020-08-21T06:44:26Z</time>
      </trkpt>
      <trkpt lat="45.20068" lon="3.42366">
        <ele>658.068</ele>
        <time>2020-08-21T06:44:45Z</time>
      </trkpt>
      <trkpt lat="45.20078" lon="3.42337">
        <ele>658.167</ele>
        <time>2020-08-21T06:45:01Z</time>
      </trkpt>
      <trkpt lat="45.20125" lon="3.4227">
        <ele>657.115</ele>
        <time>2020-08-21T06:45:54Z</time>
      </trkpt>
      <trkpt lat="45.20127" lon="3.42264">
        <ele>657.363</ele>
        <time>2020-08-21T06:45:58Z</time>
      </trkpt>
      <trkpt lat="45.20127" lon="3.42255">
        <ele>656.945</ele>
        <time>2020-08-21T06:46:03Z</time>
      </trkpt>
      <trkpt lat="45.20123" lon="3.42232">
        <ele>658.381</ele>
        <time>2020-08-21T06:46:15Z</time>
      </trkpt>
      <trkpt lat="45.20115" lon="3.42206">
        <ele>660.439</ele>
        <time>2020-08-21T06:46:33Z</time>
      </trkpt>
      <trkpt lat="45.20109" lon="3.42186">
        <ele>660.224</ele>
        <time>2020-08-21T06:46:46Z</time>
      </trkpt>
      <trkpt lat="45.20122" lon="3.42179">
        <ele>662.057</ele>
        <time>2020-08-21T06:47:09Z</time>
      </trkpt>
      <trkpt lat="45.20129" lon="3.42178">
        <ele>662.701</ele>
        <time>2020-08-21T06:47:14Z</time>
      </trkpt>
      <trkpt lat="45.20132" lon="3.42178">
        <ele>662.952</ele>
        <time>2020-08-21T06:47:18Z</time>
      </trkpt>
      <trkpt lat="45.20133" lon="3.42175">
        <ele>662.797</ele>
        <time>2020-08-21T06:47:21Z</time>
      </trkpt>
      <trkpt lat="45.20134" lon="3.42173">
        <ele>662.915</ele>
        <time>2020-08-21T06:47:24Z</time>
      </trkpt>
      <trkpt lat="45.20134" lon="3.42171">
        <ele>663.229</ele>
        <time>2020-08-21T06:47:26Z</time>
      </trkpt>
      <trkpt lat="45.20136" lon="3.42152">
        <ele>664.759</ele>
        <time>2020-08-21T06:47:42Z</time>
      </trkpt>
      <trkpt lat="45.20136" lon="3.42152">
        <ele>664.759</ele>
        <time>2020-08-21T06:47:42Z</time>
      </trkpt>
      <trkpt lat="45.20136" lon="3.42152">
        <ele>664.998</ele>
        <time>2020-08-21T06:47:43Z</time>
      </trkpt>
      <trkpt lat="45.20137" lon="3.42151">
        <ele>665.604</ele>
        <time>2020-08-21T06:47:45Z</time>
      </trkpt>
      <trkpt lat="45.20137" lon="3.42151">
        <ele>665.604</ele>
        <time>2020-08-21T06:47:45Z</time>
      </trkpt>
      <trkpt lat="45.20137" lon="3.42151">
        <ele>665.727</ele>
        <time>2020-08-21T06:47:46Z</time>
      </trkpt>
      <trkpt lat="45.20138" lon="3.42149">
        <ele>665.626</ele>
        <time>2020-08-21T06:47:49Z</time>
      </trkpt>
      <trkpt lat="45.20138" lon="3.42145">
        <ele>667.482</ele>
        <time>2020-08-21T06:47:53Z</time>
      </trkpt>
      <trkpt lat="45.20138" lon="3.42145">
        <ele>667.705</ele>
        <time>2020-08-21T06:47:55Z</time>
      </trkpt>
      <trkpt lat="45.2014" lon="3.42142">
        <ele>667.95</ele>
        <time>2020-08-21T06:47:56Z</time>
      </trkpt>
      <trkpt lat="45.20141" lon="3.4214">
        <ele>668.109</ele>
        <time>2020-08-21T06:47:57Z</time>
      </trkpt>
      <trkpt lat="45.20145" lon="3.42133">
        <ele>668.768</ele>
        <time>2020-08-21T06:48:01Z</time>
      </trkpt>
      <trkpt lat="45.2015" lon="3.42124">
        <ele>669.333</ele>
        <time>2020-08-21T06:48:07Z</time>
      </trkpt>
      <trkpt lat="45.2015" lon="3.4212">
        <ele>670.03</ele>
        <time>2020-08-21T06:48:11Z</time>
      </trkpt>
      <trkpt lat="45.2015" lon="3.4212">
        <ele>670.03</ele>
        <time>2020-08-21T06:48:11Z</time>
      </trkpt>
      <trkpt lat="45.20148" lon="3.4212">
        <ele>670.217</ele>
        <time>2020-08-21T06:48:12Z</time>
      </trkpt>
      <trkpt lat="45.20145" lon="3.42119">
        <ele>670.836</ele>
        <time>2020-08-21T06:48:15Z</time>
      </trkpt>
      <trkpt lat="45.20146" lon="3.42113">
        <ele>671.125</ele>
        <time>2020-08-21T06:48:17Z</time>
      </trkpt>
      <trkpt lat="45.20153" lon="3.4209">
        <ele>673.393</ele>
        <time>2020-08-21T06:48:26Z</time>
      </trkpt>
      <trkpt lat="45.20155" lon="3.42087">
        <ele>672.904</ele>
        <time>2020-08-21T06:48:29Z</time>
      </trkpt>
      <trkpt lat="45.20178" lon="3.42072">
        <ele>671.806</ele>
        <time>2020-08-21T06:48:48Z</time>
      </trkpt>
      <trkpt lat="45.20194" lon="3.42075">
        <ele>672.599</ele>
        <time>2020-08-21T06:49:01Z</time>
      </trkpt>
      <trkpt lat="45.20194" lon="3.42075">
        <ele>672.388</ele>
        <time>2020-08-21T06:49:02Z</time>
      </trkpt>
      <trkpt lat="45.20194" lon="3.42075">
        <ele>672.388</ele>
        <time>2020-08-21T06:49:02Z</time>
      </trkpt>
      <trkpt lat="45.20194" lon="3.42075">
        <ele>672.48</ele>
        <time>2020-08-21T06:49:03Z</time>
      </trkpt>
      <trkpt lat="45.20194" lon="3.42075">
        <ele>672.557</ele>
        <time>2020-08-21T06:49:04Z</time>
      </trkpt>
      <trkpt lat="45.20194" lon="3.42075">
        <ele>672.595</ele>
        <time>2020-08-21T06:49:07Z</time>
      </trkpt>
      <trkpt lat="45.20194" lon="3.42075">
        <ele>672.439</ele>
        <time>2020-08-21T06:49:08Z</time>
      </trkpt>
      <trkpt lat="45.20194" lon="3.42075">
        <ele>672.402</ele>
        <time>2020-08-21T06:49:09Z</time>
      </trkpt>
      <trkpt lat="45.20194" lon="3.42075">
        <ele>672.509</ele>
        <time>2020-08-21T06:49:10Z</time>
      </trkpt>
      <trkpt lat="45.20194" lon="3.42075">
        <ele>672.509</ele>
        <time>2020-08-21T06:49:10Z</time>
      </trkpt>
      <trkpt lat="45.20193" lon="3.42075">
        <ele>672.451</ele>
        <time>2020-08-21T06:49:11Z</time>
      </trkpt>
      <trkpt lat="45.20193" lon="3.42075">
        <ele>672.755</ele>
        <time>2020-08-21T06:49:12Z</time>
      </trkpt>
      <trkpt lat="45.20193" lon="3.42075">
        <ele>672.755</ele>
        <time>2020-08-21T06:49:12Z</time>
      </trkpt>
      <trkpt lat="45.20193" lon="3.42075">
        <ele>672.426</ele>
        <time>2020-08-21T06:49:13Z</time>
      </trkpt>
      <trkpt lat="45.20194" lon="3.42075">
        <ele>672.368</ele>
        <time>2020-08-21T06:49:14Z</time>
      </trkpt>
      <trkpt lat="45.20195" lon="3.42075">
        <ele>672.422</ele>
        <time>2020-08-21T06:49:15Z</time>
      </trkpt>
      <trkpt lat="45.20196" lon="3.42075">
        <ele>672.874</ele>
        <time>2020-08-21T06:49:17Z</time>
      </trkpt>
      <trkpt lat="45.20199" lon="3.42076">
        <ele>672.868</ele>
        <time>2020-08-21T06:49:22Z</time>
      </trkpt>
      <trkpt lat="45.20199" lon="3.42076">
        <ele>672.896</ele>
        <time>2020-08-21T06:49:23Z</time>
      </trkpt>
      <trkpt lat="45.20199" lon="3.42076">
        <ele>672.155</ele>
        <time>2020-08-21T06:49:25Z</time>
      </trkpt>
      <trkpt lat="45.202" lon="3.42077">
        <ele>672.008</ele>
        <time>2020-08-21T06:49:26Z</time>
      </trkpt>
      <trkpt lat="45.20218" lon="3.42085">
        <ele>670.794</ele>
        <time>2020-08-21T06:49:42Z</time>
      </trkpt>
      <trkpt lat="45.2022" lon="3.42086">
        <ele>670.606</ele>
        <time>2020-08-21T06:49:44Z</time>
      </trkpt>
      <trkpt lat="45.20224" lon="3.42089">
        <ele>670.986</ele>
        <time>2020-08-21T06:49:49Z</time>
      </trkpt>
      <trkpt lat="45.20229" lon="3.42092">
        <ele>671.262</ele>
        <time>2020-08-21T06:49:55Z</time>
      </trkpt>
      <trkpt lat="45.20232" lon="3.42095">
        <ele>671.381</ele>
        <time>2020-08-21T06:49:58Z</time>
      </trkpt>
      <trkpt lat="45.2025" lon="3.4211">
        <ele>671.568</ele>
        <time>2020-08-21T06:50:14Z</time>
      </trkpt>
      <trkpt lat="45.20296" lon="3.42151">
        <ele>673.399</ele>
        <time>2020-08-21T06:51:00Z</time>
      </trkpt>
      <trkpt lat="45.20301" lon="3.42155">
        <ele>673.706</ele>
        <time>2020-08-21T06:51:06Z</time>
      </trkpt>
      <trkpt lat="45.20313" lon="3.42165">
        <ele>673.697</ele>
        <time>2020-08-21T06:51:22Z</time>
      </trkpt>
      <trkpt lat="45.20323" lon="3.42166">
        <ele>674.824</ele>
        <time>2020-08-21T06:51:31Z</time>
      </trkpt>
      <trkpt lat="45.20346" lon="3.42166">
        <ele>676.92</ele>
        <time>2020-08-21T06:51:49Z</time>
      </trkpt>
      <trkpt lat="45.20352" lon="3.42164">
        <ele>677.539</ele>
        <time>2020-08-21T06:51:54Z</time>
      </trkpt>
      <trkpt lat="45.20365" lon="3.4216">
        <ele>677.651</ele>
        <time>2020-08-21T06:52:06Z</time>
      </trkpt>
      <trkpt lat="45.20384" lon="3.42157">
        <ele>679.872</ele>
        <time>2020-08-21T06:52:25Z</time>
      </trkpt>
      <trkpt lat="45.20405" lon="3.42162">
        <ele>681.117</ele>
        <time>2020-08-21T06:52:45Z</time>
      </trkpt>
      <trkpt lat="45.20416" lon="3.42165">
        <ele>683.209</ele>
        <time>2020-08-21T06:52:56Z</time>
      </trkpt>
      <trkpt lat="45.20418" lon="3.42166">
        <ele>683.966</ele>
        <time>2020-08-21T06:52:58Z</time>
      </trkpt>
      <trkpt lat="45.20419" lon="3.42167">
        <ele>683.998</ele>
        <time>2020-08-21T06:53:00Z</time>
      </trkpt>
      <trkpt lat="45.20437" lon="3.4218">
        <ele>685.561</ele>
        <time>2020-08-21T06:53:20Z</time>
      </trkpt>
      <trkpt lat="45.20437" lon="3.42181">
        <ele>685.498</ele>
        <time>2020-08-21T06:53:21Z</time>
      </trkpt>
      <trkpt lat="45.20455" lon="3.4219">
        <ele>687.063</ele>
        <time>2020-08-21T06:53:35Z</time>
      </trkpt>
      <trkpt lat="45.20463" lon="3.42193">
        <ele>687.051</ele>
        <time>2020-08-21T06:53:40Z</time>
      </trkpt>
      <trkpt lat="45.20475" lon="3.42195">
        <ele>687.294</ele>
        <time>2020-08-21T06:53:51Z</time>
      </trkpt>
      <trkpt lat="45.20522" lon="3.42197">
        <ele>685.207</ele>
        <time>2020-08-21T06:54:26Z</time>
      </trkpt>
      <trkpt lat="45.20568" lon="3.42213">
        <ele>683.134</ele>
        <time>2020-08-21T06:55:00Z</time>
      </trkpt>
      <trkpt lat="45.20572" lon="3.42216">
        <ele>683.11</ele>
        <time>2020-08-21T06:55:03Z</time>
      </trkpt>
      <trkpt lat="45.20574" lon="3.42218">
        <ele>682.867</ele>
        <time>2020-08-21T06:55:05Z</time>
      </trkpt>
      <trkpt lat="45.206" lon="3.42248">
        <ele>682.314</ele>
        <time>2020-08-21T06:55:29Z</time>
      </trkpt>
      <trkpt lat="45.20605" lon="3.42258">
        <ele>680.2</ele>
        <time>2020-08-21T06:55:38Z</time>
      </trkpt>
      <trkpt lat="45.20626" lon="3.42285">
        <ele>678.194</ele>
        <time>2020-08-21T06:56:00Z</time>
      </trkpt>
      <trkpt lat="45.2065" lon="3.42316">
        <ele>680.199</ele>
        <time>2020-08-21T06:56:25Z</time>
      </trkpt>
      <trkpt lat="45.20674" lon="3.4234">
        <ele>680.212</ele>
        <time>2020-08-21T06:56:47Z</time>
      </trkpt>
      <trkpt lat="45.20676" lon="3.42343">
        <ele>680.259</ele>
        <time>2020-08-21T06:56:50Z</time>
      </trkpt>
      <trkpt lat="45.2068" lon="3.42346">
        <ele>680.401</ele>
        <time>2020-08-21T06:56:53Z</time>
      </trkpt>
      <trkpt lat="45.20686" lon="3.42349">
        <ele>680.039</ele>
        <time>2020-08-21T06:56:58Z</time>
      </trkpt>
      <trkpt lat="45.20699" lon="3.42352">
        <ele>680</ele>
        <time>2020-08-21T06:57:11Z</time>
      </trkpt>
      <trkpt lat="45.20703" lon="3.4235">
        <ele>680.462</ele>
        <time>2020-08-21T06:57:15Z</time>
      </trkpt>
      <trkpt lat="45.20709" lon="3.42347">
        <ele>679.925</ele>
        <time>2020-08-21T06:57:21Z</time>
      </trkpt>
      <trkpt lat="45.20741" lon="3.42327">
        <ele>681.966</ele>
        <time>2020-08-21T06:57:49Z</time>
      </trkpt>
      <trkpt lat="45.20755" lon="3.42318">
        <ele>684.09</ele>
        <time>2020-08-21T06:58:02Z</time>
      </trkpt>
      <trkpt lat="45.20767" lon="3.42313">
        <ele>684.646</ele>
        <time>2020-08-21T06:58:12Z</time>
      </trkpt>
      <trkpt lat="45.2079" lon="3.42304">
        <ele>686.832</ele>
        <time>2020-08-21T06:58:31Z</time>
      </trkpt>
      <trkpt lat="45.20814" lon="3.42304">
        <ele>688.505</ele>
        <time>2020-08-21T06:58:53Z</time>
      </trkpt>
      <trkpt lat="45.20814" lon="3.42304">
        <ele>688.539</ele>
        <time>2020-08-21T06:58:54Z</time>
      </trkpt>
      <trkpt lat="45.20814" lon="3.42304">
        <ele>688.539</ele>
        <time>2020-08-21T06:58:55Z</time>
      </trkpt>
      <trkpt lat="45.20814" lon="3.42303">
        <ele>688.624</ele>
        <time>2020-08-21T06:58:56Z</time>
      </trkpt>
      <trkpt lat="45.20815" lon="3.42305">
        <ele>688.417</ele>
        <time>2020-08-21T06:58:58Z</time>
      </trkpt>
      <trkpt lat="45.20818" lon="3.42309">
        <ele>689.044</ele>
        <time>2020-08-21T06:59:04Z</time>
      </trkpt>
      <trkpt lat="45.20818" lon="3.4231">
        <ele>688.719</ele>
        <time>2020-08-21T06:59:05Z</time>
      </trkpt>
      <trkpt lat="45.20818" lon="3.4231">
        <ele>688.719</ele>
        <time>2020-08-21T06:59:05Z</time>
      </trkpt>
      <trkpt lat="45.20818" lon="3.4231">
        <ele>688.584</ele>
        <time>2020-08-21T06:59:06Z</time>
      </trkpt>
      <trkpt lat="45.20818" lon="3.4231">
        <ele>688.302</ele>
        <time>2020-08-21T06:59:20Z</time>
      </trkpt>
      <trkpt lat="45.20818" lon="3.4231">
        <ele>688.38</ele>
        <time>2020-08-21T06:59:21Z</time>
      </trkpt>
      <trkpt lat="45.20818" lon="3.4231">
        <ele>688.37</ele>
        <time>2020-08-21T06:59:22Z</time>
      </trkpt>
      <trkpt lat="45.20818" lon="3.4231">
        <ele>688.368</ele>
        <time>2020-08-21T06:59:25Z</time>
      </trkpt>
      <trkpt lat="45.20818" lon="3.42309">
        <ele>688.443</ele>
        <time>2020-08-21T06:59:26Z</time>
      </trkpt>
      <trkpt lat="45.20818" lon="3.42309">
        <ele>688.457</ele>
        <time>2020-08-21T06:59:27Z</time>
      </trkpt>
      <trkpt lat="45.20818" lon="3.42309">
        <ele>688.411</ele>
        <time>2020-08-21T07:00:28Z</time>
      </trkpt>
      <trkpt lat="45.20818" lon="3.42309">
        <ele>688.371</ele>
        <time>2020-08-21T07:00:29Z</time>
      </trkpt>
      <trkpt lat="45.20818" lon="3.42309">
        <ele>688.333</ele>
        <time>2020-08-21T07:00:30Z</time>
      </trkpt>
      <trkpt lat="45.20818" lon="3.42309">
        <ele>688.339</ele>
        <time>2020-08-21T07:00:42Z</time>
      </trkpt>
      <trkpt lat="45.20818" lon="3.4231">
        <ele>688.433</ele>
        <time>2020-08-21T07:00:43Z</time>
      </trkpt>
      <trkpt lat="45.20818" lon="3.4231">
        <ele>688.498</ele>
        <time>2020-08-21T07:00:44Z</time>
      </trkpt>
      <trkpt lat="45.20818" lon="3.4231">
        <ele>688.455</ele>
        <time>2020-08-21T07:00:45Z</time>
      </trkpt>
      <trkpt lat="45.20818" lon="3.4231">
        <ele>688.658</ele>
        <time>2020-08-21T07:01:12Z</time>
      </trkpt>
      <trkpt lat="45.20819" lon="3.4231">
        <ele>689.21</ele>
        <time>2020-08-21T07:01:13Z</time>
      </trkpt>
      <trkpt lat="45.20819" lon="3.4231">
        <ele>689.388</ele>
        <time>2020-08-21T07:01:14Z</time>
      </trkpt>
      <trkpt lat="45.20819" lon="3.4231">
        <ele>689.235</ele>
        <time>2020-08-21T07:01:26Z</time>
      </trkpt>
      <trkpt lat="45.2082" lon="3.4231">
        <ele>689.222</ele>
        <time>2020-08-21T07:01:27Z</time>
      </trkpt>
      <trkpt lat="45.20821" lon="3.42311">
        <ele>689.265</ele>
        <time>2020-08-21T07:01:28Z</time>
      </trkpt>
      <trkpt lat="45.20821" lon="3.42311">
        <ele>689.265</ele>
        <time>2020-08-21T07:01:28Z</time>
      </trkpt>
      <trkpt lat="45.20821" lon="3.42311">
        <ele>689.253</ele>
        <time>2020-08-21T07:01:29Z</time>
      </trkpt>
      <trkpt lat="45.20821" lon="3.42311">
        <ele>689.08</ele>
        <time>2020-08-21T07:01:37Z</time>
      </trkpt>
      <trkpt lat="45.20821" lon="3.42311">
        <ele>689.181</ele>
        <time>2020-08-21T07:01:38Z</time>
      </trkpt>
      <trkpt lat="45.20821" lon="3.42311">
        <ele>687.558</ele>
        <time>2020-08-21T07:01:40Z</time>
      </trkpt>
      <trkpt lat="45.20821" lon="3.42311">
        <ele>686.939</ele>
        <time>2020-08-21T07:01:49Z</time>
      </trkpt>
      <trkpt lat="45.20824" lon="3.42314">
        <ele>686.917</ele>
        <time>2020-08-21T07:01:50Z</time>
      </trkpt>
      <trkpt lat="45.20824" lon="3.42314">
        <ele>686.917</ele>
        <time>2020-08-21T07:01:50Z</time>
      </trkpt>
      <trkpt lat="45.20824" lon="3.42314">
        <ele>686.85</ele>
        <time>2020-08-21T07:01:51Z</time>
      </trkpt>
      <trkpt lat="45.20824" lon="3.42314">
        <ele>686.885</ele>
        <time>2020-08-21T07:01:53Z</time>
      </trkpt>
      <trkpt lat="45.20824" lon="3.42314">
        <ele>686.031</ele>
        <time>2020-08-21T07:01:54Z</time>
      </trkpt>
      <trkpt lat="45.20824" lon="3.42314">
        <ele>685.821</ele>
        <time>2020-08-21T07:01:55Z</time>
      </trkpt>
      <trkpt lat="45.20825" lon="3.42314">
        <ele>684.961</ele>
        <time>2020-08-21T07:01:57Z</time>
      </trkpt>
      <trkpt lat="45.20825" lon="3.42314">
        <ele>684.442</ele>
        <time>2020-08-21T07:02:13Z</time>
      </trkpt>
      <trkpt lat="45.20828" lon="3.42316">
        <ele>684.332</ele>
        <time>2020-08-21T07:02:14Z</time>
      </trkpt>
      <trkpt lat="45.20828" lon="3.42315">
        <ele>684.874</ele>
        <time>2020-08-21T07:02:16Z</time>
      </trkpt>
      <trkpt lat="45.20828" lon="3.42315">
        <ele>684.698</ele>
        <time>2020-08-21T07:02:18Z</time>
      </trkpt>
      <trkpt lat="45.20828" lon="3.42314">
        <ele>684.589</ele>
        <time>2020-08-21T07:02:19Z</time>
      </trkpt>
      <trkpt lat="45.20828" lon="3.42314">
        <ele>684.781</ele>
        <time>2020-08-21T07:02:20Z</time>
      </trkpt>
      <trkpt lat="45.20828" lon="3.42314">
        <ele>685.016</ele>
        <time>2020-08-21T07:18:43Z</time>
      </trkpt>
      <trkpt lat="45.20827" lon="3.42315">
        <ele>685.233</ele>
        <time>2020-08-21T07:18:44Z</time>
      </trkpt>
      <trkpt lat="45.20829" lon="3.42314">
        <ele>685.642</ele>
        <time>2020-08-21T07:18:48Z</time>
      </trkpt>
      <trkpt lat="45.20829" lon="3.42314">
        <ele>685.642</ele>
        <time>2020-08-21T07:18:48Z</time>
      </trkpt>
      <trkpt lat="45.20828" lon="3.42313">
        <ele>685.519</ele>
        <time>2020-08-21T07:18:49Z</time>
      </trkpt>
      <trkpt lat="45.20827" lon="3.42312">
        <ele>685.749</ele>
        <time>2020-08-21T07:18:52Z</time>
      </trkpt>
      <trkpt lat="45.20826" lon="3.42313">
        <ele>685.883</ele>
        <time>2020-08-21T07:18:56Z</time>
      </trkpt>
      <trkpt lat="45.20826" lon="3.42313">
        <ele>685.892</ele>
        <time>2020-08-21T07:19:04Z</time>
      </trkpt>
      <trkpt lat="45.20825" lon="3.42312">
        <ele>686.009</ele>
        <time>2020-08-21T07:19:05Z</time>
      </trkpt>
      <trkpt lat="45.20825" lon="3.42312">
        <ele>685.987</ele>
        <time>2020-08-21T07:19:06Z</time>
      </trkpt>
      <trkpt lat="45.20825" lon="3.42312">
        <ele>686.02</ele>
        <time>2020-08-21T07:19:07Z</time>
      </trkpt>
      <trkpt lat="45.20825" lon="3.42312">
        <ele>685.854</ele>
        <time>2020-08-21T07:19:16Z</time>
      </trkpt>
      <trkpt lat="45.20824" lon="3.4231">
        <ele>685.925</ele>
        <time>2020-08-21T07:19:17Z</time>
      </trkpt>
      <trkpt lat="45.20824" lon="3.4231">
        <ele>685.93</ele>
        <time>2020-08-21T07:19:18Z</time>
      </trkpt>
      <trkpt lat="45.20824" lon="3.4231">
        <ele>685.873</ele>
        <time>2020-08-21T07:19:38Z</time>
      </trkpt>
      <trkpt lat="45.20825" lon="3.42311">
        <ele>685.499</ele>
        <time>2020-08-21T07:19:39Z</time>
      </trkpt>
      <trkpt lat="45.20825" lon="3.42311">
        <ele>685.597</ele>
        <time>2020-08-21T07:19:40Z</time>
      </trkpt>
      <trkpt lat="45.20825" lon="3.42311">
        <ele>685.637</ele>
        <time>2020-08-21T07:20:27Z</time>
      </trkpt>
      <trkpt lat="45.20825" lon="3.42311">
        <ele>685.552</ele>
        <time>2020-08-21T07:20:28Z</time>
      </trkpt>
      <trkpt lat="45.20825" lon="3.42311">
        <ele>685.247</ele>
        <time>2020-08-21T07:20:29Z</time>
      </trkpt>
      <trkpt lat="45.20825" lon="3.42311">
        <ele>686.045</ele>
        <time>2020-08-21T07:22:08Z</time>
      </trkpt>
      <trkpt lat="45.20824" lon="3.42312">
        <ele>686.073</ele>
        <time>2020-08-21T07:22:09Z</time>
      </trkpt>
      <trkpt lat="45.20824" lon="3.42313">
        <ele>686.237</ele>
        <time>2020-08-21T07:22:10Z</time>
      </trkpt>
      <trkpt lat="45.20824" lon="3.42312">
        <ele>686.463</ele>
        <time>2020-08-21T07:22:13Z</time>
      </trkpt>
      <trkpt lat="45.20824" lon="3.42312">
        <ele>686.992</ele>
        <time>2020-08-21T07:22:15Z</time>
      </trkpt>
      <trkpt lat="45.20824" lon="3.42312">
        <ele>687.268</ele>
        <time>2020-08-21T07:22:18Z</time>
      </trkpt>
      <trkpt lat="45.20824" lon="3.42312">
        <ele>687.211</ele>
        <time>2020-08-21T07:22:51Z</time>
      </trkpt>
      <trkpt lat="45.20824" lon="3.42312">
        <ele>687.189</ele>
        <time>2020-08-21T07:22:52Z</time>
      </trkpt>
      <trkpt lat="45.20824" lon="3.42313">
        <ele>686.497</ele>
        <time>2020-08-21T07:22:54Z</time>
      </trkpt>
      <trkpt lat="45.20823" lon="3.42317">
        <ele>686.691</ele>
        <time>2020-08-21T07:22:58Z</time>
      </trkpt>
      <trkpt lat="45.20823" lon="3.42318">
        <ele>686.498</ele>
        <time>2020-08-21T07:23:01Z</time>
      </trkpt>
      <trkpt lat="45.20813" lon="3.4235">
        <ele>687.469</ele>
        <time>2020-08-21T07:23:29Z</time>
      </trkpt>
      <trkpt lat="45.20805" lon="3.42369">
        <ele>689.585</ele>
        <time>2020-08-21T07:23:44Z</time>
      </trkpt>
      <trkpt lat="45.20793" lon="3.42397">
        <ele>691.586</ele>
        <time>2020-08-21T07:24:06Z</time>
      </trkpt>
      <trkpt lat="45.20769" lon="3.42466">
        <ele>692.895</ele>
        <time>2020-08-21T07:24:58Z</time>
      </trkpt>
      <trkpt lat="45.20735" lon="3.42513">
        <ele>694.44</ele>
        <time>2020-08-21T07:25:45Z</time>
      </trkpt>
      <trkpt lat="45.20711" lon="3.42535">
        <ele>696.558</ele>
        <time>2020-08-21T07:26:09Z</time>
      </trkpt>
      <trkpt lat="45.20699" lon="3.42554">
        <ele>697.679</ele>
        <time>2020-08-21T07:26:26Z</time>
      </trkpt>
      <trkpt lat="45.20696" lon="3.42561">
        <ele>697.984</ele>
        <time>2020-08-21T07:26:32Z</time>
      </trkpt>
      <trkpt lat="45.20701" lon="3.42572">
        <ele>697.977</ele>
        <time>2020-08-21T07:26:43Z</time>
      </trkpt>
      <trkpt lat="45.20712" lon="3.42595">
        <ele>700.119</ele>
        <time>2020-08-21T07:27:05Z</time>
      </trkpt>
      <trkpt lat="45.20727" lon="3.42625">
        <ele>700.796</ele>
        <time>2020-08-21T07:27:32Z</time>
      </trkpt>
      <trkpt lat="45.20741" lon="3.4265">
        <ele>701.335</ele>
        <time>2020-08-21T07:27:56Z</time>
      </trkpt>
      <trkpt lat="45.20742" lon="3.42651">
        <ele>701.452</ele>
        <time>2020-08-21T07:27:57Z</time>
      </trkpt>
      <trkpt lat="45.20744" lon="3.42655">
        <ele>701.314</ele>
        <time>2020-08-21T07:28:01Z</time>
      </trkpt>
      <trkpt lat="45.20759" lon="3.42694">
        <ele>703.32</ele>
        <time>2020-08-21T07:28:29Z</time>
      </trkpt>
      <trkpt lat="45.2076" lon="3.42697">
        <ele>703.437</ele>
        <time>2020-08-21T07:28:32Z</time>
      </trkpt>
      <trkpt lat="45.2076" lon="3.42698">
        <ele>703.531</ele>
        <time>2020-08-21T07:28:33Z</time>
      </trkpt>
      <trkpt lat="45.20762" lon="3.42703">
        <ele>703.021</ele>
        <time>2020-08-21T07:28:36Z</time>
      </trkpt>
      <trkpt lat="45.20763" lon="3.4271">
        <ele>703.293</ele>
        <time>2020-08-21T07:28:39Z</time>
      </trkpt>
      <trkpt lat="45.20763" lon="3.42714">
        <ele>703.749</ele>
        <time>2020-08-21T07:28:42Z</time>
      </trkpt>
      <trkpt lat="45.20763" lon="3.42715">
        <ele>703.917</ele>
        <time>2020-08-21T07:28:43Z</time>
      </trkpt>
      <trkpt lat="45.20764" lon="3.4272">
        <ele>704.819</ele>
        <time>2020-08-21T07:28:46Z</time>
      </trkpt>
      <trkpt lat="45.20764" lon="3.42725">
        <ele>704.794</ele>
        <time>2020-08-21T07:28:49Z</time>
      </trkpt>
      <trkpt lat="45.20758" lon="3.4273">
        <ele>706.922</ele>
        <time>2020-08-21T07:28:59Z</time>
      </trkpt>
      <trkpt lat="45.20755" lon="3.42732">
        <ele>707.394</ele>
        <time>2020-08-21T07:29:05Z</time>
      </trkpt>
      <trkpt lat="45.20747" lon="3.42735">
        <ele>708.718</ele>
        <time>2020-08-21T07:29:16Z</time>
      </trkpt>
      <trkpt lat="45.20746" lon="3.42736">
        <ele>708.739</ele>
        <time>2020-08-21T07:29:17Z</time>
      </trkpt>
      <trkpt lat="45.20746" lon="3.42736">
        <ele>709.069</ele>
        <time>2020-08-21T07:29:18Z</time>
      </trkpt>
      <trkpt lat="45.20738" lon="3.42735">
        <ele>710.403</ele>
        <time>2020-08-21T07:29:27Z</time>
      </trkpt>
      <trkpt lat="45.20737" lon="3.42735">
        <ele>710.239</ele>
        <time>2020-08-21T07:29:28Z</time>
      </trkpt>
      <trkpt lat="45.20727" lon="3.42733">
        <ele>712.294</ele>
        <time>2020-08-21T07:29:40Z</time>
      </trkpt>
      <trkpt lat="45.20719" lon="3.42733">
        <ele>712.711</ele>
        <time>2020-08-21T07:29:48Z</time>
      </trkpt>
      <trkpt lat="45.20711" lon="3.42734">
        <ele>714.957</ele>
        <time>2020-08-21T07:29:59Z</time>
      </trkpt>
      <trkpt lat="45.20702" lon="3.42734">
        <ele>717.246</ele>
        <time>2020-08-21T07:30:08Z</time>
      </trkpt>
      <trkpt lat="45.20699" lon="3.42733">
        <ele>717.901</ele>
        <time>2020-08-21T07:30:11Z</time>
      </trkpt>
      <trkpt lat="45.20678" lon="3.42735">
        <ele>720.254</ele>
        <time>2020-08-21T07:30:34Z</time>
      </trkpt>
      <trkpt lat="45.20656" lon="3.42739">
        <ele>722.417</ele>
        <time>2020-08-21T07:30:55Z</time>
      </trkpt>
      <trkpt lat="45.20646" lon="3.42745">
        <ele>723.712</ele>
        <time>2020-08-21T07:31:04Z</time>
      </trkpt>
      <trkpt lat="45.20624" lon="3.42767">
        <ele>724.396</ele>
        <time>2020-08-21T07:31:35Z</time>
      </trkpt>
      <trkpt lat="45.20622" lon="3.42768">
        <ele>724.789</ele>
        <time>2020-08-21T07:31:37Z</time>
      </trkpt>
      <trkpt lat="45.20609" lon="3.42777">
        <ele>725.648</ele>
        <time>2020-08-21T07:31:52Z</time>
      </trkpt>
      <trkpt lat="45.20606" lon="3.42778">
        <ele>726.075</ele>
        <time>2020-08-21T07:31:55Z</time>
      </trkpt>
      <trkpt lat="45.20604" lon="3.42779">
        <ele>726.549</ele>
        <time>2020-08-21T07:31:57Z</time>
      </trkpt>
      <trkpt lat="45.20603" lon="3.42779">
        <ele>726.715</ele>
        <time>2020-08-21T07:31:58Z</time>
      </trkpt>
      <trkpt lat="45.206" lon="3.4278">
        <ele>726.949</ele>
        <time>2020-08-21T07:32:00Z</time>
      </trkpt>
      <trkpt lat="45.20576" lon="3.42788">
        <ele>727.615</ele>
        <time>2020-08-21T07:32:20Z</time>
      </trkpt>
      <trkpt lat="45.20573" lon="3.42788">
        <ele>727.737</ele>
        <time>2020-08-21T07:32:22Z</time>
      </trkpt>
      <trkpt lat="45.20553" lon="3.42791">
        <ele>728.258</ele>
        <time>2020-08-21T07:32:41Z</time>
      </trkpt>
      <trkpt lat="45.2055" lon="3.42794">
        <ele>729.025</ele>
        <time>2020-08-21T07:32:45Z</time>
      </trkpt>
      <trkpt lat="45.20548" lon="3.42797">
        <ele>729.827</ele>
        <time>2020-08-21T07:32:51Z</time>
      </trkpt>
      <trkpt lat="45.20548" lon="3.42797">
        <ele>730.027</ele>
        <time>2020-08-21T07:32:54Z</time>
      </trkpt>
      <trkpt lat="45.20546" lon="3.42797">
        <ele>730.428</ele>
        <time>2020-08-21T07:32:55Z</time>
      </trkpt>
      <trkpt lat="45.20544" lon="3.42797">
        <ele>730.163</ele>
        <time>2020-08-21T07:32:57Z</time>
      </trkpt>
      <trkpt lat="45.20537" lon="3.42796">
        <ele>730.419</ele>
        <time>2020-08-21T07:33:02Z</time>
      </trkpt>
      <trkpt lat="45.20534" lon="3.42797">
        <ele>731.071</ele>
        <time>2020-08-21T07:33:05Z</time>
      </trkpt>
      <trkpt lat="45.20528" lon="3.42798">
        <ele>731.758</ele>
        <time>2020-08-21T07:33:12Z</time>
      </trkpt>
      <trkpt lat="45.20527" lon="3.42799">
        <ele>731.781</ele>
        <time>2020-08-21T07:33:15Z</time>
      </trkpt>
      <trkpt lat="45.20527" lon="3.428">
        <ele>731.965</ele>
        <time>2020-08-21T07:33:17Z</time>
      </trkpt>
      <trkpt lat="45.20526" lon="3.42801">
        <ele>732.254</ele>
        <time>2020-08-21T07:33:18Z</time>
      </trkpt>
      <trkpt lat="45.20525" lon="3.42804">
        <ele>732.776</ele>
        <time>2020-08-21T07:33:21Z</time>
      </trkpt>
      <trkpt lat="45.20525" lon="3.42804">
        <ele>732.487</ele>
        <time>2020-08-21T07:33:22Z</time>
      </trkpt>
      <trkpt lat="45.20521" lon="3.42803">
        <ele>731.762</ele>
        <time>2020-08-21T07:33:27Z</time>
      </trkpt>
      <trkpt lat="45.2052" lon="3.42803">
        <ele>732.014</ele>
        <time>2020-08-21T07:33:28Z</time>
      </trkpt>
      <trkpt lat="45.20518" lon="3.42804">
        <ele>732.892</ele>
        <time>2020-08-21T07:33:31Z</time>
      </trkpt>
      <trkpt lat="45.20516" lon="3.42807">
        <ele>733.157</ele>
        <time>2020-08-21T07:33:34Z</time>
      </trkpt>
      <trkpt lat="45.20513" lon="3.42809">
        <ele>733.551</ele>
        <time>2020-08-21T07:33:38Z</time>
      </trkpt>
      <trkpt lat="45.2051" lon="3.42812">
        <ele>735.017</ele>
        <time>2020-08-21T07:33:42Z</time>
      </trkpt>
      <trkpt lat="45.20507" lon="3.42813">
        <ele>734.891</ele>
        <time>2020-08-21T07:33:47Z</time>
      </trkpt>
      <trkpt lat="45.20507" lon="3.42813">
        <ele>734.924</ele>
        <time>2020-08-21T07:33:49Z</time>
      </trkpt>
      <trkpt lat="45.20506" lon="3.42815">
        <ele>735.193</ele>
        <time>2020-08-21T07:33:52Z</time>
      </trkpt>
      <trkpt lat="45.20505" lon="3.42815">
        <ele>735.315</ele>
        <time>2020-08-21T07:33:54Z</time>
      </trkpt>
      <trkpt lat="45.20501" lon="3.42817">
        <ele>735.076</ele>
        <time>2020-08-21T07:33:58Z</time>
      </trkpt>
      <trkpt lat="45.205" lon="3.42818">
        <ele>735.131</ele>
        <time>2020-08-21T07:34:00Z</time>
      </trkpt>
      <trkpt lat="45.20499" lon="3.42819">
        <ele>735.131</ele>
        <time>2020-08-21T07:34:02Z</time>
      </trkpt>
      <trkpt lat="45.20499" lon="3.4282">
        <ele>735.478</ele>
        <time>2020-08-21T07:34:03Z</time>
      </trkpt>
      <trkpt lat="45.20498" lon="3.4282">
        <ele>735.918</ele>
        <time>2020-08-21T07:34:04Z</time>
      </trkpt>
      <trkpt lat="45.20497" lon="3.42821">
        <ele>736.235</ele>
        <time>2020-08-21T07:34:06Z</time>
      </trkpt>
      <trkpt lat="45.20494" lon="3.42822">
        <ele>736.699</ele>
        <time>2020-08-21T07:34:08Z</time>
      </trkpt>
      <trkpt lat="45.2049" lon="3.42823">
        <ele>737.331</ele>
        <time>2020-08-21T07:34:10Z</time>
      </trkpt>
      <trkpt lat="45.20489" lon="3.42825">
        <ele>737.741</ele>
        <time>2020-08-21T07:34:12Z</time>
      </trkpt>
      <trkpt lat="45.20488" lon="3.42826">
        <ele>737.869</ele>
        <time>2020-08-21T07:34:13Z</time>
      </trkpt>
      <trkpt lat="45.20487" lon="3.4283">
        <ele>738.13</ele>
        <time>2020-08-21T07:34:16Z</time>
      </trkpt>
      <trkpt lat="45.20486" lon="3.42841">
        <ele>737.403</ele>
        <time>2020-08-21T07:34:22Z</time>
      </trkpt>
      <trkpt lat="45.20486" lon="3.42842">
        <ele>737.348</ele>
        <time>2020-08-21T07:34:23Z</time>
      </trkpt>
      <trkpt lat="45.20483" lon="3.42843">
        <ele>738.029</ele>
        <time>2020-08-21T07:34:26Z</time>
      </trkpt>
      <trkpt lat="45.20481" lon="3.42846">
        <ele>738.689</ele>
        <time>2020-08-21T07:34:30Z</time>
      </trkpt>
      <trkpt lat="45.20478" lon="3.42872">
        <ele>740.734</ele>
        <time>2020-08-21T07:34:49Z</time>
      </trkpt>
      <trkpt lat="45.20477" lon="3.42872">
        <ele>740.513</ele>
        <time>2020-08-21T07:34:50Z</time>
      </trkpt>
      <trkpt lat="45.20477" lon="3.42873">
        <ele>740.841</ele>
        <time>2020-08-21T07:34:51Z</time>
      </trkpt>
      <trkpt lat="45.20476" lon="3.42874">
        <ele>741.186</ele>
        <time>2020-08-21T07:34:52Z</time>
      </trkpt>
      <trkpt lat="45.20473" lon="3.42877">
        <ele>742.058</ele>
        <time>2020-08-21T07:34:56Z</time>
      </trkpt>
      <trkpt lat="45.20471" lon="3.42881">
        <ele>741.84</ele>
        <time>2020-08-21T07:34:59Z</time>
      </trkpt>
      <trkpt lat="45.20469" lon="3.42893">
        <ele>742.439</ele>
        <time>2020-08-21T07:35:05Z</time>
      </trkpt>
      <trkpt lat="45.2047" lon="3.42894">
        <ele>742.195</ele>
        <time>2020-08-21T07:35:06Z</time>
      </trkpt>
      <trkpt lat="45.2047" lon="3.42897">
        <ele>742.108</ele>
        <time>2020-08-21T07:35:09Z</time>
      </trkpt>
      <trkpt lat="45.20469" lon="3.42899">
        <ele>741.765</ele>
        <time>2020-08-21T07:35:11Z</time>
      </trkpt>
      <trkpt lat="45.20469" lon="3.42903">
        <ele>741.837</ele>
        <time>2020-08-21T07:35:14Z</time>
      </trkpt>
      <trkpt lat="45.20469" lon="3.42907">
        <ele>741.614</ele>
        <time>2020-08-21T07:35:16Z</time>
      </trkpt>
      <trkpt lat="45.20468" lon="3.42912">
        <ele>741.191</ele>
        <time>2020-08-21T07:35:22Z</time>
      </trkpt>
      <trkpt lat="45.20463" lon="3.42922">
        <ele>741.635</ele>
        <time>2020-08-21T07:35:27Z</time>
      </trkpt>
      <trkpt lat="45.2046" lon="3.42932">
        <ele>741.766</ele>
        <time>2020-08-21T07:35:31Z</time>
      </trkpt>
      <trkpt lat="45.20455" lon="3.42936">
        <ele>742.778</ele>
        <time>2020-08-21T07:35:37Z</time>
      </trkpt>
      <trkpt lat="45.2045" lon="3.42942">
        <ele>742.589</ele>
        <time>2020-08-21T07:35:40Z</time>
      </trkpt>
      <trkpt lat="45.20447" lon="3.42944">
        <ele>742.491</ele>
        <time>2020-08-21T07:35:41Z</time>
      </trkpt>
      <trkpt lat="45.20442" lon="3.42948">
        <ele>743.301</ele>
        <time>2020-08-21T07:35:45Z</time>
      </trkpt>
      <trkpt lat="45.20441" lon="3.42949">
        <ele>743.369</ele>
        <time>2020-08-21T07:35:47Z</time>
      </trkpt>
      <trkpt lat="45.20439" lon="3.42951">
        <ele>743.647</ele>
        <time>2020-08-21T07:35:50Z</time>
      </trkpt>
      <trkpt lat="45.20439" lon="3.42953">
        <ele>743.638</ele>
        <time>2020-08-21T07:35:51Z</time>
      </trkpt>
      <trkpt lat="45.20438" lon="3.42956">
        <ele>743.556</ele>
        <time>2020-08-21T07:35:54Z</time>
      </trkpt>
      <trkpt lat="45.20436" lon="3.42959">
        <ele>744.205</ele>
        <time>2020-08-21T07:35:59Z</time>
      </trkpt>
      <trkpt lat="45.20433" lon="3.42961">
        <ele>744.666</ele>
        <time>2020-08-21T07:36:03Z</time>
      </trkpt>
      <trkpt lat="45.20432" lon="3.42962">
        <ele>745.094</ele>
        <time>2020-08-21T07:36:05Z</time>
      </trkpt>
      <trkpt lat="45.20431" lon="3.42963">
        <ele>745.122</ele>
        <time>2020-08-21T07:36:06Z</time>
      </trkpt>
      <trkpt lat="45.20429" lon="3.42966">
        <ele>745.691</ele>
        <time>2020-08-21T07:36:10Z</time>
      </trkpt>
      <trkpt lat="45.20429" lon="3.42966">
        <ele>745.532</ele>
        <time>2020-08-21T07:36:11Z</time>
      </trkpt>
      <trkpt lat="45.20427" lon="3.42969">
        <ele>745.43</ele>
        <time>2020-08-21T07:36:14Z</time>
      </trkpt>
      <trkpt lat="45.20425" lon="3.42971">
        <ele>745.595</ele>
        <time>2020-08-21T07:36:17Z</time>
      </trkpt>
      <trkpt lat="45.20423" lon="3.42975">
        <ele>746.127</ele>
        <time>2020-08-21T07:36:20Z</time>
      </trkpt>
      <trkpt lat="45.20418" lon="3.42981">
        <ele>746.601</ele>
        <time>2020-08-21T07:36:24Z</time>
      </trkpt>
      <trkpt lat="45.20409" lon="3.42989">
        <ele>746.812</ele>
        <time>2020-08-21T07:36:30Z</time>
      </trkpt>
      <trkpt lat="45.20407" lon="3.42993">
        <ele>746.693</ele>
        <time>2020-08-21T07:36:33Z</time>
      </trkpt>
      <trkpt lat="45.20405" lon="3.42995">
        <ele>746.233</ele>
        <time>2020-08-21T07:36:36Z</time>
      </trkpt>
      <trkpt lat="45.20402" lon="3.42997">
        <ele>747.075</ele>
        <time>2020-08-21T07:36:39Z</time>
      </trkpt>
      <trkpt lat="45.20401" lon="3.43">
        <ele>747.028</ele>
        <time>2020-08-21T07:36:41Z</time>
      </trkpt>
      <trkpt lat="45.204" lon="3.43001">
        <ele>746.777</ele>
        <time>2020-08-21T07:36:43Z</time>
      </trkpt>
      <trkpt lat="45.204" lon="3.43002">
        <ele>746.759</ele>
        <time>2020-08-21T07:36:44Z</time>
      </trkpt>
      <trkpt lat="45.20399" lon="3.43003">
        <ele>746.771</ele>
        <time>2020-08-21T07:36:45Z</time>
      </trkpt>
      <trkpt lat="45.20399" lon="3.43004">
        <ele>746.781</ele>
        <time>2020-08-21T07:36:46Z</time>
      </trkpt>
      <trkpt lat="45.20397" lon="3.43005">
        <ele>746.653</ele>
        <time>2020-08-21T07:36:49Z</time>
      </trkpt>
      <trkpt lat="45.20397" lon="3.43005">
        <ele>746.653</ele>
        <time>2020-08-21T07:36:49Z</time>
      </trkpt>
      <trkpt lat="45.20396" lon="3.43007">
        <ele>746.734</ele>
        <time>2020-08-21T07:36:50Z</time>
      </trkpt>
      <trkpt lat="45.20394" lon="3.43011">
        <ele>746.7</ele>
        <time>2020-08-21T07:36:54Z</time>
      </trkpt>
      <trkpt lat="45.20393" lon="3.43013">
        <ele>746.435</ele>
        <time>2020-08-21T07:36:56Z</time>
      </trkpt>
      <trkpt lat="45.20393" lon="3.43013">
        <ele>746.472</ele>
        <time>2020-08-21T07:36:57Z</time>
      </trkpt>
      <trkpt lat="45.20372" lon="3.43027">
        <ele>747.531</ele>
        <time>2020-08-21T07:37:21Z</time>
      </trkpt>
      <trkpt lat="45.20369" lon="3.43028">
        <ele>747.525</ele>
        <time>2020-08-21T07:37:24Z</time>
      </trkpt>
      <trkpt lat="45.20367" lon="3.43031">
        <ele>747.736</ele>
        <time>2020-08-21T07:37:27Z</time>
      </trkpt>
      <trkpt lat="45.20363" lon="3.43039">
        <ele>747.486</ele>
        <time>2020-08-21T07:37:31Z</time>
      </trkpt>
      <trkpt lat="45.20361" lon="3.43045">
        <ele>747.301</ele>
        <time>2020-08-21T07:37:35Z</time>
      </trkpt>
      <trkpt lat="45.20361" lon="3.43046">
        <ele>747.049</ele>
        <time>2020-08-21T07:37:36Z</time>
      </trkpt>
      <trkpt lat="45.20359" lon="3.4305">
        <ele>747.202</ele>
        <time>2020-08-21T07:37:39Z</time>
      </trkpt>
      <trkpt lat="45.20358" lon="3.43051">
        <ele>747.196</ele>
        <time>2020-08-21T07:37:40Z</time>
      </trkpt>
      <trkpt lat="45.20357" lon="3.43051">
        <ele>747.372</ele>
        <time>2020-08-21T07:37:41Z</time>
      </trkpt>
      <trkpt lat="45.20351" lon="3.43059">
        <ele>747.489</ele>
        <time>2020-08-21T07:37:46Z</time>
      </trkpt>
      <trkpt lat="45.20346" lon="3.43068">
        <ele>747.352</ele>
        <time>2020-08-21T07:37:50Z</time>
      </trkpt>
      <trkpt lat="45.20343" lon="3.43074">
        <ele>747.7</ele>
        <time>2020-08-21T07:37:54Z</time>
      </trkpt>
      <trkpt lat="45.20335" lon="3.43095">
        <ele>748.618</ele>
        <time>2020-08-21T07:38:08Z</time>
      </trkpt>
      <trkpt lat="45.20332" lon="3.43101">
        <ele>748.623</ele>
        <time>2020-08-21T07:38:12Z</time>
      </trkpt>
      <trkpt lat="45.20329" lon="3.43107">
        <ele>748.919</ele>
        <time>2020-08-21T07:38:17Z</time>
      </trkpt>
      <trkpt lat="45.20322" lon="3.43128">
        <ele>748.488</ele>
        <time>2020-08-21T07:38:35Z</time>
      </trkpt>
      <trkpt lat="45.20322" lon="3.43129">
        <ele>748.734</ele>
        <time>2020-08-21T07:38:36Z</time>
      </trkpt>
      <trkpt lat="45.2032" lon="3.43144">
        <ele>749.601</ele>
        <time>2020-08-21T07:38:44Z</time>
      </trkpt>
      <trkpt lat="45.20318" lon="3.43147">
        <ele>749.684</ele>
        <time>2020-08-21T07:38:47Z</time>
      </trkpt>
      <trkpt lat="45.20318" lon="3.4315">
        <ele>749.195</ele>
        <time>2020-08-21T07:38:49Z</time>
      </trkpt>
      <trkpt lat="45.20317" lon="3.43154">
        <ele>749.286</ele>
        <time>2020-08-21T07:38:52Z</time>
      </trkpt>
      <trkpt lat="45.20311" lon="3.43162">
        <ele>750.219</ele>
        <time>2020-08-21T07:39:00Z</time>
      </trkpt>
      <trkpt lat="45.2031" lon="3.43165">
        <ele>750.664</ele>
        <time>2020-08-21T07:39:03Z</time>
      </trkpt>
      <trkpt lat="45.20313" lon="3.43174">
        <ele>750.389</ele>
        <time>2020-08-21T07:39:11Z</time>
      </trkpt>
      <trkpt lat="45.20314" lon="3.43178">
        <ele>750.31</ele>
        <time>2020-08-21T07:39:14Z</time>
      </trkpt>
      <trkpt lat="45.20313" lon="3.43183">
        <ele>750.797</ele>
        <time>2020-08-21T07:39:17Z</time>
      </trkpt>
      <trkpt lat="45.20303" lon="3.43226">
        <ele>752.9</ele>
        <time>2020-08-21T07:39:50Z</time>
      </trkpt>
      <trkpt lat="45.20301" lon="3.43232">
        <ele>753.104</ele>
        <time>2020-08-21T07:39:55Z</time>
      </trkpt>
      <trkpt lat="45.203" lon="3.43236">
        <ele>753.8</ele>
        <time>2020-08-21T07:39:58Z</time>
      </trkpt>
      <trkpt lat="45.20294" lon="3.43255">
        <ele>755.945</ele>
        <time>2020-08-21T07:40:11Z</time>
      </trkpt>
      <trkpt lat="45.20292" lon="3.43264">
        <ele>756.16</ele>
        <time>2020-08-21T07:40:20Z</time>
      </trkpt>
      <trkpt lat="45.2029" lon="3.43269">
        <ele>756.929</ele>
        <time>2020-08-21T07:40:25Z</time>
      </trkpt>
      <trkpt lat="45.20287" lon="3.43272">
        <ele>757.209</ele>
        <time>2020-08-21T07:40:27Z</time>
      </trkpt>
      <trkpt lat="45.20284" lon="3.43274">
        <ele>758.184</ele>
        <time>2020-08-21T07:40:30Z</time>
      </trkpt>
      <trkpt lat="45.20284" lon="3.43274">
        <ele>758.291</ele>
        <time>2020-08-21T07:40:31Z</time>
      </trkpt>
      <trkpt lat="45.20282" lon="3.43275">
        <ele>758.855</ele>
        <time>2020-08-21T07:40:33Z</time>
      </trkpt>
      <trkpt lat="45.20277" lon="3.43279">
        <ele>760.254</ele>
        <time>2020-08-21T07:40:38Z</time>
      </trkpt>
      <trkpt lat="45.20266" lon="3.43291">
        <ele>762.329</ele>
        <time>2020-08-21T07:40:56Z</time>
      </trkpt>
      <trkpt lat="45.20264" lon="3.43294">
        <ele>762.124</ele>
        <time>2020-08-21T07:41:00Z</time>
      </trkpt>
      <trkpt lat="45.20262" lon="3.43296">
        <ele>761.907</ele>
        <time>2020-08-21T07:41:03Z</time>
      </trkpt>
      <trkpt lat="45.20261" lon="3.43298">
        <ele>762.123</ele>
        <time>2020-08-21T07:41:05Z</time>
      </trkpt>
      <trkpt lat="45.2026" lon="3.43299">
        <ele>762.161</ele>
        <time>2020-08-21T07:41:06Z</time>
      </trkpt>
      <trkpt lat="45.20257" lon="3.43304">
        <ele>762.316</ele>
        <time>2020-08-21T07:41:10Z</time>
      </trkpt>
      <trkpt lat="45.20256" lon="3.43304">
        <ele>762.31</ele>
        <time>2020-08-21T07:41:11Z</time>
      </trkpt>
      <trkpt lat="45.20248" lon="3.43314">
        <ele>763.226</ele>
        <time>2020-08-21T07:41:20Z</time>
      </trkpt>
      <trkpt lat="45.20245" lon="3.43317">
        <ele>763.278</ele>
        <time>2020-08-21T07:41:23Z</time>
      </trkpt>
      <trkpt lat="45.20241" lon="3.43325">
        <ele>763.539</ele>
        <time>2020-08-21T07:41:27Z</time>
      </trkpt>
      <trkpt lat="45.20236" lon="3.43337">
        <ele>763.775</ele>
        <time>2020-08-21T07:41:36Z</time>
      </trkpt>
      <trkpt lat="45.20235" lon="3.43342">
        <ele>763.797</ele>
        <time>2020-08-21T07:41:40Z</time>
      </trkpt>
      <trkpt lat="45.20234" lon="3.43342">
        <ele>763.593</ele>
        <time>2020-08-21T07:41:42Z</time>
      </trkpt>
      <trkpt lat="45.20234" lon="3.43346">
        <ele>762.67</ele>
        <time>2020-08-21T07:41:45Z</time>
      </trkpt>
      <trkpt lat="45.20227" lon="3.43364">
        <ele>761.728</ele>
        <time>2020-08-21T07:41:56Z</time>
      </trkpt>
      <trkpt lat="45.20205" lon="3.43386">
        <ele>761.954</ele>
        <time>2020-08-21T07:42:20Z</time>
      </trkpt>
      <trkpt lat="45.202" lon="3.43391">
        <ele>762.314</ele>
        <time>2020-08-21T07:42:25Z</time>
      </trkpt>
      <trkpt lat="45.20174" lon="3.43423">
        <ele>763.623</ele>
        <time>2020-08-21T07:42:56Z</time>
      </trkpt>
      <trkpt lat="45.20172" lon="3.43426">
        <ele>763.775</ele>
        <time>2020-08-21T07:42:59Z</time>
      </trkpt>
      <trkpt lat="45.20168" lon="3.4343">
        <ele>764.247</ele>
        <time>2020-08-21T07:43:02Z</time>
      </trkpt>
      <trkpt lat="45.20164" lon="3.43433">
        <ele>764.499</ele>
        <time>2020-08-21T07:43:05Z</time>
      </trkpt>
      <trkpt lat="45.20149" lon="3.4344">
        <ele>765.082</ele>
        <time>2020-08-21T07:43:18Z</time>
      </trkpt>
      <trkpt lat="45.20141" lon="3.43448">
        <ele>765.776</ele>
        <time>2020-08-21T07:43:25Z</time>
      </trkpt>
      <trkpt lat="45.2014" lon="3.4345">
        <ele>765.576</ele>
        <time>2020-08-21T07:43:27Z</time>
      </trkpt>
      <trkpt lat="45.20135" lon="3.43474">
        <ele>767.669</ele>
        <time>2020-08-21T07:43:44Z</time>
      </trkpt>
      <trkpt lat="45.20131" lon="3.43489">
        <ele>766.842</ele>
        <time>2020-08-21T07:43:55Z</time>
      </trkpt>
      <trkpt lat="45.20116" lon="3.43521">
        <ele>767.239</ele>
        <time>2020-08-21T07:44:21Z</time>
      </trkpt>
      <trkpt lat="45.20111" lon="3.43538">
        <ele>766.929</ele>
        <time>2020-08-21T07:44:33Z</time>
      </trkpt>
      <trkpt lat="45.20085" lon="3.43618">
        <ele>764.796</ele>
        <time>2020-08-21T07:45:23Z</time>
      </trkpt>
      <trkpt lat="45.20063" lon="3.43709">
        <ele>762.975</ele>
        <time>2020-08-21T07:46:17Z</time>
      </trkpt>
      <trkpt lat="45.20061" lon="3.43725">
        <ele>761.601</ele>
        <time>2020-08-21T07:46:29Z</time>
      </trkpt>
      <trkpt lat="45.20059" lon="3.43742">
        <ele>761.43</ele>
        <time>2020-08-21T07:46:40Z</time>
      </trkpt>
      <trkpt lat="45.20058" lon="3.4375">
        <ele>761.617</ele>
        <time>2020-08-21T07:46:44Z</time>
      </trkpt>
      <trkpt lat="45.20056" lon="3.4376">
        <ele>760.991</ele>
        <time>2020-08-21T07:46:50Z</time>
      </trkpt>
      <trkpt lat="45.20052" lon="3.43778">
        <ele>760.929</ele>
        <time>2020-08-21T07:46:59Z</time>
      </trkpt>
      <trkpt lat="45.2005" lon="3.4382">
        <ele>758.845</ele>
        <time>2020-08-21T07:47:25Z</time>
      </trkpt>
      <trkpt lat="45.20055" lon="3.43838">
        <ele>757.64</ele>
        <time>2020-08-21T07:47:38Z</time>
      </trkpt>
      <trkpt lat="45.20057" lon="3.43842">
        <ele>757.569</ele>
        <time>2020-08-21T07:47:41Z</time>
      </trkpt>
      <trkpt lat="45.20058" lon="3.43847">
        <ele>757.211</ele>
        <time>2020-08-21T07:47:44Z</time>
      </trkpt>
      <trkpt lat="45.20067" lon="3.4388">
        <ele>756.735</ele>
        <time>2020-08-21T07:48:07Z</time>
      </trkpt>
      <trkpt lat="45.20067" lon="3.43895">
        <ele>756.013</ele>
        <time>2020-08-21T07:48:15Z</time>
      </trkpt>
      <trkpt lat="45.2006" lon="3.43911">
        <ele>755.517</ele>
        <time>2020-08-21T07:48:24Z</time>
      </trkpt>
      <trkpt lat="45.20014" lon="3.43994">
        <ele>753.437</ele>
        <time>2020-08-21T07:49:27Z</time>
      </trkpt>
      <trkpt lat="45.20005" lon="3.44015">
        <ele>751.386</ele>
        <time>2020-08-21T07:49:42Z</time>
      </trkpt>
      <trkpt lat="45.19987" lon="3.44063">
        <ele>749.357</ele>
        <time>2020-08-21T07:50:15Z</time>
      </trkpt>
      <trkpt lat="45.19942" lon="3.44174">
        <ele>747.92</ele>
        <time>2020-08-21T07:51:30Z</time>
      </trkpt>
      <trkpt lat="45.19936" lon="3.44197">
        <ele>747.319</ele>
        <time>2020-08-21T07:51:46Z</time>
      </trkpt>
      <trkpt lat="45.19918" lon="3.44306">
        <ele>745.166</ele>
        <time>2020-08-21T07:52:47Z</time>
      </trkpt>
      <trkpt lat="45.19909" lon="3.4435">
        <ele>744.235</ele>
        <time>2020-08-21T07:53:16Z</time>
      </trkpt>
      <trkpt lat="45.19903" lon="3.4436">
        <ele>743.574</ele>
        <time>2020-08-21T07:53:26Z</time>
      </trkpt>
      <trkpt lat="45.1989" lon="3.44379">
        <ele>742.879</ele>
        <time>2020-08-21T07:53:41Z</time>
      </trkpt>
      <trkpt lat="45.19889" lon="3.4438">
        <ele>742.77</ele>
        <time>2020-08-21T07:53:42Z</time>
      </trkpt>
      <trkpt lat="45.19886" lon="3.44385">
        <ele>742.482</ele>
        <time>2020-08-21T07:53:46Z</time>
      </trkpt>
      <trkpt lat="45.19872" lon="3.44399">
        <ele>740.33</ele>
        <time>2020-08-21T07:54:00Z</time>
      </trkpt>
      <trkpt lat="45.19869" lon="3.44403">
        <ele>739.697</ele>
        <time>2020-08-21T07:54:02Z</time>
      </trkpt>
      <trkpt lat="45.19861" lon="3.44419">
        <ele>739.118</ele>
        <time>2020-08-21T07:54:11Z</time>
      </trkpt>
      <trkpt lat="45.19854" lon="3.44428">
        <ele>738.376</ele>
        <time>2020-08-21T07:54:21Z</time>
      </trkpt>
      <trkpt lat="45.19852" lon="3.44427">
        <ele>737.978</ele>
        <time>2020-08-21T07:54:25Z</time>
      </trkpt>
      <trkpt lat="45.19849" lon="3.44428">
        <ele>737.456</ele>
        <time>2020-08-21T07:54:29Z</time>
      </trkpt>
      <trkpt lat="45.19848" lon="3.44428">
        <ele>737.434</ele>
        <time>2020-08-21T07:54:30Z</time>
      </trkpt>
      <trkpt lat="45.19848" lon="3.44428">
        <ele>737.434</ele>
        <time>2020-08-21T07:54:30Z</time>
      </trkpt>
      <trkpt lat="45.19848" lon="3.44428">
        <ele>737.446</ele>
        <time>2020-08-21T07:54:31Z</time>
      </trkpt>
      <trkpt lat="45.19848" lon="3.44428">
        <ele>737.446</ele>
        <time>2020-08-21T07:54:31Z</time>
      </trkpt>
      <trkpt lat="45.19848" lon="3.44429">
        <ele>737.383</ele>
        <time>2020-08-21T07:54:32Z</time>
      </trkpt>
      <trkpt lat="45.19848" lon="3.44429">
        <ele>737.341</ele>
        <time>2020-08-21T07:54:33Z</time>
      </trkpt>
      <trkpt lat="45.19848" lon="3.44429">
        <ele>737.435</ele>
        <time>2020-08-21T07:54:34Z</time>
      </trkpt>
      <trkpt lat="45.19848" lon="3.44429">
        <ele>737.492</ele>
        <time>2020-08-21T07:54:35Z</time>
      </trkpt>
      <trkpt lat="45.19847" lon="3.44429">
        <ele>737.619</ele>
        <time>2020-08-21T07:54:36Z</time>
      </trkpt>
      <trkpt lat="45.19847" lon="3.44429">
        <ele>737.745</ele>
        <time>2020-08-21T07:54:37Z</time>
      </trkpt>
      <trkpt lat="45.19847" lon="3.44429">
        <ele>737.733</ele>
        <time>2020-08-21T07:54:38Z</time>
      </trkpt>
      <trkpt lat="45.19847" lon="3.44429">
        <ele>737.717</ele>
        <time>2020-08-21T07:54:51Z</time>
      </trkpt>
      <trkpt lat="45.19847" lon="3.44429">
        <ele>737.514</ele>
        <time>2020-08-21T07:54:52Z</time>
      </trkpt>
      <trkpt lat="45.19848" lon="3.44429">
        <ele>735.836</ele>
        <time>2020-08-21T07:54:57Z</time>
      </trkpt>
      <trkpt lat="45.19848" lon="3.44429">
        <ele>735.783</ele>
        <time>2020-08-21T07:54:58Z</time>
      </trkpt>
      <trkpt lat="45.19848" lon="3.44429">
        <ele>735.647</ele>
        <time>2020-08-21T07:55:15Z</time>
      </trkpt>
      <trkpt lat="45.19849" lon="3.44429">
        <ele>735.681</ele>
        <time>2020-08-21T07:55:16Z</time>
      </trkpt>
      <trkpt lat="45.1985" lon="3.4443">
        <ele>736.415</ele>
        <time>2020-08-21T07:55:19Z</time>
      </trkpt>
      <trkpt lat="45.1986" lon="3.44436">
        <ele>736.192</ele>
        <time>2020-08-21T07:55:29Z</time>
      </trkpt>
      <trkpt lat="45.19863" lon="3.44438">
        <ele>736.031</ele>
        <time>2020-08-21T07:55:32Z</time>
      </trkpt>
      <trkpt lat="45.19904" lon="3.44461">
        <ele>733.812</ele>
        <time>2020-08-21T07:56:06Z</time>
      </trkpt>
      <trkpt lat="45.19911" lon="3.44467">
        <ele>732.659</ele>
        <time>2020-08-21T07:56:16Z</time>
      </trkpt>
      <trkpt lat="45.19921" lon="3.44482">
        <ele>732.233</ele>
        <time>2020-08-21T07:56:28Z</time>
      </trkpt>
      <trkpt lat="45.19931" lon="3.44505">
        <ele>731.031</ele>
        <time>2020-08-21T07:56:44Z</time>
      </trkpt>
      <trkpt lat="45.19932" lon="3.4451">
        <ele>730.891</ele>
        <time>2020-08-21T07:56:48Z</time>
      </trkpt>
      <trkpt lat="45.19933" lon="3.44517">
        <ele>730.573</ele>
        <time>2020-08-21T07:56:53Z</time>
      </trkpt>
      <trkpt lat="45.19934" lon="3.44523">
        <ele>730.69</ele>
        <time>2020-08-21T07:56:57Z</time>
      </trkpt>
      <trkpt lat="45.19941" lon="3.44566">
        <ele>728.738</ele>
        <time>2020-08-21T07:57:20Z</time>
      </trkpt>
      <trkpt lat="45.19955" lon="3.44601">
        <ele>727.989</ele>
        <time>2020-08-21T07:57:43Z</time>
      </trkpt>
      <trkpt lat="45.19998" lon="3.44655">
        <ele>728.283</ele>
        <time>2020-08-21T07:58:28Z</time>
      </trkpt>
      <trkpt lat="45.20001" lon="3.44659">
        <ele>727.977</ele>
        <time>2020-08-21T07:58:32Z</time>
      </trkpt>
      <trkpt lat="45.20074" lon="3.44735">
        <ele>729.009</ele>
        <time>2020-08-21T07:59:48Z</time>
      </trkpt>
      <trkpt lat="45.20086" lon="3.44745">
        <ele>730.533</ele>
        <time>2020-08-21T07:59:59Z</time>
      </trkpt>
      <trkpt lat="45.20109" lon="3.44764">
        <ele>732.74</ele>
        <time>2020-08-21T08:00:21Z</time>
      </trkpt>
      <trkpt lat="45.20148" lon="3.44793">
        <ele>732.905</ele>
        <time>2020-08-21T08:00:55Z</time>
      </trkpt>
      <trkpt lat="45.20151" lon="3.44795">
        <ele>733.205</ele>
        <time>2020-08-21T08:00:58Z</time>
      </trkpt>
      <trkpt lat="45.20166" lon="3.44812">
        <ele>732.148</ele>
        <time>2020-08-21T08:01:13Z</time>
      </trkpt>
      <trkpt lat="45.20184" lon="3.44842">
        <ele>730.008</ele>
        <time>2020-08-21T08:01:38Z</time>
      </trkpt>
      <trkpt lat="45.2019" lon="3.44857">
        <ele>729.621</ele>
        <time>2020-08-21T08:01:51Z</time>
      </trkpt>
      <trkpt lat="45.20189" lon="3.44861">
        <ele>729.482</ele>
        <time>2020-08-21T08:01:54Z</time>
      </trkpt>
      <trkpt lat="45.20141" lon="3.4497">
        <ele>728.809</ele>
        <time>2020-08-21T08:03:17Z</time>
      </trkpt>
      <trkpt lat="45.20114" lon="3.45018">
        <ele>728.044</ele>
        <time>2020-08-21T08:03:57Z</time>
      </trkpt>
      <trkpt lat="45.20114" lon="3.45019">
        <ele>728.015</ele>
        <time>2020-08-21T08:03:58Z</time>
      </trkpt>
      <trkpt lat="45.20107" lon="3.45031">
        <ele>728.628</ele>
        <time>2020-08-21T08:04:08Z</time>
      </trkpt>
      <trkpt lat="45.20094" lon="3.45057">
        <ele>728.347</ele>
        <time>2020-08-21T08:04:26Z</time>
      </trkpt>
      <trkpt lat="45.20074" lon="3.45098">
        <ele>727.503</ele>
        <time>2020-08-21T08:04:58Z</time>
      </trkpt>
      <trkpt lat="45.20073" lon="3.45099">
        <ele>727.459</ele>
        <time>2020-08-21T08:04:59Z</time>
      </trkpt>
      <trkpt lat="45.20072" lon="3.45102">
        <ele>727.349</ele>
        <time>2020-08-21T08:05:01Z</time>
      </trkpt>
      <trkpt lat="45.20058" lon="3.45131">
        <ele>725.137</ele>
        <time>2020-08-21T08:05:23Z</time>
      </trkpt>
      <trkpt lat="45.20041" lon="3.45169">
        <ele>723.066</ele>
        <time>2020-08-21T08:05:52Z</time>
      </trkpt>
      <trkpt lat="45.20029" lon="3.45187">
        <ele>721.001</ele>
        <time>2020-08-21T08:06:09Z</time>
      </trkpt>
      <trkpt lat="45.2002" lon="3.45202">
        <ele>718.94</ele>
        <time>2020-08-21T08:06:20Z</time>
      </trkpt>
      <trkpt lat="45.20008" lon="3.45214">
        <ele>716.925</ele>
        <time>2020-08-21T08:06:34Z</time>
      </trkpt>
      <trkpt lat="45.19998" lon="3.45222">
        <ele>714.911</ele>
        <time>2020-08-21T08:06:46Z</time>
      </trkpt>
      <trkpt lat="45.19983" lon="3.45232">
        <ele>712.842</ele>
        <time>2020-08-21T08:07:00Z</time>
      </trkpt>
      <trkpt lat="45.19962" lon="3.45249">
        <ele>710.789</ele>
        <time>2020-08-21T08:07:18Z</time>
      </trkpt>
      <trkpt lat="45.1995" lon="3.45259">
        <ele>708.025</ele>
        <time>2020-08-21T08:07:27Z</time>
      </trkpt>
      <trkpt lat="45.1994" lon="3.45266">
        <ele>707.352</ele>
        <time>2020-08-21T08:07:39Z</time>
      </trkpt>
      <trkpt lat="45.19922" lon="3.45277">
        <ele>705.312</ele>
        <time>2020-08-21T08:07:54Z</time>
      </trkpt>
      <trkpt lat="45.19911" lon="3.45281">
        <ele>705.024</ele>
        <time>2020-08-21T08:08:05Z</time>
      </trkpt>
      <trkpt lat="45.19896" lon="3.45282">
        <ele>703.015</ele>
        <time>2020-08-21T08:08:22Z</time>
      </trkpt>
      <trkpt lat="45.19893" lon="3.45283">
        <ele>701.947</ele>
        <time>2020-08-21T08:08:27Z</time>
      </trkpt>
      <trkpt lat="45.19892" lon="3.45284">
        <ele>701.902</ele>
        <time>2020-08-21T08:08:28Z</time>
      </trkpt>
      <trkpt lat="45.1988" lon="3.45287">
        <ele>701.387</ele>
        <time>2020-08-21T08:08:38Z</time>
      </trkpt>
      <trkpt lat="45.19861" lon="3.45296">
        <ele>699.322</ele>
        <time>2020-08-21T08:08:56Z</time>
      </trkpt>
      <trkpt lat="45.19838" lon="3.45304">
        <ele>697.951</ele>
        <time>2020-08-21T08:09:16Z</time>
      </trkpt>
      <trkpt lat="45.19831" lon="3.45308">
        <ele>698.679</ele>
        <time>2020-08-21T08:09:21Z</time>
      </trkpt>
      <trkpt lat="45.19814" lon="3.45322">
        <ele>698.098</ele>
        <time>2020-08-21T08:09:34Z</time>
      </trkpt>
      <trkpt lat="45.1979" lon="3.45379">
        <ele>696.095</ele>
        <time>2020-08-21T08:10:13Z</time>
      </trkpt>
      <trkpt lat="45.19788" lon="3.45385">
        <ele>695.286</ele>
        <time>2020-08-21T08:10:20Z</time>
      </trkpt>
      <trkpt lat="45.19787" lon="3.45388">
        <ele>695.101</ele>
        <time>2020-08-21T08:10:22Z</time>
      </trkpt>
      <trkpt lat="45.1978" lon="3.45404">
        <ele>695.208</ele>
        <time>2020-08-21T08:10:33Z</time>
      </trkpt>
      <trkpt lat="45.19768" lon="3.45408">
        <ele>696.959</ele>
        <time>2020-08-21T08:10:42Z</time>
      </trkpt>
      <trkpt lat="45.19765" lon="3.45408">
        <ele>697.67</ele>
        <time>2020-08-21T08:10:44Z</time>
      </trkpt>
      <trkpt lat="45.19746" lon="3.45403">
        <ele>699.865</ele>
        <time>2020-08-21T08:11:01Z</time>
      </trkpt>
      <trkpt lat="45.19708" lon="3.45392">
        <ele>699.592</ele>
        <time>2020-08-21T08:11:31Z</time>
      </trkpt>
      <trkpt lat="45.1967" lon="3.45377">
        <ele>701.099</ele>
        <time>2020-08-21T08:12:02Z</time>
      </trkpt>
      <trkpt lat="45.1962" lon="3.45354">
        <ele>703.378</ele>
        <time>2020-08-21T08:12:42Z</time>
      </trkpt>
      <trkpt lat="45.1955" lon="3.45327">
        <ele>705.56</ele>
        <time>2020-08-21T08:13:44Z</time>
      </trkpt>
      <trkpt lat="45.19533" lon="3.45323">
        <ele>705.543</ele>
        <time>2020-08-21T08:13:57Z</time>
      </trkpt>
      <trkpt lat="45.19527" lon="3.45325">
        <ele>705.994</ele>
        <time>2020-08-21T08:14:02Z</time>
      </trkpt>
      <trkpt lat="45.19518" lon="3.45334">
        <ele>706.864</ele>
        <time>2020-08-21T08:14:13Z</time>
      </trkpt>
      <trkpt lat="45.195" lon="3.45339">
        <ele>706.476</ele>
        <time>2020-08-21T08:14:31Z</time>
      </trkpt>
      <trkpt lat="45.19475" lon="3.45343">
        <ele>708.857</ele>
        <time>2020-08-21T08:14:54Z</time>
      </trkpt>
      <trkpt lat="45.19439" lon="3.45348">
        <ele>710.995</ele>
        <time>2020-08-21T08:15:23Z</time>
      </trkpt>
      <trkpt lat="45.19405" lon="3.45359">
        <ele>713.082</ele>
        <time>2020-08-21T08:15:53Z</time>
      </trkpt>
      <trkpt lat="45.19369" lon="3.45371">
        <ele>715.197</ele>
        <time>2020-08-21T08:16:26Z</time>
      </trkpt>
      <trkpt lat="45.19361" lon="3.45374">
        <ele>715.518</ele>
        <time>2020-08-21T08:16:33Z</time>
      </trkpt>
      <trkpt lat="45.19328" lon="3.45392">
        <ele>717.518</ele>
        <time>2020-08-21T08:17:04Z</time>
      </trkpt>
      <trkpt lat="45.193" lon="3.45404">
        <ele>719.615</ele>
        <time>2020-08-21T08:17:30Z</time>
      </trkpt>
      <trkpt lat="45.19217" lon="3.45455">
        <ele>718.306</ele>
        <time>2020-08-21T08:18:47Z</time>
      </trkpt>
      <trkpt lat="45.19198" lon="3.45476">
        <ele>716.595</ele>
        <time>2020-08-21T08:19:05Z</time>
      </trkpt>
      <trkpt lat="45.19196" lon="3.45485">
        <ele>716.457</ele>
        <time>2020-08-21T08:19:12Z</time>
      </trkpt>
      <trkpt lat="45.19189" lon="3.45498">
        <ele>715.239</ele>
        <time>2020-08-21T08:19:22Z</time>
      </trkpt>
      <trkpt lat="45.19183" lon="3.45503">
        <ele>714.778</ele>
        <time>2020-08-21T08:19:28Z</time>
      </trkpt>
      <trkpt lat="45.1918" lon="3.45506">
        <ele>714.694</ele>
        <time>2020-08-21T08:19:31Z</time>
      </trkpt>
      <trkpt lat="45.19151" lon="3.45532">
        <ele>715.416</ele>
        <time>2020-08-21T08:19:56Z</time>
      </trkpt>
      <trkpt lat="45.19103" lon="3.45556">
        <ele>714.337</ele>
        <time>2020-08-21T08:20:41Z</time>
      </trkpt>
      <trkpt lat="45.191" lon="3.45556">
        <ele>714.742</ele>
        <time>2020-08-21T08:20:44Z</time>
      </trkpt>
      <trkpt lat="45.19097" lon="3.45557">
        <ele>715.202</ele>
        <time>2020-08-21T08:20:47Z</time>
      </trkpt>
      <trkpt lat="45.19074" lon="3.45562">
        <ele>716.562</ele>
        <time>2020-08-21T08:21:07Z</time>
      </trkpt>
      <trkpt lat="45.19065" lon="3.45567">
        <ele>718.588</ele>
        <time>2020-08-21T08:21:18Z</time>
      </trkpt>
      <trkpt lat="45.19047" lon="3.45567">
        <ele>719.624</ele>
        <time>2020-08-21T08:21:32Z</time>
      </trkpt>
      <trkpt lat="45.19022" lon="3.45559">
        <ele>721.741</ele>
        <time>2020-08-21T08:21:52Z</time>
      </trkpt>
      <trkpt lat="45.18996" lon="3.45551">
        <ele>723.743</ele>
        <time>2020-08-21T08:22:14Z</time>
      </trkpt>
      <trkpt lat="45.18953" lon="3.45541">
        <ele>723.871</ele>
        <time>2020-08-21T08:22:49Z</time>
      </trkpt>
      <trkpt lat="45.18953" lon="3.4554">
        <ele>723.893</ele>
        <time>2020-08-21T08:22:50Z</time>
      </trkpt>
      <trkpt lat="45.18953" lon="3.4554">
        <ele>723.893</ele>
        <time>2020-08-21T08:22:50Z</time>
      </trkpt>
      <trkpt lat="45.18953" lon="3.4554">
        <ele>723.89</ele>
        <time>2020-08-21T08:22:51Z</time>
      </trkpt>
      <trkpt lat="45.18953" lon="3.4554">
        <ele>723.889</ele>
        <time>2020-08-21T08:22:59Z</time>
      </trkpt>
      <trkpt lat="45.18953" lon="3.4554">
        <ele>723.842</ele>
        <time>2020-08-21T08:23:00Z</time>
      </trkpt>
      <trkpt lat="45.18953" lon="3.45539">
        <ele>723.586</ele>
        <time>2020-08-21T08:23:02Z</time>
      </trkpt>
      <trkpt lat="45.18952" lon="3.45539">
        <ele>723.958</ele>
        <time>2020-08-21T08:23:03Z</time>
      </trkpt>
      <trkpt lat="45.18878" lon="3.45517">
        <ele>723.59</ele>
        <time>2020-08-21T08:24:05Z</time>
      </trkpt>
      <trkpt lat="45.18862" lon="3.45514">
        <ele>724.271</ele>
        <time>2020-08-21T08:24:18Z</time>
      </trkpt>
      <trkpt lat="45.18858" lon="3.45514">
        <ele>724.591</ele>
        <time>2020-08-21T08:24:21Z</time>
      </trkpt>
      <trkpt lat="45.18832" lon="3.45508">
        <ele>724.615</ele>
        <time>2020-08-21T08:24:43Z</time>
      </trkpt>
      <trkpt lat="45.18824" lon="3.4551">
        <ele>725.047</ele>
        <time>2020-08-21T08:24:48Z</time>
      </trkpt>
      <trkpt lat="45.1881" lon="3.45505">
        <ele>725.632</ele>
        <time>2020-08-21T08:24:58Z</time>
      </trkpt>
      <trkpt lat="45.18796" lon="3.45499">
        <ele>726.522</ele>
        <time>2020-08-21T08:25:11Z</time>
      </trkpt>
      <trkpt lat="45.18785" lon="3.45492">
        <ele>727.063</ele>
        <time>2020-08-21T08:25:21Z</time>
      </trkpt>
      <trkpt lat="45.18781" lon="3.45492">
        <ele>727.523</ele>
        <time>2020-08-21T08:25:24Z</time>
      </trkpt>
      <trkpt lat="45.18778" lon="3.45494">
        <ele>727.825</ele>
        <time>2020-08-21T08:25:27Z</time>
      </trkpt>
      <trkpt lat="45.1875" lon="3.45512">
        <ele>727.896</ele>
        <time>2020-08-21T08:25:58Z</time>
      </trkpt>
      <trkpt lat="45.1873" lon="3.45521">
        <ele>729.91</ele>
        <time>2020-08-21T08:26:15Z</time>
      </trkpt>
      <trkpt lat="45.18686" lon="3.4553">
        <ele>731.961</ele>
        <time>2020-08-21T08:26:52Z</time>
      </trkpt>
      <trkpt lat="45.18631" lon="3.45545">
        <ele>734.238</ele>
        <time>2020-08-21T08:27:37Z</time>
      </trkpt>
      <trkpt lat="45.18607" lon="3.45553">
        <ele>736.341</ele>
        <time>2020-08-21T08:27:56Z</time>
      </trkpt>
      <trkpt lat="45.18593" lon="3.4556">
        <ele>737.337</ele>
        <time>2020-08-21T08:28:08Z</time>
      </trkpt>
      <trkpt lat="45.18589" lon="3.45562">
        <ele>736.927</ele>
        <time>2020-08-21T08:28:11Z</time>
      </trkpt>
      <trkpt lat="45.18572" lon="3.45567">
        <ele>738.938</ele>
        <time>2020-08-21T08:28:26Z</time>
      </trkpt>
      <trkpt lat="45.18565" lon="3.45571">
        <ele>738.632</ele>
        <time>2020-08-21T08:28:33Z</time>
      </trkpt>
      <trkpt lat="45.1855" lon="3.4558">
        <ele>738.174</ele>
        <time>2020-08-21T08:28:48Z</time>
      </trkpt>
      <trkpt lat="45.18476" lon="3.45602">
        <ele>737.608</ele>
        <time>2020-08-21T08:29:47Z</time>
      </trkpt>
      <trkpt lat="45.18425" lon="3.45628">
        <ele>739.815</ele>
        <time>2020-08-21T08:30:31Z</time>
      </trkpt>
      <trkpt lat="45.18398" lon="3.45639">
        <ele>739.908</ele>
        <time>2020-08-21T08:30:54Z</time>
      </trkpt>
      <trkpt lat="45.18362" lon="3.45683">
        <ele>737.901</ele>
        <time>2020-08-21T08:31:34Z</time>
      </trkpt>
      <trkpt lat="45.18329" lon="3.45715">
        <ele>738.523</ele>
        <time>2020-08-21T08:32:05Z</time>
      </trkpt>
      <trkpt lat="45.18303" lon="3.45731">
        <ele>739.985</ele>
        <time>2020-08-21T08:32:28Z</time>
      </trkpt>
      <trkpt lat="45.18299" lon="3.45733">
        <ele>740.056</ele>
        <time>2020-08-21T08:32:31Z</time>
      </trkpt>
      <trkpt lat="45.1826" lon="3.4575">
        <ele>742.238</ele>
        <time>2020-08-21T08:33:02Z</time>
      </trkpt>
      <trkpt lat="45.18225" lon="3.4577">
        <ele>740.075</ele>
        <time>2020-08-21T08:33:32Z</time>
      </trkpt>
      <trkpt lat="45.18141" lon="3.45799">
        <ele>737.971</ele>
        <time>2020-08-21T08:34:40Z</time>
      </trkpt>
      <trkpt lat="45.18123" lon="3.45811">
        <ele>735.904</ele>
        <time>2020-08-21T08:34:58Z</time>
      </trkpt>
      <trkpt lat="45.1809" lon="3.45836">
        <ele>733.901</ele>
        <time>2020-08-21T08:35:27Z</time>
      </trkpt>
      <trkpt lat="45.18058" lon="3.4585">
        <ele>731.667</ele>
        <time>2020-08-21T08:35:54Z</time>
      </trkpt>
      <trkpt lat="45.18035" lon="3.4586">
        <ele>729.494</ele>
        <time>2020-08-21T08:36:13Z</time>
      </trkpt>
      <trkpt lat="45.18005" lon="3.45872">
        <ele>727.473</ele>
        <time>2020-08-21T08:36:39Z</time>
      </trkpt>
      <trkpt lat="45.17988" lon="3.45873">
        <ele>726.393</ele>
        <time>2020-08-21T08:36:54Z</time>
      </trkpt>
      <trkpt lat="45.17961" lon="3.45877">
        <ele>724.234</ele>
        <time>2020-08-21T08:37:14Z</time>
      </trkpt>
      <trkpt lat="45.17949" lon="3.45879">
        <ele>721.735</ele>
        <time>2020-08-21T08:37:24Z</time>
      </trkpt>
      <trkpt lat="45.17928" lon="3.45879">
        <ele>719.474</ele>
        <time>2020-08-21T08:37:42Z</time>
      </trkpt>
      <trkpt lat="45.17909" lon="3.45885">
        <ele>717.897</ele>
        <time>2020-08-21T08:37:58Z</time>
      </trkpt>
      <trkpt lat="45.17906" lon="3.45886">
        <ele>717.279</ele>
        <time>2020-08-21T08:38:01Z</time>
      </trkpt>
      <trkpt lat="45.17902" lon="3.45885">
        <ele>716.995</ele>
        <time>2020-08-21T08:38:04Z</time>
      </trkpt>
      <trkpt lat="45.17896" lon="3.45879">
        <ele>717.178</ele>
        <time>2020-08-21T08:38:10Z</time>
      </trkpt>
      <trkpt lat="45.17892" lon="3.45874">
        <ele>714.734</ele>
        <time>2020-08-21T08:38:15Z</time>
      </trkpt>
      <trkpt lat="45.17886" lon="3.45864">
        <ele>712.574</ele>
        <time>2020-08-21T08:38:24Z</time>
      </trkpt>
      <trkpt lat="45.17873" lon="3.45842">
        <ele>710.542</ele>
        <time>2020-08-21T08:38:42Z</time>
      </trkpt>
      <trkpt lat="45.17862" lon="3.45827">
        <ele>708.386</ele>
        <time>2020-08-21T08:38:54Z</time>
      </trkpt>
      <trkpt lat="45.17843" lon="3.45801">
        <ele>706.22</ele>
        <time>2020-08-21T08:39:17Z</time>
      </trkpt>
      <trkpt lat="45.17839" lon="3.45796">
        <ele>704.889</ele>
        <time>2020-08-21T08:39:22Z</time>
      </trkpt>
      <trkpt lat="45.17836" lon="3.45795">
        <ele>704.596</ele>
        <time>2020-08-21T08:39:25Z</time>
      </trkpt>
      <trkpt lat="45.17817" lon="3.4578">
        <ele>702.345</ele>
        <time>2020-08-21T08:39:44Z</time>
      </trkpt>
      <trkpt lat="45.17813" lon="3.45776">
        <ele>702.67</ele>
        <time>2020-08-21T08:39:47Z</time>
      </trkpt>
      <trkpt lat="45.17807" lon="3.45771">
        <ele>702.251</ele>
        <time>2020-08-21T08:39:51Z</time>
      </trkpt>
      <trkpt lat="45.17803" lon="3.45765">
        <ele>702.706</ele>
        <time>2020-08-21T08:39:56Z</time>
      </trkpt>
      <trkpt lat="45.17791" lon="3.45748">
        <ele>700.675</ele>
        <time>2020-08-21T08:40:09Z</time>
      </trkpt>
      <trkpt lat="45.17782" lon="3.45735">
        <ele>698.506</ele>
        <time>2020-08-21T08:40:21Z</time>
      </trkpt>
      <trkpt lat="45.17782" lon="3.45735">
        <ele>698.816</ele>
        <time>2020-08-21T08:40:22Z</time>
      </trkpt>
      <trkpt lat="45.17781" lon="3.45734">
        <ele>698.535</ele>
        <time>2020-08-21T08:40:23Z</time>
      </trkpt>
      <trkpt lat="45.17781" lon="3.45734">
        <ele>698.846</ele>
        <time>2020-08-21T08:40:24Z</time>
      </trkpt>
      <trkpt lat="45.17779" lon="3.45731">
        <ele>698.878</ele>
        <time>2020-08-21T08:40:26Z</time>
      </trkpt>
      <trkpt lat="45.17773" lon="3.45716">
        <ele>696.8</ele>
        <time>2020-08-21T08:40:36Z</time>
      </trkpt>
      <trkpt lat="45.17773" lon="3.45715">
        <ele>696.415</ele>
        <time>2020-08-21T08:40:37Z</time>
      </trkpt>
      <trkpt lat="45.17773" lon="3.45713">
        <ele>695.817</ele>
        <time>2020-08-21T08:40:39Z</time>
      </trkpt>
      <trkpt lat="45.17773" lon="3.45712">
        <ele>695.817</ele>
        <time>2020-08-21T08:40:40Z</time>
      </trkpt>
      <trkpt lat="45.17772" lon="3.4571">
        <ele>695.789</ele>
        <time>2020-08-21T08:40:43Z</time>
      </trkpt>
      <trkpt lat="45.17771" lon="3.45707">
        <ele>695.897</ele>
        <time>2020-08-21T08:40:46Z</time>
      </trkpt>
      <trkpt lat="45.17766" lon="3.45684">
        <ele>693.572</ele>
        <time>2020-08-21T08:41:02Z</time>
      </trkpt>
      <trkpt lat="45.17761" lon="3.45675">
        <ele>692.889</ele>
        <time>2020-08-21T08:41:10Z</time>
      </trkpt>
      <trkpt lat="45.17761" lon="3.45675">
        <ele>692.558</ele>
        <time>2020-08-21T08:41:11Z</time>
      </trkpt>
      <trkpt lat="45.17761" lon="3.45675">
        <ele>692.796</ele>
        <time>2020-08-21T08:41:12Z</time>
      </trkpt>
      <trkpt lat="45.17761" lon="3.45675">
        <ele>692.577</ele>
        <time>2020-08-21T08:41:15Z</time>
      </trkpt>
      <trkpt lat="45.17761" lon="3.45674">
        <ele>692.537</ele>
        <time>2020-08-21T08:41:16Z</time>
      </trkpt>
      <trkpt lat="45.17761" lon="3.45674">
        <ele>692.534</ele>
        <time>2020-08-21T08:41:17Z</time>
      </trkpt>
      <trkpt lat="45.17761" lon="3.45674">
        <ele>692.534</ele>
        <time>2020-08-21T08:41:17Z</time>
      </trkpt>
      <trkpt lat="45.17761" lon="3.45673">
        <ele>692.718</ele>
        <time>2020-08-21T08:41:18Z</time>
      </trkpt>
      <trkpt lat="45.17761" lon="3.45673">
        <ele>692.212</ele>
        <time>2020-08-21T08:41:20Z</time>
      </trkpt>
      <trkpt lat="45.17761" lon="3.45673">
        <ele>692.212</ele>
        <time>2020-08-21T08:41:20Z</time>
      </trkpt>
      <trkpt lat="45.17762" lon="3.45672">
        <ele>692.213</ele>
        <time>2020-08-21T08:41:21Z</time>
      </trkpt>
      <trkpt lat="45.17763" lon="3.45672">
        <ele>692.641</ele>
        <time>2020-08-21T08:41:23Z</time>
      </trkpt>
      <trkpt lat="45.17763" lon="3.45672">
        <ele>692.641</ele>
        <time>2020-08-21T08:41:23Z</time>
      </trkpt>
      <trkpt lat="45.17763" lon="3.45672">
        <ele>692.539</ele>
        <time>2020-08-21T08:41:24Z</time>
      </trkpt>
      <trkpt lat="45.17763" lon="3.45672">
        <ele>692.599</ele>
        <time>2020-08-21T08:41:26Z</time>
      </trkpt>
      <trkpt lat="45.17763" lon="3.45671">
        <ele>692.306</ele>
        <time>2020-08-21T08:41:27Z</time>
      </trkpt>
      <trkpt lat="45.17764" lon="3.45672">
        <ele>692.272</ele>
        <time>2020-08-21T08:41:31Z</time>
      </trkpt>
      <trkpt lat="45.17764" lon="3.45672">
        <ele>692.443</ele>
        <time>2020-08-21T08:41:32Z</time>
      </trkpt>
      <trkpt lat="45.17764" lon="3.45672">
        <ele>692.511</ele>
        <time>2020-08-21T08:41:51Z</time>
      </trkpt>
      <trkpt lat="45.17765" lon="3.45673">
        <ele>692.664</ele>
        <time>2020-08-21T08:41:52Z</time>
      </trkpt>
      <trkpt lat="45.17765" lon="3.45673">
        <ele>692.134</ele>
        <time>2020-08-21T08:41:54Z</time>
      </trkpt>
      <trkpt lat="45.17765" lon="3.45673">
        <ele>691.06</ele>
        <time>2020-08-21T08:41:57Z</time>
      </trkpt>
      <trkpt lat="45.17764" lon="3.45671">
        <ele>690.526</ele>
        <time>2020-08-21T08:41:58Z</time>
      </trkpt>
      <trkpt lat="45.17762" lon="3.45671">
        <ele>691.453</ele>
        <time>2020-08-21T08:42:01Z</time>
      </trkpt>
      <trkpt lat="45.1776" lon="3.45669">
        <ele>692.05</ele>
        <time>2020-08-21T08:42:04Z</time>
      </trkpt>
      <trkpt lat="45.17759" lon="3.45669">
        <ele>692.436</ele>
        <time>2020-08-21T08:42:05Z</time>
      </trkpt>
      <trkpt lat="45.17759" lon="3.45669">
        <ele>691.959</ele>
        <time>2020-08-21T08:42:06Z</time>
      </trkpt>
      <trkpt lat="45.17759" lon="3.45669">
        <ele>692.075</ele>
        <time>2020-08-21T08:42:09Z</time>
      </trkpt>
      <trkpt lat="45.17758" lon="3.45668">
        <ele>691.724</ele>
        <time>2020-08-21T08:42:10Z</time>
      </trkpt>
      <trkpt lat="45.17758" lon="3.45668">
        <ele>691.807</ele>
        <time>2020-08-21T08:42:12Z</time>
      </trkpt>
      <trkpt lat="45.17758" lon="3.45668">
        <ele>691.807</ele>
        <time>2020-08-21T08:42:12Z</time>
      </trkpt>
      <trkpt lat="45.17757" lon="3.45667">
        <ele>691.814</ele>
        <time>2020-08-21T08:42:13Z</time>
      </trkpt>
      <trkpt lat="45.17757" lon="3.45667">
        <ele>690.75</ele>
        <time>2020-08-21T08:42:15Z</time>
      </trkpt>
      <trkpt lat="45.17757" lon="3.45667">
        <ele>690.75</ele>
        <time>2020-08-21T08:42:15Z</time>
      </trkpt>
      <trkpt lat="45.17757" lon="3.45666">
        <ele>691.64</ele>
        <time>2020-08-21T08:42:16Z</time>
      </trkpt>
      <trkpt lat="45.17757" lon="3.45666">
        <ele>691.685</ele>
        <time>2020-08-21T08:42:17Z</time>
      </trkpt>
      <trkpt lat="45.17757" lon="3.45666">
        <ele>691.295</ele>
        <time>2020-08-21T08:42:22Z</time>
      </trkpt>
      <trkpt lat="45.17757" lon="3.45664">
        <ele>690.96</ele>
        <time>2020-08-21T08:42:23Z</time>
      </trkpt>
      <trkpt lat="45.17757" lon="3.45664">
        <ele>688.848</ele>
        <time>2020-08-21T08:42:24Z</time>
      </trkpt>
      <trkpt lat="45.17757" lon="3.45664">
        <ele>689.105</ele>
        <time>2020-08-21T08:42:25Z</time>
      </trkpt>
      <trkpt lat="45.17757" lon="3.45664">
        <ele>690.197</ele>
        <time>2020-08-21T08:42:29Z</time>
      </trkpt>
      <trkpt lat="45.17757" lon="3.45666">
        <ele>690.353</ele>
        <time>2020-08-21T08:42:30Z</time>
      </trkpt>
      <trkpt lat="45.17757" lon="3.45666">
        <ele>690.607</ele>
        <time>2020-08-21T08:42:31Z</time>
      </trkpt>
      <trkpt lat="45.17757" lon="3.45666">
        <ele>691.484</ele>
        <time>2020-08-21T08:42:33Z</time>
      </trkpt>
      <trkpt lat="45.17759" lon="3.45666">
        <ele>691.43</ele>
        <time>2020-08-21T08:42:34Z</time>
      </trkpt>
      <trkpt lat="45.17759" lon="3.45666">
        <ele>691.614</ele>
        <time>2020-08-21T08:42:35Z</time>
      </trkpt>
      <trkpt lat="45.17759" lon="3.45666">
        <ele>691.412</ele>
        <time>2020-08-21T08:42:36Z</time>
      </trkpt>
      <trkpt lat="45.1776" lon="3.45666">
        <ele>691.458</ele>
        <time>2020-08-21T08:42:37Z</time>
      </trkpt>
      <trkpt lat="45.1776" lon="3.45664">
        <ele>691.756</ele>
        <time>2020-08-21T08:42:39Z</time>
      </trkpt>
      <trkpt lat="45.17755" lon="3.45654">
        <ele>690.962</ele>
        <time>2020-08-21T08:42:47Z</time>
      </trkpt>
      <trkpt lat="45.1775" lon="3.45643">
        <ele>691.305</ele>
        <time>2020-08-21T08:42:57Z</time>
      </trkpt>
      <trkpt lat="45.17747" lon="3.45638">
        <ele>689.125</ele>
        <time>2020-08-21T08:43:05Z</time>
      </trkpt>
      <trkpt lat="45.17742" lon="3.45632">
        <ele>688.589</ele>
        <time>2020-08-21T08:43:12Z</time>
      </trkpt>
      <trkpt lat="45.17716" lon="3.45597">
        <ele>687.521</ele>
        <time>2020-08-21T08:43:41Z</time>
      </trkpt>
      <trkpt lat="45.17715" lon="3.45597">
        <ele>687.35</ele>
        <time>2020-08-21T08:43:42Z</time>
      </trkpt>
      <trkpt lat="45.1771" lon="3.45592">
        <ele>686.329</ele>
        <time>2020-08-21T08:43:49Z</time>
      </trkpt>
      <trkpt lat="45.17707" lon="3.45587">
        <ele>685.705</ele>
        <time>2020-08-21T08:43:54Z</time>
      </trkpt>
      <trkpt lat="45.17702" lon="3.45578">
        <ele>685.765</ele>
        <time>2020-08-21T08:43:59Z</time>
      </trkpt>
      <trkpt lat="45.17681" lon="3.45548">
        <ele>685.532</ele>
        <time>2020-08-21T08:44:21Z</time>
      </trkpt>
      <trkpt lat="45.17676" lon="3.4554">
        <ele>685.013</ele>
        <time>2020-08-21T08:44:27Z</time>
      </trkpt>
      <trkpt lat="45.17672" lon="3.45533">
        <ele>683.678</ele>
        <time>2020-08-21T08:44:33Z</time>
      </trkpt>
      <trkpt lat="45.1767" lon="3.4553">
        <ele>684.089</ele>
        <time>2020-08-21T08:44:36Z</time>
      </trkpt>
      <trkpt lat="45.17666" lon="3.4552">
        <ele>683.894</ele>
        <time>2020-08-21T08:44:48Z</time>
      </trkpt>
      <trkpt lat="45.17664" lon="3.45517">
        <ele>683.996</ele>
        <time>2020-08-21T08:44:53Z</time>
      </trkpt>
      <trkpt lat="45.17664" lon="3.45517">
        <ele>684.128</ele>
        <time>2020-08-21T08:44:54Z</time>
      </trkpt>
      <trkpt lat="45.17664" lon="3.45517">
        <ele>684.091</ele>
        <time>2020-08-21T08:44:55Z</time>
      </trkpt>
      <trkpt lat="45.17664" lon="3.45517">
        <ele>684.091</ele>
        <time>2020-08-21T08:44:55Z</time>
      </trkpt>
      <trkpt lat="45.17663" lon="3.45517">
        <ele>684.202</ele>
        <time>2020-08-21T08:44:56Z</time>
      </trkpt>
      <trkpt lat="45.17663" lon="3.45517">
        <ele>684.148</ele>
        <time>2020-08-21T08:44:57Z</time>
      </trkpt>
      <trkpt lat="45.17663" lon="3.45517">
        <ele>684.434</ele>
        <time>2020-08-21T08:44:58Z</time>
      </trkpt>
      <trkpt lat="45.17663" lon="3.45517">
        <ele>684.418</ele>
        <time>2020-08-21T08:45:08Z</time>
      </trkpt>
      <trkpt lat="45.17663" lon="3.45518">
        <ele>683.949</ele>
        <time>2020-08-21T08:45:09Z</time>
      </trkpt>
      <trkpt lat="45.1766" lon="3.45517">
        <ele>684.143</ele>
        <time>2020-08-21T08:45:12Z</time>
      </trkpt>
      <trkpt lat="45.17657" lon="3.45515">
        <ele>685.344</ele>
        <time>2020-08-21T08:45:15Z</time>
      </trkpt>
      <trkpt lat="45.17645" lon="3.45504">
        <ele>684.106</ele>
        <time>2020-08-21T08:45:25Z</time>
      </trkpt>
      <trkpt lat="45.17626" lon="3.45475">
        <ele>683.507</ele>
        <time>2020-08-21T08:45:49Z</time>
      </trkpt>
      <trkpt lat="45.17617" lon="3.45461">
        <ele>684.723</ele>
        <time>2020-08-21T08:46:02Z</time>
      </trkpt>
      <trkpt lat="45.17606" lon="3.45433">
        <ele>686.738</ele>
        <time>2020-08-21T08:46:21Z</time>
      </trkpt>
      <trkpt lat="45.17605" lon="3.45429">
        <ele>686.249</ele>
        <time>2020-08-21T08:46:24Z</time>
      </trkpt>
      <trkpt lat="45.17603" lon="3.45417">
        <ele>685.45</ele>
        <time>2020-08-21T08:46:32Z</time>
      </trkpt>
      <trkpt lat="45.17601" lon="3.45404">
        <ele>685.398</ele>
        <time>2020-08-21T08:46:41Z</time>
      </trkpt>
      <trkpt lat="45.17597" lon="3.45394">
        <ele>685.736</ele>
        <time>2020-08-21T08:46:47Z</time>
      </trkpt>
      <trkpt lat="45.17593" lon="3.45387">
        <ele>685.423</ele>
        <time>2020-08-21T08:46:52Z</time>
      </trkpt>
      <trkpt lat="45.17591" lon="3.45386">
        <ele>685.462</ele>
        <time>2020-08-21T08:46:55Z</time>
      </trkpt>
      <trkpt lat="45.17583" lon="3.4538">
        <ele>686.221</ele>
        <time>2020-08-21T08:47:03Z</time>
      </trkpt>
      <trkpt lat="45.17583" lon="3.45365">
        <ele>686.346</ele>
        <time>2020-08-21T08:47:09Z</time>
      </trkpt>
      <trkpt lat="45.1759" lon="3.45324">
        <ele>686.469</ele>
        <time>2020-08-21T08:47:31Z</time>
      </trkpt>
      <trkpt lat="45.1759" lon="3.45323">
        <ele>685.476</ele>
        <time>2020-08-21T08:47:33Z</time>
      </trkpt>
      <trkpt lat="45.1759" lon="3.45323">
        <ele>685.476</ele>
        <time>2020-08-21T08:47:33Z</time>
      </trkpt>
      <trkpt lat="45.17589" lon="3.45323">
        <ele>685.341</ele>
        <time>2020-08-21T08:47:34Z</time>
      </trkpt>
      <trkpt lat="45.1759" lon="3.45322">
        <ele>685.261</ele>
        <time>2020-08-21T08:47:36Z</time>
      </trkpt>
      <trkpt lat="45.17592" lon="3.45319">
        <ele>685.391</ele>
        <time>2020-08-21T08:47:38Z</time>
      </trkpt>
      <trkpt lat="45.17598" lon="3.4531">
        <ele>684.994</ele>
        <time>2020-08-21T08:47:45Z</time>
      </trkpt>
      <trkpt lat="45.17617" lon="3.45239">
        <ele>687.052</ele>
        <time>2020-08-21T08:48:30Z</time>
      </trkpt>
      <trkpt lat="45.1762" lon="3.45213">
        <ele>686.983</ele>
        <time>2020-08-21T08:48:42Z</time>
      </trkpt>
      <trkpt lat="45.17621" lon="3.45205">
        <ele>686.687</ele>
        <time>2020-08-21T08:48:47Z</time>
      </trkpt>
      <trkpt lat="45.17629" lon="3.45113">
        <ele>688.753</ele>
        <time>2020-08-21T08:49:37Z</time>
      </trkpt>
      <trkpt lat="45.17632" lon="3.45103">
        <ele>688.625</ele>
        <time>2020-08-21T08:49:44Z</time>
      </trkpt>
      <trkpt lat="45.17633" lon="3.45097">
        <ele>688.273</ele>
        <time>2020-08-21T08:49:47Z</time>
      </trkpt>
      <trkpt lat="45.17634" lon="3.45086">
        <ele>688.463</ele>
        <time>2020-08-21T08:49:53Z</time>
      </trkpt>
      <trkpt lat="45.17635" lon="3.45081">
        <ele>688.681</ele>
        <time>2020-08-21T08:49:56Z</time>
      </trkpt>
      <trkpt lat="45.17639" lon="3.45012">
        <ele>690.766</ele>
        <time>2020-08-21T08:50:27Z</time>
      </trkpt>
      <trkpt lat="45.17637" lon="3.44984">
        <ele>691.611</ele>
        <time>2020-08-21T08:50:43Z</time>
      </trkpt>
      <trkpt lat="45.17635" lon="3.44964">
        <ele>693.192</ele>
        <time>2020-08-21T08:50:55Z</time>
      </trkpt>
      <trkpt lat="45.17635" lon="3.44946">
        <ele>693.861</ele>
        <time>2020-08-21T08:51:11Z</time>
      </trkpt>
      <trkpt lat="45.17635" lon="3.44946">
        <ele>693.861</ele>
        <time>2020-08-21T08:51:11Z</time>
      </trkpt>
      <trkpt lat="45.17635" lon="3.44945">
        <ele>693.986</ele>
        <time>2020-08-21T08:51:12Z</time>
      </trkpt>
      <trkpt lat="45.17635" lon="3.44945">
        <ele>693.986</ele>
        <time>2020-08-21T08:51:12Z</time>
      </trkpt>
      <trkpt lat="45.17635" lon="3.44945">
        <ele>693.866</ele>
        <time>2020-08-21T08:51:13Z</time>
      </trkpt>
      <trkpt lat="45.17635" lon="3.44945">
        <ele>693.839</ele>
        <time>2020-08-21T08:51:15Z</time>
      </trkpt>
      <trkpt lat="45.17635" lon="3.44944">
        <ele>693.617</ele>
        <time>2020-08-21T08:51:16Z</time>
      </trkpt>
      <trkpt lat="45.17633" lon="3.44934">
        <ele>694.725</ele>
        <time>2020-08-21T08:51:23Z</time>
      </trkpt>
      <trkpt lat="45.17633" lon="3.4493">
        <ele>695.792</ele>
        <time>2020-08-21T08:51:26Z</time>
      </trkpt>
      <trkpt lat="45.1764" lon="3.44899">
        <ele>696.939</ele>
        <time>2020-08-21T08:51:46Z</time>
      </trkpt>
      <trkpt lat="45.17649" lon="3.44874">
        <ele>699.227</ele>
        <time>2020-08-21T08:52:05Z</time>
      </trkpt>
      <trkpt lat="45.17656" lon="3.44858">
        <ele>699.364</ele>
        <time>2020-08-21T08:52:18Z</time>
      </trkpt>
      <trkpt lat="45.17663" lon="3.44827">
        <ele>700.825</ele>
        <time>2020-08-21T08:52:41Z</time>
      </trkpt>
      <trkpt lat="45.1767" lon="3.4478">
        <ele>702.894</ele>
        <time>2020-08-21T08:53:00Z</time>
      </trkpt>
      <trkpt lat="45.1767" lon="3.44765">
        <ele>702.921</ele>
        <time>2020-08-21T08:53:08Z</time>
      </trkpt>
      <trkpt lat="45.17665" lon="3.44727">
        <ele>703.464</ele>
        <time>2020-08-21T08:53:27Z</time>
      </trkpt>
      <trkpt lat="45.1766" lon="3.44697">
        <ele>705.674</ele>
        <time>2020-08-21T08:53:38Z</time>
      </trkpt>
      <trkpt lat="45.17656" lon="3.44678">
        <ele>705.782</ele>
        <time>2020-08-21T08:53:47Z</time>
      </trkpt>
      <trkpt lat="45.17655" lon="3.44652">
        <ele>705.644</ele>
        <time>2020-08-21T08:54:02Z</time>
      </trkpt>
      <trkpt lat="45.17654" lon="3.44645">
        <ele>705.917</ele>
        <time>2020-08-21T08:54:09Z</time>
      </trkpt>
      <trkpt lat="45.17642" lon="3.44612">
        <ele>704.426</ele>
        <time>2020-08-21T08:54:37Z</time>
      </trkpt>
      <trkpt lat="45.17639" lon="3.44609">
        <ele>704.502</ele>
        <time>2020-08-21T08:54:40Z</time>
      </trkpt>
      <trkpt lat="45.17614" lon="3.44549">
        <ele>702.267</ele>
        <time>2020-08-21T08:55:17Z</time>
      </trkpt>
      <trkpt lat="45.17607" lon="3.44531">
        <ele>701.76</ele>
        <time>2020-08-21T08:55:27Z</time>
      </trkpt>
      <trkpt lat="45.17608" lon="3.44511">
        <ele>701.076</ele>
        <time>2020-08-21T08:55:36Z</time>
      </trkpt>
      <trkpt lat="45.17611" lon="3.445">
        <ele>699.999</ele>
        <time>2020-08-21T08:55:44Z</time>
      </trkpt>
      <trkpt lat="45.17613" lon="3.44495">
        <ele>700.165</ele>
        <time>2020-08-21T08:55:47Z</time>
      </trkpt>
      <trkpt lat="45.17617" lon="3.44482">
        <ele>699.997</ele>
        <time>2020-08-21T08:55:54Z</time>
      </trkpt>
      <trkpt lat="45.17623" lon="3.44473">
        <ele>699.227</ele>
        <time>2020-08-21T08:56:01Z</time>
      </trkpt>
      <trkpt lat="45.17645" lon="3.44448">
        <ele>697.292</ele>
        <time>2020-08-21T08:56:20Z</time>
      </trkpt>
      <trkpt lat="45.17652" lon="3.4444">
        <ele>696.567</ele>
        <time>2020-08-21T08:56:25Z</time>
      </trkpt>
      <trkpt lat="45.17665" lon="3.4442">
        <ele>694.468</ele>
        <time>2020-08-21T08:56:38Z</time>
      </trkpt>
      <trkpt lat="45.17679" lon="3.44404">
        <ele>691.947</ele>
        <time>2020-08-21T08:56:52Z</time>
      </trkpt>
      <trkpt lat="45.17719" lon="3.44364">
        <ele>689.895</ele>
        <time>2020-08-21T08:57:31Z</time>
      </trkpt>
      <trkpt lat="45.17736" lon="3.44345">
        <ele>689.057</ele>
        <time>2020-08-21T08:57:45Z</time>
      </trkpt>
      <trkpt lat="45.1774" lon="3.44341">
        <ele>688.783</ele>
        <time>2020-08-21T08:57:48Z</time>
      </trkpt>
      <trkpt lat="45.17749" lon="3.44327">
        <ele>688.087</ele>
        <time>2020-08-21T08:57:58Z</time>
      </trkpt>
      <trkpt lat="45.17755" lon="3.44311">
        <ele>687.179</ele>
        <time>2020-08-21T08:58:11Z</time>
      </trkpt>
      <trkpt lat="45.17756" lon="3.44281">
        <ele>685.603</ele>
        <time>2020-08-21T08:58:27Z</time>
      </trkpt>
      <trkpt lat="45.17754" lon="3.44271">
        <ele>683.58</ele>
        <time>2020-08-21T08:58:34Z</time>
      </trkpt>
      <trkpt lat="45.17749" lon="3.44239">
        <ele>681.381</ele>
        <time>2020-08-21T08:58:51Z</time>
      </trkpt>
      <trkpt lat="45.17738" lon="3.44186">
        <ele>680.315</ele>
        <time>2020-08-21T08:59:25Z</time>
      </trkpt>
      <trkpt lat="45.17723" lon="3.44147">
        <ele>678.22</ele>
        <time>2020-08-21T08:59:49Z</time>
      </trkpt>
      <trkpt lat="45.17714" lon="3.44125">
        <ele>677.173</ele>
        <time>2020-08-21T09:00:03Z</time>
      </trkpt>
      <trkpt lat="45.17712" lon="3.44121">
        <ele>676.823</ele>
        <time>2020-08-21T09:00:06Z</time>
      </trkpt>
      <trkpt lat="45.17697" lon="3.44079">
        <ele>674.818</ele>
        <time>2020-08-21T09:00:33Z</time>
      </trkpt>
      <trkpt lat="45.17694" lon="3.4407">
        <ele>674.763</ele>
        <time>2020-08-21T09:00:39Z</time>
      </trkpt>
      <trkpt lat="45.17696" lon="3.44064">
        <ele>674.283</ele>
        <time>2020-08-21T09:00:42Z</time>
      </trkpt>
      <trkpt lat="45.177" lon="3.44052">
        <ele>674.275</ele>
        <time>2020-08-21T09:00:50Z</time>
      </trkpt>
      <trkpt lat="45.17704" lon="3.44036">
        <ele>674.572</ele>
        <time>2020-08-21T09:00:57Z</time>
      </trkpt>
      <trkpt lat="45.17708" lon="3.44027">
        <ele>675.171</ele>
        <time>2020-08-21T09:01:04Z</time>
      </trkpt>
      <trkpt lat="45.1771" lon="3.44023">
        <ele>675.459</ele>
        <time>2020-08-21T09:01:10Z</time>
      </trkpt>
      <trkpt lat="45.17721" lon="3.43971">
        <ele>677.48</ele>
        <time>2020-08-21T09:01:41Z</time>
      </trkpt>
      <trkpt lat="45.17727" lon="3.43949">
        <ele>677.155</ele>
        <time>2020-08-21T09:01:57Z</time>
      </trkpt>
      <trkpt lat="45.17724" lon="3.43935">
        <ele>677.775</ele>
        <time>2020-08-21T09:02:10Z</time>
      </trkpt>
      <trkpt lat="45.17723" lon="3.43933">
        <ele>677.777</ele>
        <time>2020-08-21T09:02:13Z</time>
      </trkpt>
      <trkpt lat="45.17723" lon="3.43933">
        <ele>677.777</ele>
        <time>2020-08-21T09:02:13Z</time>
      </trkpt>
      <trkpt lat="45.17723" lon="3.43933">
        <ele>677.8</ele>
        <time>2020-08-21T09:02:14Z</time>
      </trkpt>
      <trkpt lat="45.17723" lon="3.43933">
        <ele>677.892</ele>
        <time>2020-08-21T09:02:15Z</time>
      </trkpt>
      <trkpt lat="45.17723" lon="3.43933">
        <ele>678.107</ele>
        <time>2020-08-21T09:02:16Z</time>
      </trkpt>
      <trkpt lat="45.17722" lon="3.43933">
        <ele>678.399</ele>
        <time>2020-08-21T09:02:17Z</time>
      </trkpt>
      <trkpt lat="45.17722" lon="3.43933">
        <ele>678.399</ele>
        <time>2020-08-21T09:02:17Z</time>
      </trkpt>
      <trkpt lat="45.17722" lon="3.43932">
        <ele>678.281</ele>
        <time>2020-08-21T09:02:18Z</time>
      </trkpt>
      <trkpt lat="45.17721" lon="3.43931">
        <ele>678.23</ele>
        <time>2020-08-21T09:02:20Z</time>
      </trkpt>
      <trkpt lat="45.1772" lon="3.43929">
        <ele>678.13</ele>
        <time>2020-08-21T09:02:21Z</time>
      </trkpt>
      <trkpt lat="45.17721" lon="3.43929">
        <ele>678.188</ele>
        <time>2020-08-21T09:02:24Z</time>
      </trkpt>
      <trkpt lat="45.17721" lon="3.43929">
        <ele>678.493</ele>
        <time>2020-08-21T09:02:25Z</time>
      </trkpt>
      <trkpt lat="45.1772" lon="3.43927">
        <ele>678.654</ele>
        <time>2020-08-21T09:02:29Z</time>
      </trkpt>
      <trkpt lat="45.1772" lon="3.43927">
        <ele>678.654</ele>
        <time>2020-08-21T09:02:29Z</time>
      </trkpt>
      <trkpt lat="45.1772" lon="3.43926">
        <ele>678.482</ele>
        <time>2020-08-21T09:02:30Z</time>
      </trkpt>
      <trkpt lat="45.17702" lon="3.43893">
        <ele>679.223</ele>
        <time>2020-08-21T09:02:54Z</time>
      </trkpt>
      <trkpt lat="45.17697" lon="3.43886">
        <ele>679.516</ele>
        <time>2020-08-21T09:02:59Z</time>
      </trkpt>
      <trkpt lat="45.17682" lon="3.43863">
        <ele>679.514</ele>
        <time>2020-08-21T09:03:19Z</time>
      </trkpt>
      <trkpt lat="45.17676" lon="3.4385">
        <ele>677.787</ele>
        <time>2020-08-21T09:03:33Z</time>
      </trkpt>
      <trkpt lat="45.17669" lon="3.43833">
        <ele>678.032</ele>
        <time>2020-08-21T09:03:44Z</time>
      </trkpt>
      <trkpt lat="45.17669" lon="3.43832">
        <ele>677.685</ele>
        <time>2020-08-21T09:03:45Z</time>
      </trkpt>
      <trkpt lat="45.17664" lon="3.43821">
        <ele>678.312</ele>
        <time>2020-08-21T09:03:53Z</time>
      </trkpt>
      <trkpt lat="45.1766" lon="3.43813">
        <ele>679.268</ele>
        <time>2020-08-21T09:03:59Z</time>
      </trkpt>
      <trkpt lat="45.17639" lon="3.43775">
        <ele>680.777</ele>
        <time>2020-08-21T09:04:29Z</time>
      </trkpt>
      <trkpt lat="45.17639" lon="3.43773">
        <ele>681.538</ele>
        <time>2020-08-21T09:04:32Z</time>
      </trkpt>
      <trkpt lat="45.17639" lon="3.43773">
        <ele>681.756</ele>
        <time>2020-08-21T09:04:34Z</time>
      </trkpt>
      <trkpt lat="45.1764" lon="3.43772">
        <ele>682.085</ele>
        <time>2020-08-21T09:04:36Z</time>
      </trkpt>
      <trkpt lat="45.1764" lon="3.43772">
        <ele>682.085</ele>
        <time>2020-08-21T09:04:36Z</time>
      </trkpt>
      <trkpt lat="45.17639" lon="3.43772">
        <ele>682.141</ele>
        <time>2020-08-21T09:04:37Z</time>
      </trkpt>
      <trkpt lat="45.17638" lon="3.4377">
        <ele>682.395</ele>
        <time>2020-08-21T09:04:39Z</time>
      </trkpt>
      <trkpt lat="45.17628" lon="3.43748">
        <ele>683.492</ele>
        <time>2020-08-21T09:04:54Z</time>
      </trkpt>
      <trkpt lat="45.17628" lon="3.43747">
        <ele>683.449</ele>
        <time>2020-08-21T09:04:55Z</time>
      </trkpt>
      <trkpt lat="45.17618" lon="3.43722">
        <ele>683.69</ele>
        <time>2020-08-21T09:05:12Z</time>
      </trkpt>
      <trkpt lat="45.17614" lon="3.43713">
        <ele>684.732</ele>
        <time>2020-08-21T09:05:18Z</time>
      </trkpt>
      <trkpt lat="45.17607" lon="3.43673">
        <ele>687.009</ele>
        <time>2020-08-21T09:05:44Z</time>
      </trkpt>
      <trkpt lat="45.17598" lon="3.43636">
        <ele>689.264</ele>
        <time>2020-08-21T09:06:06Z</time>
      </trkpt>
      <trkpt lat="45.17589" lon="3.43608">
        <ele>691.287</ele>
        <time>2020-08-21T09:06:24Z</time>
      </trkpt>
      <trkpt lat="45.17563" lon="3.43534">
        <ele>690.934</ele>
        <time>2020-08-21T09:07:12Z</time>
      </trkpt>
      <trkpt lat="45.17559" lon="3.43525">
        <ele>690.817</ele>
        <time>2020-08-21T09:07:19Z</time>
      </trkpt>
      <trkpt lat="45.17559" lon="3.43524">
        <ele>690.971</ele>
        <time>2020-08-21T09:07:20Z</time>
      </trkpt>
      <trkpt lat="45.17549" lon="3.43508">
        <ele>691.511</ele>
        <time>2020-08-21T09:07:34Z</time>
      </trkpt>
      <trkpt lat="45.17541" lon="3.43492">
        <ele>692.567</ele>
        <time>2020-08-21T09:07:44Z</time>
      </trkpt>
      <trkpt lat="45.17536" lon="3.4348">
        <ele>691.006</ele>
        <time>2020-08-21T09:07:53Z</time>
      </trkpt>
      <trkpt lat="45.17513" lon="3.43446">
        <ele>688.956</ele>
        <time>2020-08-21T09:08:21Z</time>
      </trkpt>
      <trkpt lat="45.17506" lon="3.43436">
        <ele>686.827</ele>
        <time>2020-08-21T09:08:30Z</time>
      </trkpt>
      <trkpt lat="45.175" lon="3.43426">
        <ele>684.596</ele>
        <time>2020-08-21T09:08:40Z</time>
      </trkpt>
      <trkpt lat="45.17497" lon="3.43424">
        <ele>684.312</ele>
        <time>2020-08-21T09:08:42Z</time>
      </trkpt>
      <trkpt lat="45.17487" lon="3.43411">
        <ele>682.042</ele>
        <time>2020-08-21T09:08:53Z</time>
      </trkpt>
      <trkpt lat="45.17477" lon="3.434">
        <ele>679.591</ele>
        <time>2020-08-21T09:09:03Z</time>
      </trkpt>
      <trkpt lat="45.17466" lon="3.43383">
        <ele>677.921</ele>
        <time>2020-08-21T09:09:14Z</time>
      </trkpt>
      <trkpt lat="45.17462" lon="3.43373">
        <ele>675.886</ele>
        <time>2020-08-21T09:09:21Z</time>
      </trkpt>
      <trkpt lat="45.17448" lon="3.4334">
        <ele>673.411</ele>
        <time>2020-08-21T09:09:43Z</time>
      </trkpt>
      <trkpt lat="45.17442" lon="3.43329">
        <ele>671.369</ele>
        <time>2020-08-21T09:09:52Z</time>
      </trkpt>
      <trkpt lat="45.17433" lon="3.43311">
        <ele>670.854</ele>
        <time>2020-08-21T09:10:03Z</time>
      </trkpt>
      <trkpt lat="45.1743" lon="3.43306">
        <ele>670.198</ele>
        <time>2020-08-21T09:10:06Z</time>
      </trkpt>
      <trkpt lat="45.17415" lon="3.43283">
        <ele>669.53</ele>
        <time>2020-08-21T09:10:22Z</time>
      </trkpt>
      <trkpt lat="45.17406" lon="3.43274">
        <ele>667.48</ele>
        <time>2020-08-21T09:10:30Z</time>
      </trkpt>
      <trkpt lat="45.17381" lon="3.43248">
        <ele>665.412</ele>
        <time>2020-08-21T09:10:53Z</time>
      </trkpt>
      <trkpt lat="45.17356" lon="3.43225">
        <ele>663.4</ele>
        <time>2020-08-21T09:11:16Z</time>
      </trkpt>
      <trkpt lat="45.17294" lon="3.4315">
        <ele>664.506</ele>
        <time>2020-08-21T09:12:19Z</time>
      </trkpt>
      <trkpt lat="45.17288" lon="3.43132">
        <ele>664.222</ele>
        <time>2020-08-21T09:12:30Z</time>
      </trkpt>
      <trkpt lat="45.17287" lon="3.43127">
        <ele>663.705</ele>
        <time>2020-08-21T09:12:33Z</time>
      </trkpt>
      <trkpt lat="45.17288" lon="3.43112">
        <ele>663.742</ele>
        <time>2020-08-21T09:12:41Z</time>
      </trkpt>
      <trkpt lat="45.17313" lon="3.4304">
        <ele>665.96</ele>
        <time>2020-08-21T09:13:29Z</time>
      </trkpt>
      <trkpt lat="45.17318" lon="3.43029">
        <ele>667.175</ele>
        <time>2020-08-21T09:13:36Z</time>
      </trkpt>
      <trkpt lat="45.17327" lon="3.43003">
        <ele>669.036</ele>
        <time>2020-08-21T09:13:53Z</time>
      </trkpt>
      <trkpt lat="45.17336" lon="3.42983">
        <ele>671.292</ele>
        <time>2020-08-21T09:14:08Z</time>
      </trkpt>
      <trkpt lat="45.17343" lon="3.42965">
        <ele>671.626</ele>
        <time>2020-08-21T09:14:20Z</time>
      </trkpt>
      <trkpt lat="45.17348" lon="3.42935">
        <ele>673.779</ele>
        <time>2020-08-21T09:14:39Z</time>
      </trkpt>
      <trkpt lat="45.17349" lon="3.42908">
        <ele>675.839</ele>
        <time>2020-08-21T09:14:57Z</time>
      </trkpt>
      <trkpt lat="45.17349" lon="3.42908">
        <ele>675.839</ele>
        <time>2020-08-21T09:15:01Z</time>
      </trkpt>
    </trkseg>
  </trk>
</gpx>